<?xml version="1.0" encoding="UTF-8" standalone="no" ?>
<gpx xmlns="http://www.topografix.com/GPX/1/1" xmlns:xsi="http://www.w3.org/2001/XMLSchema-instance" xsi:schemaLocation="http://www.topografix.com/GPX/1/1 http://www.topografix.com/GPX/1/1/gpx.xsd" version="1.1" creator="VisuGPX - https://www.visugpx.com">
  <metadata>
    <name>Alpe d'Huez - Bikool</name>
    <desc><![CDATA[[b][/b]Premier test                      ]]></desc>
  </metadata>
  <trk>
    <name><![CDATA[20181125193834-qCZvd]]></name>
    <trkseg>
      <trkpt lat="45.0644" lon="6.03917">
        <ele>726</ele>
        <time>2018-11-25T16:54:58Z</time>
      </trkpt>
      <trkpt lat="45.0644" lon="6.03917">
        <ele>726</ele>
        <time>2018-11-25T16:55:03Z</time>
      </trkpt>
      <trkpt lat="45.0644" lon="6.03917">
        <ele>726</ele>
        <time>2018-11-25T16:55:04Z</time>
      </trkpt>
      <trkpt lat="45.0644" lon="6.03917">
        <ele>726</ele>
        <time>2018-11-25T16:55:06Z</time>
      </trkpt>
      <trkpt lat="45.0644" lon="6.03917">
        <ele>726</ele>
        <time>2018-11-25T16:55:08Z</time>
      </trkpt>
      <trkpt lat="45.0644" lon="6.03917">
        <ele>726</ele>
        <time>2018-11-25T16:55:10Z</time>
      </trkpt>
      <trkpt lat="45.0644" lon="6.03917">
        <ele>726</ele>
        <time>2018-11-25T16:55:12Z</time>
      </trkpt>
      <trkpt lat="45.0644" lon="6.03917">
        <ele>726</ele>
        <time>2018-11-25T16:55:14Z</time>
      </trkpt>
      <trkpt lat="45.0644" lon="6.03917">
        <ele>726</ele>
        <time>2018-11-25T16:55:16Z</time>
      </trkpt>
      <trkpt lat="45.0644" lon="6.03917">
        <ele>726</ele>
        <time>2018-11-25T16:55:18Z</time>
      </trkpt>
      <trkpt lat="45.0644" lon="6.03917">
        <ele>726</ele>
        <time>2018-11-25T16:55:20Z</time>
      </trkpt>
      <trkpt lat="45.0644" lon="6.03917">
        <ele>726</ele>
        <time>2018-11-25T16:55:22Z</time>
      </trkpt>
      <trkpt lat="45.0644" lon="6.03917">
        <ele>726</ele>
        <time>2018-11-25T16:55:25Z</time>
      </trkpt>
      <trkpt lat="45.0644" lon="6.03917">
        <ele>726</ele>
        <time>2018-11-25T16:55:26Z</time>
      </trkpt>
      <trkpt lat="45.0644" lon="6.03917">
        <ele>726</ele>
        <time>2018-11-25T16:55:28Z</time>
      </trkpt>
      <trkpt lat="45.0644" lon="6.03917">
        <ele>726</ele>
        <time>2018-11-25T16:55:30Z</time>
      </trkpt>
      <trkpt lat="45.06443" lon="6.03922">
        <ele>726</ele>
        <time>2018-11-25T16:55:36Z</time>
      </trkpt>
      <trkpt lat="45.0645" lon="6.03931">
        <ele>726</ele>
        <time>2018-11-25T16:55:38Z</time>
      </trkpt>
      <trkpt lat="45.06457" lon="6.03941">
        <ele>726</ele>
        <time>2018-11-25T16:55:40Z</time>
      </trkpt>
      <trkpt lat="45.06466" lon="6.03953">
        <ele>726</ele>
        <time>2018-11-25T16:55:42Z</time>
      </trkpt>
      <trkpt lat="45.06474" lon="6.03965">
        <ele>726</ele>
        <time>2018-11-25T16:55:44Z</time>
      </trkpt>
      <trkpt lat="45.06483" lon="6.03977">
        <ele>726</ele>
        <time>2018-11-25T16:55:46Z</time>
      </trkpt>
      <trkpt lat="45.06492" lon="6.03989">
        <ele>726</ele>
        <time>2018-11-25T16:55:48Z</time>
      </trkpt>
      <trkpt lat="45.06501" lon="6.04">
        <ele>726</ele>
        <time>2018-11-25T16:55:50Z</time>
      </trkpt>
      <trkpt lat="45.06511" lon="6.04009">
        <ele>726</ele>
        <time>2018-11-25T16:55:52Z</time>
      </trkpt>
      <trkpt lat="45.06521" lon="6.04014">
        <ele>726</ele>
        <time>2018-11-25T16:55:54Z</time>
      </trkpt>
      <trkpt lat="45.06532" lon="6.04016">
        <ele>727</ele>
        <time>2018-11-25T16:55:56Z</time>
      </trkpt>
      <trkpt lat="45.06544" lon="6.04014">
        <ele>727</ele>
        <time>2018-11-25T16:55:58Z</time>
      </trkpt>
      <trkpt lat="45.06554" lon="6.04011">
        <ele>727</ele>
        <time>2018-11-25T16:56:00Z</time>
      </trkpt>
      <trkpt lat="45.06565" lon="6.04007">
        <ele>728</ele>
        <time>2018-11-25T16:56:02Z</time>
      </trkpt>
      <trkpt lat="45.06576" lon="6.04003">
        <ele>728</ele>
        <time>2018-11-25T16:56:04Z</time>
      </trkpt>
      <trkpt lat="45.06586" lon="6.03999">
        <ele>729</ele>
        <time>2018-11-25T16:56:06Z</time>
      </trkpt>
      <trkpt lat="45.06596" lon="6.03995">
        <ele>729</ele>
        <time>2018-11-25T16:56:08Z</time>
      </trkpt>
      <trkpt lat="45.06602" lon="6.03992">
        <ele>729</ele>
        <time>2018-11-25T16:56:10Z</time>
      </trkpt>
      <trkpt lat="45.06611" lon="6.03988">
        <ele>730</ele>
        <time>2018-11-25T16:56:12Z</time>
      </trkpt>
      <trkpt lat="45.06621" lon="6.03985">
        <ele>731</ele>
        <time>2018-11-25T16:56:14Z</time>
      </trkpt>
      <trkpt lat="45.06629" lon="6.03982">
        <ele>732</ele>
        <time>2018-11-25T16:56:16Z</time>
      </trkpt>
      <trkpt lat="45.06638" lon="6.03979">
        <ele>732</ele>
        <time>2018-11-25T16:56:18Z</time>
      </trkpt>
      <trkpt lat="45.06646" lon="6.03976">
        <ele>733</ele>
        <time>2018-11-25T16:56:20Z</time>
      </trkpt>
      <trkpt lat="45.06653" lon="6.03973">
        <ele>734</ele>
        <time>2018-11-25T16:56:22Z</time>
      </trkpt>
      <trkpt lat="45.06659" lon="6.03971">
        <ele>735</ele>
        <time>2018-11-25T16:56:24Z</time>
      </trkpt>
      <trkpt lat="45.06663" lon="6.0397">
        <ele>735</ele>
        <time>2018-11-25T16:56:26Z</time>
      </trkpt>
      <trkpt lat="45.06669" lon="6.03969">
        <ele>736</ele>
        <time>2018-11-25T16:56:28Z</time>
      </trkpt>
      <trkpt lat="45.06675" lon="6.03967">
        <ele>736</ele>
        <time>2018-11-25T16:56:30Z</time>
      </trkpt>
      <trkpt lat="45.06682" lon="6.03966">
        <ele>737</ele>
        <time>2018-11-25T16:56:32Z</time>
      </trkpt>
      <trkpt lat="45.06686" lon="6.03965">
        <ele>737</ele>
        <time>2018-11-25T16:56:34Z</time>
      </trkpt>
      <trkpt lat="45.06692" lon="6.03964">
        <ele>738</ele>
        <time>2018-11-25T16:56:36Z</time>
      </trkpt>
      <trkpt lat="45.06698" lon="6.03963">
        <ele>739</ele>
        <time>2018-11-25T16:56:38Z</time>
      </trkpt>
      <trkpt lat="45.06701" lon="6.03963">
        <ele>739</ele>
        <time>2018-11-25T16:56:40Z</time>
      </trkpt>
      <trkpt lat="45.06707" lon="6.03962">
        <ele>740</ele>
        <time>2018-11-25T16:56:42Z</time>
      </trkpt>
      <trkpt lat="45.06713" lon="6.03961">
        <ele>740</ele>
        <time>2018-11-25T16:56:44Z</time>
      </trkpt>
      <trkpt lat="45.06716" lon="6.03961">
        <ele>741</ele>
        <time>2018-11-25T16:56:46Z</time>
      </trkpt>
      <trkpt lat="45.06722" lon="6.0396">
        <ele>741</ele>
        <time>2018-11-25T16:56:48Z</time>
      </trkpt>
      <trkpt lat="45.06728" lon="6.03959">
        <ele>742</ele>
        <time>2018-11-25T16:56:50Z</time>
      </trkpt>
      <trkpt lat="45.06731" lon="6.03959">
        <ele>742</ele>
        <time>2018-11-25T16:56:52Z</time>
      </trkpt>
      <trkpt lat="45.06737" lon="6.03958">
        <ele>743</ele>
        <time>2018-11-25T16:56:54Z</time>
      </trkpt>
      <trkpt lat="45.06743" lon="6.03957">
        <ele>743</ele>
        <time>2018-11-25T16:56:56Z</time>
      </trkpt>
      <trkpt lat="45.06746" lon="6.03957">
        <ele>744</ele>
        <time>2018-11-25T16:56:58Z</time>
      </trkpt>
      <trkpt lat="45.06751" lon="6.03956">
        <ele>744</ele>
        <time>2018-11-25T16:57:00Z</time>
      </trkpt>
      <trkpt lat="45.06757" lon="6.03956">
        <ele>745</ele>
        <time>2018-11-25T16:57:02Z</time>
      </trkpt>
      <trkpt lat="45.06761" lon="6.03955">
        <ele>745</ele>
        <time>2018-11-25T16:57:04Z</time>
      </trkpt>
      <trkpt lat="45.06766" lon="6.03955">
        <ele>746</ele>
        <time>2018-11-25T16:57:06Z</time>
      </trkpt>
      <trkpt lat="45.06772" lon="6.03954">
        <ele>747</ele>
        <time>2018-11-25T16:57:08Z</time>
      </trkpt>
      <trkpt lat="45.06775" lon="6.03953">
        <ele>747</ele>
        <time>2018-11-25T16:57:10Z</time>
      </trkpt>
      <trkpt lat="45.0678" lon="6.03952">
        <ele>747</ele>
        <time>2018-11-25T16:57:12Z</time>
      </trkpt>
      <trkpt lat="45.06783" lon="6.03951">
        <ele>748</ele>
        <time>2018-11-25T16:57:14Z</time>
      </trkpt>
      <trkpt lat="45.06788" lon="6.0395">
        <ele>748</ele>
        <time>2018-11-25T16:57:16Z</time>
      </trkpt>
      <trkpt lat="45.06794" lon="6.03948">
        <ele>749</ele>
        <time>2018-11-25T16:57:18Z</time>
      </trkpt>
      <trkpt lat="45.06797" lon="6.03947">
        <ele>749</ele>
        <time>2018-11-25T16:57:20Z</time>
      </trkpt>
      <trkpt lat="45.06802" lon="6.03945">
        <ele>750</ele>
        <time>2018-11-25T16:57:22Z</time>
      </trkpt>
      <trkpt lat="45.06805" lon="6.03943">
        <ele>750</ele>
        <time>2018-11-25T16:57:24Z</time>
      </trkpt>
      <trkpt lat="45.06811" lon="6.03941">
        <ele>751</ele>
        <time>2018-11-25T16:57:26Z</time>
      </trkpt>
      <trkpt lat="45.06816" lon="6.03938">
        <ele>752</ele>
        <time>2018-11-25T16:57:28Z</time>
      </trkpt>
      <trkpt lat="45.06819" lon="6.03937">
        <ele>752</ele>
        <time>2018-11-25T16:57:30Z</time>
      </trkpt>
      <trkpt lat="45.06825" lon="6.03934">
        <ele>753</ele>
        <time>2018-11-25T16:57:32Z</time>
      </trkpt>
      <trkpt lat="45.06828" lon="6.03933">
        <ele>753</ele>
        <time>2018-11-25T16:57:34Z</time>
      </trkpt>
      <trkpt lat="45.06834" lon="6.03933">
        <ele>754</ele>
        <time>2018-11-25T16:57:36Z</time>
      </trkpt>
      <trkpt lat="45.06839" lon="6.03933">
        <ele>754</ele>
        <time>2018-11-25T16:57:38Z</time>
      </trkpt>
      <trkpt lat="45.06842" lon="6.03934">
        <ele>755</ele>
        <time>2018-11-25T16:57:40Z</time>
      </trkpt>
      <trkpt lat="45.06848" lon="6.03935">
        <ele>755</ele>
        <time>2018-11-25T16:57:42Z</time>
      </trkpt>
      <trkpt lat="45.06853" lon="6.03936">
        <ele>756</ele>
        <time>2018-11-25T16:57:44Z</time>
      </trkpt>
      <trkpt lat="45.06856" lon="6.03936">
        <ele>757</ele>
        <time>2018-11-25T16:57:46Z</time>
      </trkpt>
      <trkpt lat="45.06862" lon="6.03937">
        <ele>757</ele>
        <time>2018-11-25T16:57:48Z</time>
      </trkpt>
      <trkpt lat="45.06867" lon="6.03937">
        <ele>758</ele>
        <time>2018-11-25T16:57:50Z</time>
      </trkpt>
      <trkpt lat="45.06869" lon="6.03937">
        <ele>758</ele>
        <time>2018-11-25T16:57:52Z</time>
      </trkpt>
      <trkpt lat="45.06875" lon="6.03937">
        <ele>759</ele>
        <time>2018-11-25T16:57:54Z</time>
      </trkpt>
      <trkpt lat="45.06878" lon="6.03937">
        <ele>759</ele>
        <time>2018-11-25T16:57:56Z</time>
      </trkpt>
      <trkpt lat="45.06884" lon="6.03936">
        <ele>760</ele>
        <time>2018-11-25T16:57:58Z</time>
      </trkpt>
      <trkpt lat="45.06887" lon="6.03936">
        <ele>760</ele>
        <time>2018-11-25T16:58:00Z</time>
      </trkpt>
      <trkpt lat="45.06892" lon="6.03935">
        <ele>761</ele>
        <time>2018-11-25T16:58:02Z</time>
      </trkpt>
      <trkpt lat="45.06897" lon="6.03934">
        <ele>762</ele>
        <time>2018-11-25T16:58:04Z</time>
      </trkpt>
      <trkpt lat="45.06901" lon="6.03933">
        <ele>762</ele>
        <time>2018-11-25T16:58:06Z</time>
      </trkpt>
      <trkpt lat="45.06906" lon="6.03931">
        <ele>763</ele>
        <time>2018-11-25T16:58:08Z</time>
      </trkpt>
      <trkpt lat="45.06909" lon="6.0393">
        <ele>763</ele>
        <time>2018-11-25T16:58:10Z</time>
      </trkpt>
      <trkpt lat="45.06915" lon="6.03928">
        <ele>764</ele>
        <time>2018-11-25T16:58:12Z</time>
      </trkpt>
      <trkpt lat="45.06918" lon="6.03927">
        <ele>765</ele>
        <time>2018-11-25T16:58:14Z</time>
      </trkpt>
      <trkpt lat="45.06923" lon="6.03925">
        <ele>765</ele>
        <time>2018-11-25T16:58:16Z</time>
      </trkpt>
      <trkpt lat="45.06928" lon="6.03924">
        <ele>766</ele>
        <time>2018-11-25T16:58:18Z</time>
      </trkpt>
      <trkpt lat="45.06931" lon="6.03922">
        <ele>766</ele>
        <time>2018-11-25T16:58:20Z</time>
      </trkpt>
      <trkpt lat="45.06936" lon="6.0392">
        <ele>767</ele>
        <time>2018-11-25T16:58:22Z</time>
      </trkpt>
      <trkpt lat="45.06939" lon="6.03919">
        <ele>768</ele>
        <time>2018-11-25T16:58:24Z</time>
      </trkpt>
      <trkpt lat="45.06945" lon="6.03916">
        <ele>768</ele>
        <time>2018-11-25T16:58:26Z</time>
      </trkpt>
      <trkpt lat="45.0695" lon="6.03913">
        <ele>769</ele>
        <time>2018-11-25T16:58:28Z</time>
      </trkpt>
      <trkpt lat="45.06953" lon="6.03911">
        <ele>769</ele>
        <time>2018-11-25T16:58:30Z</time>
      </trkpt>
      <trkpt lat="45.06958" lon="6.03908">
        <ele>770</ele>
        <time>2018-11-25T16:58:32Z</time>
      </trkpt>
      <trkpt lat="45.06963" lon="6.03905">
        <ele>771</ele>
        <time>2018-11-25T16:58:34Z</time>
      </trkpt>
      <trkpt lat="45.06966" lon="6.03903">
        <ele>771</ele>
        <time>2018-11-25T16:58:36Z</time>
      </trkpt>
      <trkpt lat="45.06971" lon="6.03901">
        <ele>772</ele>
        <time>2018-11-25T16:58:38Z</time>
      </trkpt>
      <trkpt lat="45.06974" lon="6.03899">
        <ele>772</ele>
        <time>2018-11-25T16:58:40Z</time>
      </trkpt>
      <trkpt lat="45.06979" lon="6.03896">
        <ele>773</ele>
        <time>2018-11-25T16:58:42Z</time>
      </trkpt>
      <trkpt lat="45.06984" lon="6.03894">
        <ele>774</ele>
        <time>2018-11-25T16:58:44Z</time>
      </trkpt>
      <trkpt lat="45.06988" lon="6.03892">
        <ele>774</ele>
        <time>2018-11-25T16:58:46Z</time>
      </trkpt>
      <trkpt lat="45.06993" lon="6.0389">
        <ele>775</ele>
        <time>2018-11-25T16:58:48Z</time>
      </trkpt>
      <trkpt lat="45.06998" lon="6.03887">
        <ele>776</ele>
        <time>2018-11-25T16:58:50Z</time>
      </trkpt>
      <trkpt lat="45.07001" lon="6.03886">
        <ele>776</ele>
        <time>2018-11-25T16:58:52Z</time>
      </trkpt>
      <trkpt lat="45.07006" lon="6.03884">
        <ele>777</ele>
        <time>2018-11-25T16:58:54Z</time>
      </trkpt>
      <trkpt lat="45.07011" lon="6.03882">
        <ele>778</ele>
        <time>2018-11-25T16:58:56Z</time>
      </trkpt>
      <trkpt lat="45.07014" lon="6.03881">
        <ele>778</ele>
        <time>2018-11-25T16:58:58Z</time>
      </trkpt>
      <trkpt lat="45.0702" lon="6.03879">
        <ele>779</ele>
        <time>2018-11-25T16:59:00Z</time>
      </trkpt>
      <trkpt lat="45.07025" lon="6.03877">
        <ele>779</ele>
        <time>2018-11-25T16:59:02Z</time>
      </trkpt>
      <trkpt lat="45.07029" lon="6.03877">
        <ele>780</ele>
        <time>2018-11-25T16:59:04Z</time>
      </trkpt>
      <trkpt lat="45.07034" lon="6.03877">
        <ele>781</ele>
        <time>2018-11-25T16:59:06Z</time>
      </trkpt>
      <trkpt lat="45.07039" lon="6.03876">
        <ele>781</ele>
        <time>2018-11-25T16:59:08Z</time>
      </trkpt>
      <trkpt lat="45.07043" lon="6.03875">
        <ele>782</ele>
        <time>2018-11-25T16:59:10Z</time>
      </trkpt>
      <trkpt lat="45.07048" lon="6.03876">
        <ele>782</ele>
        <time>2018-11-25T16:59:12Z</time>
      </trkpt>
      <trkpt lat="45.07054" lon="6.03876">
        <ele>783</ele>
        <time>2018-11-25T16:59:14Z</time>
      </trkpt>
      <trkpt lat="45.07057" lon="6.03877">
        <ele>783</ele>
        <time>2018-11-25T16:59:16Z</time>
      </trkpt>
      <trkpt lat="45.07062" lon="6.03877">
        <ele>784</ele>
        <time>2018-11-25T16:59:18Z</time>
      </trkpt>
      <trkpt lat="45.07068" lon="6.03878">
        <ele>785</ele>
        <time>2018-11-25T16:59:20Z</time>
      </trkpt>
      <trkpt lat="45.07073" lon="6.03879">
        <ele>785</ele>
        <time>2018-11-25T16:59:22Z</time>
      </trkpt>
      <trkpt lat="45.07076" lon="6.0388">
        <ele>786</ele>
        <time>2018-11-25T16:59:24Z</time>
      </trkpt>
      <trkpt lat="45.07081" lon="6.03881">
        <ele>786</ele>
        <time>2018-11-25T16:59:26Z</time>
      </trkpt>
      <trkpt lat="45.07087" lon="6.03882">
        <ele>787</ele>
        <time>2018-11-25T16:59:28Z</time>
      </trkpt>
      <trkpt lat="45.0709" lon="6.03883">
        <ele>788</ele>
        <time>2018-11-25T16:59:30Z</time>
      </trkpt>
      <trkpt lat="45.07095" lon="6.03884">
        <ele>788</ele>
        <time>2018-11-25T16:59:32Z</time>
      </trkpt>
      <trkpt lat="45.071" lon="6.03886">
        <ele>789</ele>
        <time>2018-11-25T16:59:34Z</time>
      </trkpt>
      <trkpt lat="45.07104" lon="6.03887">
        <ele>789</ele>
        <time>2018-11-25T16:59:36Z</time>
      </trkpt>
      <trkpt lat="45.07109" lon="6.03888">
        <ele>790</ele>
        <time>2018-11-25T16:59:38Z</time>
      </trkpt>
      <trkpt lat="45.07114" lon="6.0389">
        <ele>791</ele>
        <time>2018-11-25T16:59:40Z</time>
      </trkpt>
      <trkpt lat="45.07119" lon="6.03892">
        <ele>791</ele>
        <time>2018-11-25T16:59:42Z</time>
      </trkpt>
      <trkpt lat="45.07123" lon="6.03893">
        <ele>792</ele>
        <time>2018-11-25T16:59:44Z</time>
      </trkpt>
      <trkpt lat="45.07128" lon="6.03895">
        <ele>792</ele>
        <time>2018-11-25T16:59:46Z</time>
      </trkpt>
      <trkpt lat="45.07133" lon="6.03897">
        <ele>793</ele>
        <time>2018-11-25T16:59:48Z</time>
      </trkpt>
      <trkpt lat="45.07138" lon="6.03899">
        <ele>794</ele>
        <time>2018-11-25T16:59:50Z</time>
      </trkpt>
      <trkpt lat="45.07142" lon="6.039">
        <ele>794</ele>
        <time>2018-11-25T16:59:52Z</time>
      </trkpt>
      <trkpt lat="45.07147" lon="6.03901">
        <ele>794</ele>
        <time>2018-11-25T16:59:54Z</time>
      </trkpt>
      <trkpt lat="45.07152" lon="6.03902">
        <ele>795</ele>
        <time>2018-11-25T16:59:56Z</time>
      </trkpt>
      <trkpt lat="45.07158" lon="6.03902">
        <ele>795</ele>
        <time>2018-11-25T16:59:58Z</time>
      </trkpt>
      <trkpt lat="45.07161" lon="6.03902">
        <ele>796</ele>
        <time>2018-11-25T17:00:00Z</time>
      </trkpt>
      <trkpt lat="45.07167" lon="6.03902">
        <ele>796</ele>
        <time>2018-11-25T17:00:02Z</time>
      </trkpt>
      <trkpt lat="45.07172" lon="6.03901">
        <ele>797</ele>
        <time>2018-11-25T17:00:04Z</time>
      </trkpt>
      <trkpt lat="45.07177" lon="6.03902">
        <ele>797</ele>
        <time>2018-11-25T17:00:06Z</time>
      </trkpt>
      <trkpt lat="45.07181" lon="6.03902">
        <ele>798</ele>
        <time>2018-11-25T17:00:08Z</time>
      </trkpt>
      <trkpt lat="45.07186" lon="6.03903">
        <ele>798</ele>
        <time>2018-11-25T17:00:10Z</time>
      </trkpt>
      <trkpt lat="45.07191" lon="6.03906">
        <ele>799</ele>
        <time>2018-11-25T17:00:12Z</time>
      </trkpt>
      <trkpt lat="45.07192" lon="6.03912">
        <ele>799</ele>
        <time>2018-11-25T17:00:14Z</time>
      </trkpt>
      <trkpt lat="45.07187" lon="6.03914">
        <ele>800</ele>
        <time>2018-11-25T17:00:16Z</time>
      </trkpt>
      <trkpt lat="45.07183" lon="6.03916">
        <ele>800</ele>
        <time>2018-11-25T17:00:18Z</time>
      </trkpt>
      <trkpt lat="45.07178" lon="6.03918">
        <ele>801</ele>
        <time>2018-11-25T17:00:20Z</time>
      </trkpt>
      <trkpt lat="45.07173" lon="6.03916">
        <ele>801</ele>
        <time>2018-11-25T17:00:22Z</time>
      </trkpt>
      <trkpt lat="45.07167" lon="6.03913">
        <ele>802</ele>
        <time>2018-11-25T17:00:24Z</time>
      </trkpt>
      <trkpt lat="45.07161" lon="6.03911">
        <ele>803</ele>
        <time>2018-11-25T17:00:26Z</time>
      </trkpt>
      <trkpt lat="45.07157" lon="6.03914">
        <ele>803</ele>
        <time>2018-11-25T17:00:28Z</time>
      </trkpt>
      <trkpt lat="45.07151" lon="6.03917">
        <ele>804</ele>
        <time>2018-11-25T17:00:30Z</time>
      </trkpt>
      <trkpt lat="45.07145" lon="6.03918">
        <ele>805</ele>
        <time>2018-11-25T17:00:32Z</time>
      </trkpt>
      <trkpt lat="45.07141" lon="6.03918">
        <ele>805</ele>
        <time>2018-11-25T17:00:34Z</time>
      </trkpt>
      <trkpt lat="45.07136" lon="6.03919">
        <ele>806</ele>
        <time>2018-11-25T17:00:36Z</time>
      </trkpt>
      <trkpt lat="45.07134" lon="6.03919">
        <ele>806</ele>
        <time>2018-11-25T17:00:38Z</time>
      </trkpt>
      <trkpt lat="45.07129" lon="6.03919">
        <ele>806</ele>
        <time>2018-11-25T17:00:40Z</time>
      </trkpt>
      <trkpt lat="45.07123" lon="6.03919">
        <ele>807</ele>
        <time>2018-11-25T17:00:42Z</time>
      </trkpt>
      <trkpt lat="45.07117" lon="6.0392">
        <ele>808</ele>
        <time>2018-11-25T17:00:44Z</time>
      </trkpt>
      <trkpt lat="45.07113" lon="6.03921">
        <ele>808</ele>
        <time>2018-11-25T17:00:46Z</time>
      </trkpt>
      <trkpt lat="45.07107" lon="6.03922">
        <ele>809</ele>
        <time>2018-11-25T17:00:48Z</time>
      </trkpt>
      <trkpt lat="45.07101" lon="6.03925">
        <ele>809</ele>
        <time>2018-11-25T17:00:50Z</time>
      </trkpt>
      <trkpt lat="45.07095" lon="6.03927">
        <ele>810</ele>
        <time>2018-11-25T17:00:52Z</time>
      </trkpt>
      <trkpt lat="45.07092" lon="6.03929">
        <ele>810</ele>
        <time>2018-11-25T17:00:54Z</time>
      </trkpt>
      <trkpt lat="45.07086" lon="6.03932">
        <ele>811</ele>
        <time>2018-11-25T17:00:56Z</time>
      </trkpt>
      <trkpt lat="45.0708" lon="6.03935">
        <ele>812</ele>
        <time>2018-11-25T17:00:58Z</time>
      </trkpt>
      <trkpt lat="45.07077" lon="6.03936">
        <ele>812</ele>
        <time>2018-11-25T17:01:00Z</time>
      </trkpt>
      <trkpt lat="45.07071" lon="6.03939">
        <ele>813</ele>
        <time>2018-11-25T17:01:02Z</time>
      </trkpt>
      <trkpt lat="45.07066" lon="6.03941">
        <ele>813</ele>
        <time>2018-11-25T17:01:04Z</time>
      </trkpt>
      <trkpt lat="45.0706" lon="6.03944">
        <ele>814</ele>
        <time>2018-11-25T17:01:06Z</time>
      </trkpt>
      <trkpt lat="45.07057" lon="6.03946">
        <ele>814</ele>
        <time>2018-11-25T17:01:08Z</time>
      </trkpt>
      <trkpt lat="45.07052" lon="6.03949">
        <ele>815</ele>
        <time>2018-11-25T17:01:10Z</time>
      </trkpt>
      <trkpt lat="45.07047" lon="6.03952">
        <ele>816</ele>
        <time>2018-11-25T17:01:12Z</time>
      </trkpt>
      <trkpt lat="45.07042" lon="6.03956">
        <ele>816</ele>
        <time>2018-11-25T17:01:14Z</time>
      </trkpt>
      <trkpt lat="45.07038" lon="6.03958">
        <ele>817</ele>
        <time>2018-11-25T17:01:16Z</time>
      </trkpt>
      <trkpt lat="45.07033" lon="6.03962">
        <ele>817</ele>
        <time>2018-11-25T17:01:18Z</time>
      </trkpt>
      <trkpt lat="45.07029" lon="6.03966">
        <ele>818</ele>
        <time>2018-11-25T17:01:20Z</time>
      </trkpt>
      <trkpt lat="45.07024" lon="6.0397">
        <ele>818</ele>
        <time>2018-11-25T17:01:22Z</time>
      </trkpt>
      <trkpt lat="45.07019" lon="6.03975">
        <ele>819</ele>
        <time>2018-11-25T17:01:24Z</time>
      </trkpt>
      <trkpt lat="45.07017" lon="6.03978">
        <ele>819</ele>
        <time>2018-11-25T17:01:26Z</time>
      </trkpt>
      <trkpt lat="45.07012" lon="6.03983">
        <ele>820</ele>
        <time>2018-11-25T17:01:28Z</time>
      </trkpt>
      <trkpt lat="45.07008" lon="6.03988">
        <ele>821</ele>
        <time>2018-11-25T17:01:30Z</time>
      </trkpt>
      <trkpt lat="45.07004" lon="6.03994">
        <ele>821</ele>
        <time>2018-11-25T17:01:32Z</time>
      </trkpt>
      <trkpt lat="45.07" lon="6.04">
        <ele>822</ele>
        <time>2018-11-25T17:01:34Z</time>
      </trkpt>
      <trkpt lat="45.06997" lon="6.04006">
        <ele>823</ele>
        <time>2018-11-25T17:01:36Z</time>
      </trkpt>
      <trkpt lat="45.06994" lon="6.0401">
        <ele>823</ele>
        <time>2018-11-25T17:01:38Z</time>
      </trkpt>
      <trkpt lat="45.0699" lon="6.04015">
        <ele>824</ele>
        <time>2018-11-25T17:01:40Z</time>
      </trkpt>
      <trkpt lat="45.06986" lon="6.0402">
        <ele>824</ele>
        <time>2018-11-25T17:01:42Z</time>
      </trkpt>
      <trkpt lat="45.06981" lon="6.04024">
        <ele>825</ele>
        <time>2018-11-25T17:01:44Z</time>
      </trkpt>
      <trkpt lat="45.06976" lon="6.04028">
        <ele>826</ele>
        <time>2018-11-25T17:01:46Z</time>
      </trkpt>
      <trkpt lat="45.06971" lon="6.04032">
        <ele>826</ele>
        <time>2018-11-25T17:01:48Z</time>
      </trkpt>
      <trkpt lat="45.06968" lon="6.04036">
        <ele>827</ele>
        <time>2018-11-25T17:01:50Z</time>
      </trkpt>
      <trkpt lat="45.06964" lon="6.0404">
        <ele>827</ele>
        <time>2018-11-25T17:01:52Z</time>
      </trkpt>
      <trkpt lat="45.0696" lon="6.04045">
        <ele>828</ele>
        <time>2018-11-25T17:01:54Z</time>
      </trkpt>
      <trkpt lat="45.06956" lon="6.04051">
        <ele>829</ele>
        <time>2018-11-25T17:01:56Z</time>
      </trkpt>
      <trkpt lat="45.06952" lon="6.04056">
        <ele>829</ele>
        <time>2018-11-25T17:01:58Z</time>
      </trkpt>
      <trkpt lat="45.0695" lon="6.0406">
        <ele>830</ele>
        <time>2018-11-25T17:02:00Z</time>
      </trkpt>
      <trkpt lat="45.06946" lon="6.04066">
        <ele>830</ele>
        <time>2018-11-25T17:02:02Z</time>
      </trkpt>
      <trkpt lat="45.06943" lon="6.04072">
        <ele>831</ele>
        <time>2018-11-25T17:02:04Z</time>
      </trkpt>
      <trkpt lat="45.06939" lon="6.04078">
        <ele>831</ele>
        <time>2018-11-25T17:02:06Z</time>
      </trkpt>
      <trkpt lat="45.06936" lon="6.04084">
        <ele>832</ele>
        <time>2018-11-25T17:02:08Z</time>
      </trkpt>
      <trkpt lat="45.06932" lon="6.0409">
        <ele>833</ele>
        <time>2018-11-25T17:02:10Z</time>
      </trkpt>
      <trkpt lat="45.06929" lon="6.04094">
        <ele>833</ele>
        <time>2018-11-25T17:02:12Z</time>
      </trkpt>
      <trkpt lat="45.06925" lon="6.04099">
        <ele>834</ele>
        <time>2018-11-25T17:02:14Z</time>
      </trkpt>
      <trkpt lat="45.0692" lon="6.04103">
        <ele>834</ele>
        <time>2018-11-25T17:02:16Z</time>
      </trkpt>
      <trkpt lat="45.06915" lon="6.04106">
        <ele>835</ele>
        <time>2018-11-25T17:02:18Z</time>
      </trkpt>
      <trkpt lat="45.0691" lon="6.04108">
        <ele>836</ele>
        <time>2018-11-25T17:02:20Z</time>
      </trkpt>
      <trkpt lat="45.06904" lon="6.0411">
        <ele>837</ele>
        <time>2018-11-25T17:02:22Z</time>
      </trkpt>
      <trkpt lat="45.06901" lon="6.04111">
        <ele>837</ele>
        <time>2018-11-25T17:02:24Z</time>
      </trkpt>
      <trkpt lat="45.06896" lon="6.04112">
        <ele>838</ele>
        <time>2018-11-25T17:02:26Z</time>
      </trkpt>
      <trkpt lat="45.0689" lon="6.04113">
        <ele>838</ele>
        <time>2018-11-25T17:02:28Z</time>
      </trkpt>
      <trkpt lat="45.06885" lon="6.04114">
        <ele>839</ele>
        <time>2018-11-25T17:02:30Z</time>
      </trkpt>
      <trkpt lat="45.06879" lon="6.04115">
        <ele>840</ele>
        <time>2018-11-25T17:02:32Z</time>
      </trkpt>
      <trkpt lat="45.06875" lon="6.04116">
        <ele>840</ele>
        <time>2018-11-25T17:02:34Z</time>
      </trkpt>
      <trkpt lat="45.0687" lon="6.04117">
        <ele>841</ele>
        <time>2018-11-25T17:02:36Z</time>
      </trkpt>
      <trkpt lat="45.06864" lon="6.04118">
        <ele>842</ele>
        <time>2018-11-25T17:02:38Z</time>
      </trkpt>
      <trkpt lat="45.06858" lon="6.0412">
        <ele>842</ele>
        <time>2018-11-25T17:02:40Z</time>
      </trkpt>
      <trkpt lat="45.06853" lon="6.04121">
        <ele>843</ele>
        <time>2018-11-25T17:02:42Z</time>
      </trkpt>
      <trkpt lat="45.06848" lon="6.04122">
        <ele>844</ele>
        <time>2018-11-25T17:02:44Z</time>
      </trkpt>
      <trkpt lat="45.06844" lon="6.04123">
        <ele>844</ele>
        <time>2018-11-25T17:02:46Z</time>
      </trkpt>
      <trkpt lat="45.06839" lon="6.04124">
        <ele>845</ele>
        <time>2018-11-25T17:02:48Z</time>
      </trkpt>
      <trkpt lat="45.06833" lon="6.04125">
        <ele>845</ele>
        <time>2018-11-25T17:02:50Z</time>
      </trkpt>
      <trkpt lat="45.06828" lon="6.04126">
        <ele>846</ele>
        <time>2018-11-25T17:02:52Z</time>
      </trkpt>
      <trkpt lat="45.06823" lon="6.04127">
        <ele>847</ele>
        <time>2018-11-25T17:02:54Z</time>
      </trkpt>
      <trkpt lat="45.0682" lon="6.04128">
        <ele>847</ele>
        <time>2018-11-25T17:02:56Z</time>
      </trkpt>
      <trkpt lat="45.06814" lon="6.0413">
        <ele>848</ele>
        <time>2018-11-25T17:02:58Z</time>
      </trkpt>
      <trkpt lat="45.06809" lon="6.04132">
        <ele>849</ele>
        <time>2018-11-25T17:03:00Z</time>
      </trkpt>
      <trkpt lat="45.06804" lon="6.04134">
        <ele>849</ele>
        <time>2018-11-25T17:03:02Z</time>
      </trkpt>
      <trkpt lat="45.06799" lon="6.04137">
        <ele>850</ele>
        <time>2018-11-25T17:03:04Z</time>
      </trkpt>
      <trkpt lat="45.06794" lon="6.04139">
        <ele>851</ele>
        <time>2018-11-25T17:03:06Z</time>
      </trkpt>
      <trkpt lat="45.06791" lon="6.04141">
        <ele>851</ele>
        <time>2018-11-25T17:03:08Z</time>
      </trkpt>
      <trkpt lat="45.06785" lon="6.04143">
        <ele>852</ele>
        <time>2018-11-25T17:03:10Z</time>
      </trkpt>
      <trkpt lat="45.0678" lon="6.04146">
        <ele>852</ele>
        <time>2018-11-25T17:03:12Z</time>
      </trkpt>
      <trkpt lat="45.06775" lon="6.04148">
        <ele>853</ele>
        <time>2018-11-25T17:03:14Z</time>
      </trkpt>
      <trkpt lat="45.0677" lon="6.04151">
        <ele>854</ele>
        <time>2018-11-25T17:03:16Z</time>
      </trkpt>
      <trkpt lat="45.06765" lon="6.04153">
        <ele>854</ele>
        <time>2018-11-25T17:03:18Z</time>
      </trkpt>
      <trkpt lat="45.0676" lon="6.04156">
        <ele>855</ele>
        <time>2018-11-25T17:03:20Z</time>
      </trkpt>
      <trkpt lat="45.06757" lon="6.04157">
        <ele>856</ele>
        <time>2018-11-25T17:03:22Z</time>
      </trkpt>
      <trkpt lat="45.06752" lon="6.0416">
        <ele>856</ele>
        <time>2018-11-25T17:03:24Z</time>
      </trkpt>
      <trkpt lat="45.06747" lon="6.04162">
        <ele>857</ele>
        <time>2018-11-25T17:03:26Z</time>
      </trkpt>
      <trkpt lat="45.06743" lon="6.04165">
        <ele>858</ele>
        <time>2018-11-25T17:03:28Z</time>
      </trkpt>
      <trkpt lat="45.06739" lon="6.04167">
        <ele>858</ele>
        <time>2018-11-25T17:03:30Z</time>
      </trkpt>
      <trkpt lat="45.06735" lon="6.04169">
        <ele>859</ele>
        <time>2018-11-25T17:03:32Z</time>
      </trkpt>
      <trkpt lat="45.0673" lon="6.04172">
        <ele>859</ele>
        <time>2018-11-25T17:03:34Z</time>
      </trkpt>
      <trkpt lat="45.06725" lon="6.04175">
        <ele>860</ele>
        <time>2018-11-25T17:03:36Z</time>
      </trkpt>
      <trkpt lat="45.0672" lon="6.04177">
        <ele>861</ele>
        <time>2018-11-25T17:03:38Z</time>
      </trkpt>
      <trkpt lat="45.06715" lon="6.0418">
        <ele>861</ele>
        <time>2018-11-25T17:03:40Z</time>
      </trkpt>
      <trkpt lat="45.06712" lon="6.04182">
        <ele>862</ele>
        <time>2018-11-25T17:03:42Z</time>
      </trkpt>
      <trkpt lat="45.06707" lon="6.04185">
        <ele>862</ele>
        <time>2018-11-25T17:03:44Z</time>
      </trkpt>
      <trkpt lat="45.06702" lon="6.04187">
        <ele>863</ele>
        <time>2018-11-25T17:03:46Z</time>
      </trkpt>
      <trkpt lat="45.06697" lon="6.0419">
        <ele>864</ele>
        <time>2018-11-25T17:03:48Z</time>
      </trkpt>
      <trkpt lat="45.06692" lon="6.04192">
        <ele>864</ele>
        <time>2018-11-25T17:03:50Z</time>
      </trkpt>
      <trkpt lat="45.06687" lon="6.04195">
        <ele>865</ele>
        <time>2018-11-25T17:03:52Z</time>
      </trkpt>
      <trkpt lat="45.06682" lon="6.04197">
        <ele>866</ele>
        <time>2018-11-25T17:03:54Z</time>
      </trkpt>
      <trkpt lat="45.06678" lon="6.042">
        <ele>866</ele>
        <time>2018-11-25T17:03:56Z</time>
      </trkpt>
      <trkpt lat="45.06673" lon="6.04202">
        <ele>867</ele>
        <time>2018-11-25T17:03:58Z</time>
      </trkpt>
      <trkpt lat="45.06668" lon="6.04204">
        <ele>868</ele>
        <time>2018-11-25T17:04:00Z</time>
      </trkpt>
      <trkpt lat="45.06664" lon="6.04205">
        <ele>868</ele>
        <time>2018-11-25T17:04:02Z</time>
      </trkpt>
      <trkpt lat="45.0666" lon="6.04207">
        <ele>869</ele>
        <time>2018-11-25T17:04:04Z</time>
      </trkpt>
      <trkpt lat="45.06655" lon="6.04209">
        <ele>870</ele>
        <time>2018-11-25T17:04:06Z</time>
      </trkpt>
      <trkpt lat="45.0665" lon="6.04211">
        <ele>870</ele>
        <time>2018-11-25T17:04:08Z</time>
      </trkpt>
      <trkpt lat="45.06645" lon="6.04214">
        <ele>871</ele>
        <time>2018-11-25T17:04:10Z</time>
      </trkpt>
      <trkpt lat="45.06641" lon="6.04219">
        <ele>871</ele>
        <time>2018-11-25T17:04:12Z</time>
      </trkpt>
      <trkpt lat="45.06639" lon="6.04225">
        <ele>872</ele>
        <time>2018-11-25T17:04:14Z</time>
      </trkpt>
      <trkpt lat="45.0664" lon="6.04232">
        <ele>872</ele>
        <time>2018-11-25T17:04:16Z</time>
      </trkpt>
      <trkpt lat="45.06644" lon="6.04237">
        <ele>872</ele>
        <time>2018-11-25T17:04:18Z</time>
      </trkpt>
      <trkpt lat="45.0665" lon="6.04237">
        <ele>873</ele>
        <time>2018-11-25T17:04:20Z</time>
      </trkpt>
      <trkpt lat="45.06656" lon="6.04235">
        <ele>874</ele>
        <time>2018-11-25T17:04:22Z</time>
      </trkpt>
      <trkpt lat="45.06662" lon="6.04231">
        <ele>874</ele>
        <time>2018-11-25T17:04:24Z</time>
      </trkpt>
      <trkpt lat="45.06668" lon="6.04227">
        <ele>875</ele>
        <time>2018-11-25T17:04:26Z</time>
      </trkpt>
      <trkpt lat="45.06674" lon="6.04224">
        <ele>876</ele>
        <time>2018-11-25T17:04:28Z</time>
      </trkpt>
      <trkpt lat="45.0668" lon="6.0422">
        <ele>877</ele>
        <time>2018-11-25T17:04:30Z</time>
      </trkpt>
      <trkpt lat="45.06686" lon="6.04217">
        <ele>877</ele>
        <time>2018-11-25T17:04:32Z</time>
      </trkpt>
      <trkpt lat="45.06692" lon="6.04215">
        <ele>878</ele>
        <time>2018-11-25T17:04:34Z</time>
      </trkpt>
      <trkpt lat="45.06697" lon="6.04212">
        <ele>879</ele>
        <time>2018-11-25T17:04:36Z</time>
      </trkpt>
      <trkpt lat="45.06702" lon="6.0421">
        <ele>879</ele>
        <time>2018-11-25T17:04:38Z</time>
      </trkpt>
      <trkpt lat="45.06707" lon="6.04207">
        <ele>880</ele>
        <time>2018-11-25T17:04:40Z</time>
      </trkpt>
      <trkpt lat="45.06711" lon="6.04206">
        <ele>880</ele>
        <time>2018-11-25T17:04:42Z</time>
      </trkpt>
      <trkpt lat="45.06716" lon="6.04203">
        <ele>881</ele>
        <time>2018-11-25T17:04:44Z</time>
      </trkpt>
      <trkpt lat="45.06721" lon="6.042">
        <ele>882</ele>
        <time>2018-11-25T17:04:46Z</time>
      </trkpt>
      <trkpt lat="45.06726" lon="6.04198">
        <ele>882</ele>
        <time>2018-11-25T17:04:48Z</time>
      </trkpt>
      <trkpt lat="45.06732" lon="6.04195">
        <ele>883</ele>
        <time>2018-11-25T17:04:50Z</time>
      </trkpt>
      <trkpt lat="45.06737" lon="6.04192">
        <ele>884</ele>
        <time>2018-11-25T17:04:52Z</time>
      </trkpt>
      <trkpt lat="45.06742" lon="6.0419">
        <ele>885</ele>
        <time>2018-11-25T17:04:54Z</time>
      </trkpt>
      <trkpt lat="45.06745" lon="6.04189">
        <ele>885</ele>
        <time>2018-11-25T17:04:56Z</time>
      </trkpt>
      <trkpt lat="45.0675" lon="6.04187">
        <ele>886</ele>
        <time>2018-11-25T17:04:58Z</time>
      </trkpt>
      <trkpt lat="45.06755" lon="6.04186">
        <ele>887</ele>
        <time>2018-11-25T17:05:00Z</time>
      </trkpt>
      <trkpt lat="45.06759" lon="6.04186">
        <ele>887</ele>
        <time>2018-11-25T17:05:02Z</time>
      </trkpt>
      <trkpt lat="45.06764" lon="6.04186">
        <ele>888</ele>
        <time>2018-11-25T17:05:04Z</time>
      </trkpt>
      <trkpt lat="45.06769" lon="6.04187">
        <ele>888</ele>
        <time>2018-11-25T17:05:06Z</time>
      </trkpt>
      <trkpt lat="45.06774" lon="6.04189">
        <ele>889</ele>
        <time>2018-11-25T17:05:08Z</time>
      </trkpt>
      <trkpt lat="45.06777" lon="6.04189">
        <ele>890</ele>
        <time>2018-11-25T17:05:10Z</time>
      </trkpt>
      <trkpt lat="45.06782" lon="6.04191">
        <ele>890</ele>
        <time>2018-11-25T17:05:12Z</time>
      </trkpt>
      <trkpt lat="45.06787" lon="6.04193">
        <ele>891</ele>
        <time>2018-11-25T17:05:14Z</time>
      </trkpt>
      <trkpt lat="45.06792" lon="6.04195">
        <ele>892</ele>
        <time>2018-11-25T17:05:16Z</time>
      </trkpt>
      <trkpt lat="45.06796" lon="6.04197">
        <ele>892</ele>
        <time>2018-11-25T17:05:18Z</time>
      </trkpt>
      <trkpt lat="45.06799" lon="6.04202">
        <ele>893</ele>
        <time>2018-11-25T17:05:20Z</time>
      </trkpt>
      <trkpt lat="45.06796" lon="6.04205">
        <ele>893</ele>
        <time>2018-11-25T17:05:22Z</time>
      </trkpt>
      <trkpt lat="45.06791" lon="6.04207">
        <ele>894</ele>
        <time>2018-11-25T17:05:24Z</time>
      </trkpt>
      <trkpt lat="45.06786" lon="6.04204">
        <ele>894</ele>
        <time>2018-11-25T17:05:26Z</time>
      </trkpt>
      <trkpt lat="45.06781" lon="6.042">
        <ele>895</ele>
        <time>2018-11-25T17:05:28Z</time>
      </trkpt>
      <trkpt lat="45.06777" lon="6.04196">
        <ele>896</ele>
        <time>2018-11-25T17:05:30Z</time>
      </trkpt>
      <trkpt lat="45.06772" lon="6.04192">
        <ele>896</ele>
        <time>2018-11-25T17:05:32Z</time>
      </trkpt>
      <trkpt lat="45.06768" lon="6.04191">
        <ele>897</ele>
        <time>2018-11-25T17:05:34Z</time>
      </trkpt>
      <trkpt lat="45.06763" lon="6.04189">
        <ele>897</ele>
        <time>2018-11-25T17:05:36Z</time>
      </trkpt>
      <trkpt lat="45.06761" lon="6.04189">
        <ele>897</ele>
        <time>2018-11-25T17:05:38Z</time>
      </trkpt>
      <trkpt lat="45.06756" lon="6.0419">
        <ele>898</ele>
        <time>2018-11-25T17:05:40Z</time>
      </trkpt>
      <trkpt lat="45.0675" lon="6.04192">
        <ele>899</ele>
        <time>2018-11-25T17:05:42Z</time>
      </trkpt>
      <trkpt lat="45.06745" lon="6.04195">
        <ele>899</ele>
        <time>2018-11-25T17:05:44Z</time>
      </trkpt>
      <trkpt lat="45.06741" lon="6.04198">
        <ele>900</ele>
        <time>2018-11-25T17:05:46Z</time>
      </trkpt>
      <trkpt lat="45.06738" lon="6.042">
        <ele>900</ele>
        <time>2018-11-25T17:05:48Z</time>
      </trkpt>
      <trkpt lat="45.06733" lon="6.04204">
        <ele>901</ele>
        <time>2018-11-25T17:05:50Z</time>
      </trkpt>
      <trkpt lat="45.06729" lon="6.04208">
        <ele>902</ele>
        <time>2018-11-25T17:05:52Z</time>
      </trkpt>
      <trkpt lat="45.06725" lon="6.04213">
        <ele>902</ele>
        <time>2018-11-25T17:05:54Z</time>
      </trkpt>
      <trkpt lat="45.0672" lon="6.04218">
        <ele>903</ele>
        <time>2018-11-25T17:05:56Z</time>
      </trkpt>
      <trkpt lat="45.06718" lon="6.04221">
        <ele>903</ele>
        <time>2018-11-25T17:05:58Z</time>
      </trkpt>
      <trkpt lat="45.06714" lon="6.04226">
        <ele>904</ele>
        <time>2018-11-25T17:06:00Z</time>
      </trkpt>
      <trkpt lat="45.0671" lon="6.04231">
        <ele>905</ele>
        <time>2018-11-25T17:06:02Z</time>
      </trkpt>
      <trkpt lat="45.06705" lon="6.04236">
        <ele>905</ele>
        <time>2018-11-25T17:06:04Z</time>
      </trkpt>
      <trkpt lat="45.06701" lon="6.04241">
        <ele>906</ele>
        <time>2018-11-25T17:06:06Z</time>
      </trkpt>
      <trkpt lat="45.06697" lon="6.04246">
        <ele>907</ele>
        <time>2018-11-25T17:06:08Z</time>
      </trkpt>
      <trkpt lat="45.06694" lon="6.04249">
        <ele>907</ele>
        <time>2018-11-25T17:06:10Z</time>
      </trkpt>
      <trkpt lat="45.0669" lon="6.04253">
        <ele>908</ele>
        <time>2018-11-25T17:06:12Z</time>
      </trkpt>
      <trkpt lat="45.06685" lon="6.04257">
        <ele>908</ele>
        <time>2018-11-25T17:06:14Z</time>
      </trkpt>
      <trkpt lat="45.06681" lon="6.04261">
        <ele>909</ele>
        <time>2018-11-25T17:06:16Z</time>
      </trkpt>
      <trkpt lat="45.06676" lon="6.04265">
        <ele>909</ele>
        <time>2018-11-25T17:06:18Z</time>
      </trkpt>
      <trkpt lat="45.06671" lon="6.04268">
        <ele>910</ele>
        <time>2018-11-25T17:06:20Z</time>
      </trkpt>
      <trkpt lat="45.06666" lon="6.04271">
        <ele>911</ele>
        <time>2018-11-25T17:06:22Z</time>
      </trkpt>
      <trkpt lat="45.06662" lon="6.04273">
        <ele>911</ele>
        <time>2018-11-25T17:06:24Z</time>
      </trkpt>
      <trkpt lat="45.06657" lon="6.04275">
        <ele>912</ele>
        <time>2018-11-25T17:06:26Z</time>
      </trkpt>
      <trkpt lat="45.06652" lon="6.04278">
        <ele>912</ele>
        <time>2018-11-25T17:06:28Z</time>
      </trkpt>
      <trkpt lat="45.06646" lon="6.04281">
        <ele>913</ele>
        <time>2018-11-25T17:06:30Z</time>
      </trkpt>
      <trkpt lat="45.06641" lon="6.04283">
        <ele>914</ele>
        <time>2018-11-25T17:06:32Z</time>
      </trkpt>
      <trkpt lat="45.06637" lon="6.04286">
        <ele>914</ele>
        <time>2018-11-25T17:06:34Z</time>
      </trkpt>
      <trkpt lat="45.06632" lon="6.04289">
        <ele>915</ele>
        <time>2018-11-25T17:06:36Z</time>
      </trkpt>
      <trkpt lat="45.06627" lon="6.04291">
        <ele>916</ele>
        <time>2018-11-25T17:06:38Z</time>
      </trkpt>
      <trkpt lat="45.06622" lon="6.04293">
        <ele>916</ele>
        <time>2018-11-25T17:06:40Z</time>
      </trkpt>
      <trkpt lat="45.06617" lon="6.04295">
        <ele>917</ele>
        <time>2018-11-25T17:06:42Z</time>
      </trkpt>
      <trkpt lat="45.06612" lon="6.04297">
        <ele>917</ele>
        <time>2018-11-25T17:06:44Z</time>
      </trkpt>
      <trkpt lat="45.06607" lon="6.043">
        <ele>918</ele>
        <time>2018-11-25T17:06:46Z</time>
      </trkpt>
      <trkpt lat="45.06602" lon="6.04302">
        <ele>918</ele>
        <time>2018-11-25T17:06:48Z</time>
      </trkpt>
      <trkpt lat="45.06598" lon="6.04306">
        <ele>919</ele>
        <time>2018-11-25T17:06:50Z</time>
      </trkpt>
      <trkpt lat="45.06595" lon="6.04312">
        <ele>919</ele>
        <time>2018-11-25T17:06:52Z</time>
      </trkpt>
      <trkpt lat="45.06593" lon="6.04319">
        <ele>920</ele>
        <time>2018-11-25T17:06:54Z</time>
      </trkpt>
      <trkpt lat="45.06595" lon="6.04328">
        <ele>920</ele>
        <time>2018-11-25T17:06:56Z</time>
      </trkpt>
      <trkpt lat="45.06599" lon="6.04333">
        <ele>921</ele>
        <time>2018-11-25T17:06:58Z</time>
      </trkpt>
      <trkpt lat="45.06605" lon="6.04335">
        <ele>921</ele>
        <time>2018-11-25T17:07:00Z</time>
      </trkpt>
      <trkpt lat="45.06611" lon="6.04334">
        <ele>922</ele>
        <time>2018-11-25T17:07:02Z</time>
      </trkpt>
      <trkpt lat="45.06617" lon="6.04332">
        <ele>923</ele>
        <time>2018-11-25T17:07:04Z</time>
      </trkpt>
      <trkpt lat="45.06623" lon="6.04329">
        <ele>923</ele>
        <time>2018-11-25T17:07:06Z</time>
      </trkpt>
      <trkpt lat="45.0663" lon="6.04327">
        <ele>924</ele>
        <time>2018-11-25T17:07:08Z</time>
      </trkpt>
      <trkpt lat="45.06634" lon="6.04326">
        <ele>925</ele>
        <time>2018-11-25T17:07:10Z</time>
      </trkpt>
      <trkpt lat="45.0664" lon="6.04325">
        <ele>925</ele>
        <time>2018-11-25T17:07:12Z</time>
      </trkpt>
      <trkpt lat="45.06645" lon="6.04324">
        <ele>926</ele>
        <time>2018-11-25T17:07:14Z</time>
      </trkpt>
      <trkpt lat="45.06651" lon="6.04323">
        <ele>926</ele>
        <time>2018-11-25T17:07:16Z</time>
      </trkpt>
      <trkpt lat="45.06656" lon="6.04322">
        <ele>927</ele>
        <time>2018-11-25T17:07:18Z</time>
      </trkpt>
      <trkpt lat="45.06662" lon="6.0432">
        <ele>928</ele>
        <time>2018-11-25T17:07:20Z</time>
      </trkpt>
      <trkpt lat="45.06667" lon="6.04319">
        <ele>928</ele>
        <time>2018-11-25T17:07:22Z</time>
      </trkpt>
      <trkpt lat="45.06673" lon="6.04317">
        <ele>929</ele>
        <time>2018-11-25T17:07:24Z</time>
      </trkpt>
      <trkpt lat="45.06678" lon="6.04315">
        <ele>929</ele>
        <time>2018-11-25T17:07:26Z</time>
      </trkpt>
      <trkpt lat="45.06683" lon="6.04313">
        <ele>930</ele>
        <time>2018-11-25T17:07:28Z</time>
      </trkpt>
      <trkpt lat="45.06688" lon="6.0431">
        <ele>931</ele>
        <time>2018-11-25T17:07:30Z</time>
      </trkpt>
      <trkpt lat="45.06694" lon="6.04307">
        <ele>931</ele>
        <time>2018-11-25T17:07:32Z</time>
      </trkpt>
      <trkpt lat="45.06699" lon="6.04303">
        <ele>932</ele>
        <time>2018-11-25T17:07:34Z</time>
      </trkpt>
      <trkpt lat="45.06704" lon="6.043">
        <ele>932</ele>
        <time>2018-11-25T17:07:36Z</time>
      </trkpt>
      <trkpt lat="45.0671" lon="6.04297">
        <ele>933</ele>
        <time>2018-11-25T17:07:38Z</time>
      </trkpt>
      <trkpt lat="45.06713" lon="6.04295">
        <ele>934</ele>
        <time>2018-11-25T17:07:40Z</time>
      </trkpt>
      <trkpt lat="45.06718" lon="6.04292">
        <ele>934</ele>
        <time>2018-11-25T17:07:42Z</time>
      </trkpt>
      <trkpt lat="45.06724" lon="6.04291">
        <ele>935</ele>
        <time>2018-11-25T17:07:44Z</time>
      </trkpt>
      <trkpt lat="45.06729" lon="6.0429">
        <ele>935</ele>
        <time>2018-11-25T17:07:46Z</time>
      </trkpt>
      <trkpt lat="45.06734" lon="6.0429">
        <ele>936</ele>
        <time>2018-11-25T17:07:48Z</time>
      </trkpt>
      <trkpt lat="45.0674" lon="6.0429">
        <ele>936</ele>
        <time>2018-11-25T17:07:50Z</time>
      </trkpt>
      <trkpt lat="45.06745" lon="6.0429">
        <ele>937</ele>
        <time>2018-11-25T17:07:52Z</time>
      </trkpt>
      <trkpt lat="45.06751" lon="6.0429">
        <ele>938</ele>
        <time>2018-11-25T17:07:54Z</time>
      </trkpt>
      <trkpt lat="45.06756" lon="6.0429">
        <ele>938</ele>
        <time>2018-11-25T17:07:56Z</time>
      </trkpt>
      <trkpt lat="45.06761" lon="6.04289">
        <ele>939</ele>
        <time>2018-11-25T17:07:58Z</time>
      </trkpt>
      <trkpt lat="45.06766" lon="6.04288">
        <ele>939</ele>
        <time>2018-11-25T17:08:00Z</time>
      </trkpt>
      <trkpt lat="45.06772" lon="6.04286">
        <ele>940</ele>
        <time>2018-11-25T17:08:02Z</time>
      </trkpt>
      <trkpt lat="45.06777" lon="6.04284">
        <ele>940</ele>
        <time>2018-11-25T17:08:04Z</time>
      </trkpt>
      <trkpt lat="45.06782" lon="6.04281">
        <ele>941</ele>
        <time>2018-11-25T17:08:06Z</time>
      </trkpt>
      <trkpt lat="45.06787" lon="6.04279">
        <ele>942</ele>
        <time>2018-11-25T17:08:08Z</time>
      </trkpt>
      <trkpt lat="45.06792" lon="6.04277">
        <ele>942</ele>
        <time>2018-11-25T17:08:10Z</time>
      </trkpt>
      <trkpt lat="45.06797" lon="6.04274">
        <ele>943</ele>
        <time>2018-11-25T17:08:12Z</time>
      </trkpt>
      <trkpt lat="45.06802" lon="6.04273">
        <ele>943</ele>
        <time>2018-11-25T17:08:14Z</time>
      </trkpt>
      <trkpt lat="45.06807" lon="6.04271">
        <ele>944</ele>
        <time>2018-11-25T17:08:16Z</time>
      </trkpt>
      <trkpt lat="45.06812" lon="6.0427">
        <ele>945</ele>
        <time>2018-11-25T17:08:18Z</time>
      </trkpt>
      <trkpt lat="45.06817" lon="6.04269">
        <ele>945</ele>
        <time>2018-11-25T17:08:20Z</time>
      </trkpt>
      <trkpt lat="45.06822" lon="6.04269">
        <ele>946</ele>
        <time>2018-11-25T17:08:22Z</time>
      </trkpt>
      <trkpt lat="45.06828" lon="6.04269">
        <ele>947</ele>
        <time>2018-11-25T17:08:24Z</time>
      </trkpt>
      <trkpt lat="45.06833" lon="6.04269">
        <ele>947</ele>
        <time>2018-11-25T17:08:26Z</time>
      </trkpt>
      <trkpt lat="45.06838" lon="6.04269">
        <ele>948</ele>
        <time>2018-11-25T17:08:28Z</time>
      </trkpt>
      <trkpt lat="45.06844" lon="6.0427">
        <ele>948</ele>
        <time>2018-11-25T17:08:30Z</time>
      </trkpt>
      <trkpt lat="45.06849" lon="6.0427">
        <ele>949</ele>
        <time>2018-11-25T17:08:32Z</time>
      </trkpt>
      <trkpt lat="45.06854" lon="6.0427">
        <ele>950</ele>
        <time>2018-11-25T17:08:34Z</time>
      </trkpt>
      <trkpt lat="45.06859" lon="6.04271">
        <ele>950</ele>
        <time>2018-11-25T17:08:36Z</time>
      </trkpt>
      <trkpt lat="45.06864" lon="6.04271">
        <ele>951</ele>
        <time>2018-11-25T17:08:38Z</time>
      </trkpt>
      <trkpt lat="45.0687" lon="6.04271">
        <ele>952</ele>
        <time>2018-11-25T17:08:40Z</time>
      </trkpt>
      <trkpt lat="45.06875" lon="6.04271">
        <ele>952</ele>
        <time>2018-11-25T17:08:42Z</time>
      </trkpt>
      <trkpt lat="45.0688" lon="6.04272">
        <ele>953</ele>
        <time>2018-11-25T17:08:44Z</time>
      </trkpt>
      <trkpt lat="45.06885" lon="6.04273">
        <ele>954</ele>
        <time>2018-11-25T17:08:46Z</time>
      </trkpt>
      <trkpt lat="45.0689" lon="6.04275">
        <ele>954</ele>
        <time>2018-11-25T17:08:48Z</time>
      </trkpt>
      <trkpt lat="45.06892" lon="6.04279">
        <ele>954</ele>
        <time>2018-11-25T17:08:50Z</time>
      </trkpt>
      <trkpt lat="45.06888" lon="6.04287">
        <ele>955</ele>
        <time>2018-11-25T17:08:52Z</time>
      </trkpt>
      <trkpt lat="45.06884" lon="6.0429">
        <ele>955</ele>
        <time>2018-11-25T17:08:54Z</time>
      </trkpt>
      <trkpt lat="45.06876" lon="6.04293">
        <ele>956</ele>
        <time>2018-11-25T17:08:56Z</time>
      </trkpt>
      <trkpt lat="45.06869" lon="6.04292">
        <ele>957</ele>
        <time>2018-11-25T17:08:58Z</time>
      </trkpt>
      <trkpt lat="45.06863" lon="6.04291">
        <ele>957</ele>
        <time>2018-11-25T17:09:00Z</time>
      </trkpt>
      <trkpt lat="45.06856" lon="6.0429">
        <ele>958</ele>
        <time>2018-11-25T17:09:02Z</time>
      </trkpt>
      <trkpt lat="45.06848" lon="6.04288">
        <ele>959</ele>
        <time>2018-11-25T17:09:04Z</time>
      </trkpt>
      <trkpt lat="45.06842" lon="6.04287">
        <ele>959</ele>
        <time>2018-11-25T17:09:06Z</time>
      </trkpt>
      <trkpt lat="45.06836" lon="6.04287">
        <ele>960</ele>
        <time>2018-11-25T17:09:08Z</time>
      </trkpt>
      <trkpt lat="45.0683" lon="6.04288">
        <ele>961</ele>
        <time>2018-11-25T17:09:10Z</time>
      </trkpt>
      <trkpt lat="45.06823" lon="6.04292">
        <ele>961</ele>
        <time>2018-11-25T17:09:12Z</time>
      </trkpt>
      <trkpt lat="45.06817" lon="6.04295">
        <ele>962</ele>
        <time>2018-11-25T17:09:14Z</time>
      </trkpt>
      <trkpt lat="45.06811" lon="6.04299">
        <ele>963</ele>
        <time>2018-11-25T17:09:16Z</time>
      </trkpt>
      <trkpt lat="45.06805" lon="6.04304">
        <ele>964</ele>
        <time>2018-11-25T17:09:18Z</time>
      </trkpt>
      <trkpt lat="45.06799" lon="6.04308">
        <ele>964</ele>
        <time>2018-11-25T17:09:20Z</time>
      </trkpt>
      <trkpt lat="45.06795" lon="6.04312">
        <ele>965</ele>
        <time>2018-11-25T17:09:22Z</time>
      </trkpt>
      <trkpt lat="45.06789" lon="6.04317">
        <ele>966</ele>
        <time>2018-11-25T17:09:24Z</time>
      </trkpt>
      <trkpt lat="45.06784" lon="6.0432">
        <ele>966</ele>
        <time>2018-11-25T17:09:26Z</time>
      </trkpt>
      <trkpt lat="45.06779" lon="6.04324">
        <ele>967</ele>
        <time>2018-11-25T17:09:28Z</time>
      </trkpt>
      <trkpt lat="45.06775" lon="6.04328">
        <ele>968</ele>
        <time>2018-11-25T17:09:30Z</time>
      </trkpt>
      <trkpt lat="45.0677" lon="6.04331">
        <ele>968</ele>
        <time>2018-11-25T17:09:32Z</time>
      </trkpt>
      <trkpt lat="45.06766" lon="6.04335">
        <ele>969</ele>
        <time>2018-11-25T17:09:34Z</time>
      </trkpt>
      <trkpt lat="45.06762" lon="6.04338">
        <ele>969</ele>
        <time>2018-11-25T17:09:36Z</time>
      </trkpt>
      <trkpt lat="45.06756" lon="6.04343">
        <ele>970</ele>
        <time>2018-11-25T17:09:38Z</time>
      </trkpt>
      <trkpt lat="45.06752" lon="6.04346">
        <ele>971</ele>
        <time>2018-11-25T17:09:40Z</time>
      </trkpt>
      <trkpt lat="45.06747" lon="6.04349">
        <ele>971</ele>
        <time>2018-11-25T17:09:42Z</time>
      </trkpt>
      <trkpt lat="45.06743" lon="6.04352">
        <ele>972</ele>
        <time>2018-11-25T17:09:44Z</time>
      </trkpt>
      <trkpt lat="45.06738" lon="6.04355">
        <ele>973</ele>
        <time>2018-11-25T17:09:46Z</time>
      </trkpt>
      <trkpt lat="45.06734" lon="6.04358">
        <ele>973</ele>
        <time>2018-11-25T17:09:48Z</time>
      </trkpt>
      <trkpt lat="45.06729" lon="6.04362">
        <ele>974</ele>
        <time>2018-11-25T17:09:50Z</time>
      </trkpt>
      <trkpt lat="45.06725" lon="6.04366">
        <ele>974</ele>
        <time>2018-11-25T17:09:52Z</time>
      </trkpt>
      <trkpt lat="45.06721" lon="6.04371">
        <ele>975</ele>
        <time>2018-11-25T17:09:54Z</time>
      </trkpt>
      <trkpt lat="45.06718" lon="6.04377">
        <ele>975</ele>
        <time>2018-11-25T17:09:56Z</time>
      </trkpt>
      <trkpt lat="45.06716" lon="6.04384">
        <ele>976</ele>
        <time>2018-11-25T17:09:58Z</time>
      </trkpt>
      <trkpt lat="45.06716" lon="6.04392">
        <ele>976</ele>
        <time>2018-11-25T17:10:00Z</time>
      </trkpt>
      <trkpt lat="45.06717" lon="6.04399">
        <ele>977</ele>
        <time>2018-11-25T17:10:02Z</time>
      </trkpt>
      <trkpt lat="45.0672" lon="6.04406">
        <ele>978</ele>
        <time>2018-11-25T17:10:04Z</time>
      </trkpt>
      <trkpt lat="45.06723" lon="6.04412">
        <ele>978</ele>
        <time>2018-11-25T17:10:06Z</time>
      </trkpt>
      <trkpt lat="45.06727" lon="6.04417">
        <ele>979</ele>
        <time>2018-11-25T17:10:08Z</time>
      </trkpt>
      <trkpt lat="45.06731" lon="6.04422">
        <ele>979</ele>
        <time>2018-11-25T17:10:10Z</time>
      </trkpt>
      <trkpt lat="45.06735" lon="6.04427">
        <ele>980</ele>
        <time>2018-11-25T17:10:12Z</time>
      </trkpt>
      <trkpt lat="45.0674" lon="6.04431">
        <ele>980</ele>
        <time>2018-11-25T17:10:14Z</time>
      </trkpt>
      <trkpt lat="45.06745" lon="6.04434">
        <ele>981</ele>
        <time>2018-11-25T17:10:16Z</time>
      </trkpt>
      <trkpt lat="45.06749" lon="6.04438">
        <ele>981</ele>
        <time>2018-11-25T17:10:18Z</time>
      </trkpt>
      <trkpt lat="45.06755" lon="6.04443">
        <ele>982</ele>
        <time>2018-11-25T17:10:20Z</time>
      </trkpt>
      <trkpt lat="45.06759" lon="6.04447">
        <ele>983</ele>
        <time>2018-11-25T17:10:22Z</time>
      </trkpt>
      <trkpt lat="45.06763" lon="6.04451">
        <ele>983</ele>
        <time>2018-11-25T17:10:24Z</time>
      </trkpt>
      <trkpt lat="45.06768" lon="6.04456">
        <ele>983</ele>
        <time>2018-11-25T17:10:26Z</time>
      </trkpt>
      <trkpt lat="45.06773" lon="6.04459">
        <ele>984</ele>
        <time>2018-11-25T17:10:28Z</time>
      </trkpt>
      <trkpt lat="45.06779" lon="6.04464">
        <ele>984</ele>
        <time>2018-11-25T17:10:30Z</time>
      </trkpt>
      <trkpt lat="45.06785" lon="6.04467">
        <ele>985</ele>
        <time>2018-11-25T17:10:32Z</time>
      </trkpt>
      <trkpt lat="45.06793" lon="6.0447">
        <ele>986</ele>
        <time>2018-11-25T17:10:34Z</time>
      </trkpt>
      <trkpt lat="45.06799" lon="6.04472">
        <ele>986</ele>
        <time>2018-11-25T17:10:36Z</time>
      </trkpt>
      <trkpt lat="45.06806" lon="6.04474">
        <ele>987</ele>
        <time>2018-11-25T17:10:38Z</time>
      </trkpt>
      <trkpt lat="45.06812" lon="6.04476">
        <ele>987</ele>
        <time>2018-11-25T17:10:40Z</time>
      </trkpt>
      <trkpt lat="45.06818" lon="6.04479">
        <ele>988</ele>
        <time>2018-11-25T17:10:42Z</time>
      </trkpt>
      <trkpt lat="45.06826" lon="6.04481">
        <ele>988</ele>
        <time>2018-11-25T17:10:44Z</time>
      </trkpt>
      <trkpt lat="45.06832" lon="6.04483">
        <ele>989</ele>
        <time>2018-11-25T17:10:46Z</time>
      </trkpt>
      <trkpt lat="45.06843" lon="6.04485">
        <ele>990</ele>
        <time>2018-11-25T17:10:49Z</time>
      </trkpt>
      <trkpt lat="45.06853" lon="6.04487">
        <ele>990</ele>
        <time>2018-11-25T17:10:52Z</time>
      </trkpt>
      <trkpt lat="45.06858" lon="6.04488">
        <ele>991</ele>
        <time>2018-11-25T17:10:54Z</time>
      </trkpt>
      <trkpt lat="45.06866" lon="6.04489">
        <ele>991</ele>
        <time>2018-11-25T17:10:56Z</time>
      </trkpt>
      <trkpt lat="45.06872" lon="6.04491">
        <ele>992</ele>
        <time>2018-11-25T17:10:58Z</time>
      </trkpt>
      <trkpt lat="45.0688" lon="6.04495">
        <ele>992</ele>
        <time>2018-11-25T17:11:00Z</time>
      </trkpt>
      <trkpt lat="45.06886" lon="6.045">
        <ele>993</ele>
        <time>2018-11-25T17:11:02Z</time>
      </trkpt>
      <trkpt lat="45.06891" lon="6.04505">
        <ele>993</ele>
        <time>2018-11-25T17:11:04Z</time>
      </trkpt>
      <trkpt lat="45.06897" lon="6.04513">
        <ele>994</ele>
        <time>2018-11-25T17:11:06Z</time>
      </trkpt>
      <trkpt lat="45.06902" lon="6.04521">
        <ele>994</ele>
        <time>2018-11-25T17:11:08Z</time>
      </trkpt>
      <trkpt lat="45.06907" lon="6.04529">
        <ele>995</ele>
        <time>2018-11-25T17:11:10Z</time>
      </trkpt>
      <trkpt lat="45.06913" lon="6.04537">
        <ele>995</ele>
        <time>2018-11-25T17:11:12Z</time>
      </trkpt>
      <trkpt lat="45.06919" lon="6.04543">
        <ele>996</ele>
        <time>2018-11-25T17:11:14Z</time>
      </trkpt>
      <trkpt lat="45.06926" lon="6.0455">
        <ele>996</ele>
        <time>2018-11-25T17:11:16Z</time>
      </trkpt>
      <trkpt lat="45.06932" lon="6.04555">
        <ele>997</ele>
        <time>2018-11-25T17:11:18Z</time>
      </trkpt>
      <trkpt lat="45.06941" lon="6.0456">
        <ele>998</ele>
        <time>2018-11-25T17:11:20Z</time>
      </trkpt>
      <trkpt lat="45.06947" lon="6.04565">
        <ele>998</ele>
        <time>2018-11-25T17:11:22Z</time>
      </trkpt>
      <trkpt lat="45.06955" lon="6.0457">
        <ele>999</ele>
        <time>2018-11-25T17:11:24Z</time>
      </trkpt>
      <trkpt lat="45.06962" lon="6.04574">
        <ele>1000</ele>
        <time>2018-11-25T17:11:26Z</time>
      </trkpt>
      <trkpt lat="45.06969" lon="6.04577">
        <ele>1000</ele>
        <time>2018-11-25T17:11:28Z</time>
      </trkpt>
      <trkpt lat="45.06977" lon="6.0458">
        <ele>1001</ele>
        <time>2018-11-25T17:11:30Z</time>
      </trkpt>
      <trkpt lat="45.06983" lon="6.04583">
        <ele>1001</ele>
        <time>2018-11-25T17:11:32Z</time>
      </trkpt>
      <trkpt lat="45.06989" lon="6.04586">
        <ele>1002</ele>
        <time>2018-11-25T17:11:34Z</time>
      </trkpt>
      <trkpt lat="45.06997" lon="6.04589">
        <ele>1002</ele>
        <time>2018-11-25T17:11:36Z</time>
      </trkpt>
      <trkpt lat="45.07002" lon="6.04593">
        <ele>1003</ele>
        <time>2018-11-25T17:11:38Z</time>
      </trkpt>
      <trkpt lat="45.07009" lon="6.046">
        <ele>1003</ele>
        <time>2018-11-25T17:11:40Z</time>
      </trkpt>
      <trkpt lat="45.07014" lon="6.04606">
        <ele>1004</ele>
        <time>2018-11-25T17:11:42Z</time>
      </trkpt>
      <trkpt lat="45.07018" lon="6.04613">
        <ele>1005</ele>
        <time>2018-11-25T17:11:44Z</time>
      </trkpt>
      <trkpt lat="45.07022" lon="6.04619">
        <ele>1005</ele>
        <time>2018-11-25T17:11:46Z</time>
      </trkpt>
      <trkpt lat="45.07026" lon="6.04627">
        <ele>1006</ele>
        <time>2018-11-25T17:11:48Z</time>
      </trkpt>
      <trkpt lat="45.07029" lon="6.04634">
        <ele>1007</ele>
        <time>2018-11-25T17:11:50Z</time>
      </trkpt>
      <trkpt lat="45.07033" lon="6.0464">
        <ele>1008</ele>
        <time>2018-11-25T17:11:52Z</time>
      </trkpt>
      <trkpt lat="45.07036" lon="6.04646">
        <ele>1008</ele>
        <time>2018-11-25T17:11:54Z</time>
      </trkpt>
      <trkpt lat="45.0704" lon="6.04652">
        <ele>1009</ele>
        <time>2018-11-25T17:11:56Z</time>
      </trkpt>
      <trkpt lat="45.07043" lon="6.04658">
        <ele>1009</ele>
        <time>2018-11-25T17:11:58Z</time>
      </trkpt>
      <trkpt lat="45.07046" lon="6.04664">
        <ele>1010</ele>
        <time>2018-11-25T17:12:00Z</time>
      </trkpt>
      <trkpt lat="45.07049" lon="6.04671">
        <ele>1011</ele>
        <time>2018-11-25T17:12:02Z</time>
      </trkpt>
      <trkpt lat="45.07053" lon="6.04677">
        <ele>1011</ele>
        <time>2018-11-25T17:12:04Z</time>
      </trkpt>
      <trkpt lat="45.07056" lon="6.04683">
        <ele>1012</ele>
        <time>2018-11-25T17:12:06Z</time>
      </trkpt>
      <trkpt lat="45.0706" lon="6.04688">
        <ele>1012</ele>
        <time>2018-11-25T17:12:08Z</time>
      </trkpt>
      <trkpt lat="45.07064" lon="6.04694">
        <ele>1013</ele>
        <time>2018-11-25T17:12:10Z</time>
      </trkpt>
      <trkpt lat="45.07068" lon="6.04699">
        <ele>1014</ele>
        <time>2018-11-25T17:12:12Z</time>
      </trkpt>
      <trkpt lat="45.07072" lon="6.04703">
        <ele>1014</ele>
        <time>2018-11-25T17:12:14Z</time>
      </trkpt>
      <trkpt lat="45.07081" lon="6.04712">
        <ele>1015</ele>
        <time>2018-11-25T17:12:17Z</time>
      </trkpt>
      <trkpt lat="45.07083" lon="6.04714">
        <ele>1016</ele>
        <time>2018-11-25T17:12:18Z</time>
      </trkpt>
      <trkpt lat="45.07088" lon="6.04719">
        <ele>1016</ele>
        <time>2018-11-25T17:12:20Z</time>
      </trkpt>
      <trkpt lat="45.07091" lon="6.04722">
        <ele>1016</ele>
        <time>2018-11-25T17:12:22Z</time>
      </trkpt>
      <trkpt lat="45.07095" lon="6.04725">
        <ele>1017</ele>
        <time>2018-11-25T17:12:24Z</time>
      </trkpt>
      <trkpt lat="45.07099" lon="6.04729">
        <ele>1018</ele>
        <time>2018-11-25T17:12:26Z</time>
      </trkpt>
      <trkpt lat="45.07104" lon="6.04733">
        <ele>1018</ele>
        <time>2018-11-25T17:12:28Z</time>
      </trkpt>
      <trkpt lat="45.07109" lon="6.04738">
        <ele>1019</ele>
        <time>2018-11-25T17:12:30Z</time>
      </trkpt>
      <trkpt lat="45.07113" lon="6.04742">
        <ele>1019</ele>
        <time>2018-11-25T17:12:32Z</time>
      </trkpt>
      <trkpt lat="45.07118" lon="6.04746">
        <ele>1020</ele>
        <time>2018-11-25T17:12:34Z</time>
      </trkpt>
      <trkpt lat="45.07123" lon="6.0475">
        <ele>1020</ele>
        <time>2018-11-25T17:12:36Z</time>
      </trkpt>
      <trkpt lat="45.07127" lon="6.04754">
        <ele>1021</ele>
        <time>2018-11-25T17:12:38Z</time>
      </trkpt>
      <trkpt lat="45.07132" lon="6.04758">
        <ele>1021</ele>
        <time>2018-11-25T17:12:40Z</time>
      </trkpt>
      <trkpt lat="45.07137" lon="6.04762">
        <ele>1022</ele>
        <time>2018-11-25T17:12:42Z</time>
      </trkpt>
      <trkpt lat="45.07142" lon="6.04767">
        <ele>1022</ele>
        <time>2018-11-25T17:12:44Z</time>
      </trkpt>
      <trkpt lat="45.07147" lon="6.04772">
        <ele>1023</ele>
        <time>2018-11-25T17:12:46Z</time>
      </trkpt>
      <trkpt lat="45.07153" lon="6.04778">
        <ele>1024</ele>
        <time>2018-11-25T17:12:48Z</time>
      </trkpt>
      <trkpt lat="45.07158" lon="6.04783">
        <ele>1024</ele>
        <time>2018-11-25T17:12:50Z</time>
      </trkpt>
      <trkpt lat="45.0717" lon="6.04798">
        <ele>1025</ele>
        <time>2018-11-25T17:12:54Z</time>
      </trkpt>
      <trkpt lat="45.07172" lon="6.04801">
        <ele>1025</ele>
        <time>2018-11-25T17:12:56Z</time>
      </trkpt>
      <trkpt lat="45.07179" lon="6.0481">
        <ele>1026</ele>
        <time>2018-11-25T17:12:58Z</time>
      </trkpt>
      <trkpt lat="45.07184" lon="6.04816">
        <ele>1026</ele>
        <time>2018-11-25T17:13:00Z</time>
      </trkpt>
      <trkpt lat="45.0719" lon="6.04819">
        <ele>1027</ele>
        <time>2018-11-25T17:13:02Z</time>
      </trkpt>
      <trkpt lat="45.07197" lon="6.04817">
        <ele>1027</ele>
        <time>2018-11-25T17:13:04Z</time>
      </trkpt>
      <trkpt lat="45.07201" lon="6.0481">
        <ele>1028</ele>
        <time>2018-11-25T17:13:06Z</time>
      </trkpt>
      <trkpt lat="45.07202" lon="6.048">
        <ele>1028</ele>
        <time>2018-11-25T17:13:08Z</time>
      </trkpt>
      <trkpt lat="45.07198" lon="6.04792">
        <ele>1028</ele>
        <time>2018-11-25T17:13:10Z</time>
      </trkpt>
      <trkpt lat="45.07191" lon="6.04784">
        <ele>1029</ele>
        <time>2018-11-25T17:13:12Z</time>
      </trkpt>
      <trkpt lat="45.07184" lon="6.04777">
        <ele>1029</ele>
        <time>2018-11-25T17:13:14Z</time>
      </trkpt>
      <trkpt lat="45.07178" lon="6.0477">
        <ele>1030</ele>
        <time>2018-11-25T17:13:16Z</time>
      </trkpt>
      <trkpt lat="45.0717" lon="6.04762">
        <ele>1031</ele>
        <time>2018-11-25T17:13:18Z</time>
      </trkpt>
      <trkpt lat="45.07164" lon="6.04756">
        <ele>1031</ele>
        <time>2018-11-25T17:13:20Z</time>
      </trkpt>
      <trkpt lat="45.07158" lon="6.04749">
        <ele>1032</ele>
        <time>2018-11-25T17:13:22Z</time>
      </trkpt>
      <trkpt lat="45.07153" lon="6.04742">
        <ele>1033</ele>
        <time>2018-11-25T17:13:24Z</time>
      </trkpt>
      <trkpt lat="45.07147" lon="6.04734">
        <ele>1033</ele>
        <time>2018-11-25T17:13:26Z</time>
      </trkpt>
      <trkpt lat="45.07142" lon="6.04726">
        <ele>1034</ele>
        <time>2018-11-25T17:13:28Z</time>
      </trkpt>
      <trkpt lat="45.07138" lon="6.04719">
        <ele>1034</ele>
        <time>2018-11-25T17:13:30Z</time>
      </trkpt>
      <trkpt lat="45.07133" lon="6.04712">
        <ele>1035</ele>
        <time>2018-11-25T17:13:32Z</time>
      </trkpt>
      <trkpt lat="45.07129" lon="6.04705">
        <ele>1035</ele>
        <time>2018-11-25T17:13:34Z</time>
      </trkpt>
      <trkpt lat="45.07124" lon="6.04696">
        <ele>1036</ele>
        <time>2018-11-25T17:13:36Z</time>
      </trkpt>
      <trkpt lat="45.0712" lon="6.04689">
        <ele>1036</ele>
        <time>2018-11-25T17:13:38Z</time>
      </trkpt>
      <trkpt lat="45.07117" lon="6.04681">
        <ele>1037</ele>
        <time>2018-11-25T17:13:40Z</time>
      </trkpt>
      <trkpt lat="45.07113" lon="6.04673">
        <ele>1038</ele>
        <time>2018-11-25T17:13:42Z</time>
      </trkpt>
      <trkpt lat="45.07111" lon="6.04664">
        <ele>1038</ele>
        <time>2018-11-25T17:13:44Z</time>
      </trkpt>
      <trkpt lat="45.07109" lon="6.04656">
        <ele>1039</ele>
        <time>2018-11-25T17:13:46Z</time>
      </trkpt>
      <trkpt lat="45.07108" lon="6.04644">
        <ele>1039</ele>
        <time>2018-11-25T17:13:48Z</time>
      </trkpt>
      <trkpt lat="45.07108" lon="6.04635">
        <ele>1040</ele>
        <time>2018-11-25T17:13:50Z</time>
      </trkpt>
      <trkpt lat="45.07107" lon="6.04626">
        <ele>1040</ele>
        <time>2018-11-25T17:13:52Z</time>
      </trkpt>
      <trkpt lat="45.07107" lon="6.04617">
        <ele>1041</ele>
        <time>2018-11-25T17:13:54Z</time>
      </trkpt>
      <trkpt lat="45.07108" lon="6.04608">
        <ele>1041</ele>
        <time>2018-11-25T17:13:56Z</time>
      </trkpt>
      <trkpt lat="45.07108" lon="6.04597">
        <ele>1042</ele>
        <time>2018-11-25T17:13:58Z</time>
      </trkpt>
      <trkpt lat="45.07109" lon="6.04588">
        <ele>1043</ele>
        <time>2018-11-25T17:14:00Z</time>
      </trkpt>
      <trkpt lat="45.07109" lon="6.04579">
        <ele>1043</ele>
        <time>2018-11-25T17:14:02Z</time>
      </trkpt>
      <trkpt lat="45.0711" lon="6.0457">
        <ele>1044</ele>
        <time>2018-11-25T17:14:04Z</time>
      </trkpt>
      <trkpt lat="45.0711" lon="6.04562">
        <ele>1044</ele>
        <time>2018-11-25T17:14:06Z</time>
      </trkpt>
      <trkpt lat="45.07111" lon="6.04551">
        <ele>1045</ele>
        <time>2018-11-25T17:14:08Z</time>
      </trkpt>
      <trkpt lat="45.07111" lon="6.04541">
        <ele>1045</ele>
        <time>2018-11-25T17:14:10Z</time>
      </trkpt>
      <trkpt lat="45.07111" lon="6.04532">
        <ele>1046</ele>
        <time>2018-11-25T17:14:12Z</time>
      </trkpt>
      <trkpt lat="45.07112" lon="6.04523">
        <ele>1046</ele>
        <time>2018-11-25T17:14:14Z</time>
      </trkpt>
      <trkpt lat="45.07112" lon="6.04512">
        <ele>1047</ele>
        <time>2018-11-25T17:14:16Z</time>
      </trkpt>
      <trkpt lat="45.07111" lon="6.04503">
        <ele>1047</ele>
        <time>2018-11-25T17:14:18Z</time>
      </trkpt>
      <trkpt lat="45.0711" lon="6.04494">
        <ele>1048</ele>
        <time>2018-11-25T17:14:20Z</time>
      </trkpt>
      <trkpt lat="45.07109" lon="6.04484">
        <ele>1048</ele>
        <time>2018-11-25T17:14:22Z</time>
      </trkpt>
      <trkpt lat="45.07106" lon="6.04475">
        <ele>1049</ele>
        <time>2018-11-25T17:14:24Z</time>
      </trkpt>
      <trkpt lat="45.07103" lon="6.04465">
        <ele>1049</ele>
        <time>2018-11-25T17:14:26Z</time>
      </trkpt>
      <trkpt lat="45.07099" lon="6.04458">
        <ele>1050</ele>
        <time>2018-11-25T17:14:28Z</time>
      </trkpt>
      <trkpt lat="45.07095" lon="6.0445">
        <ele>1050</ele>
        <time>2018-11-25T17:14:30Z</time>
      </trkpt>
      <trkpt lat="45.07092" lon="6.04441">
        <ele>1051</ele>
        <time>2018-11-25T17:14:32Z</time>
      </trkpt>
      <trkpt lat="45.07093" lon="6.04431">
        <ele>1051</ele>
        <time>2018-11-25T17:14:34Z</time>
      </trkpt>
      <trkpt lat="45.071" lon="6.04428">
        <ele>1052</ele>
        <time>2018-11-25T17:14:36Z</time>
      </trkpt>
      <trkpt lat="45.07105" lon="6.04432">
        <ele>1052</ele>
        <time>2018-11-25T17:14:38Z</time>
      </trkpt>
      <trkpt lat="45.07109" lon="6.04439">
        <ele>1053</ele>
        <time>2018-11-25T17:14:40Z</time>
      </trkpt>
      <trkpt lat="45.07112" lon="6.04447">
        <ele>1054</ele>
        <time>2018-11-25T17:14:42Z</time>
      </trkpt>
      <trkpt lat="45.07116" lon="6.04457">
        <ele>1054</ele>
        <time>2018-11-25T17:14:44Z</time>
      </trkpt>
      <trkpt lat="45.0712" lon="6.04465">
        <ele>1055</ele>
        <time>2018-11-25T17:14:46Z</time>
      </trkpt>
      <trkpt lat="45.07122" lon="6.04474">
        <ele>1055</ele>
        <time>2018-11-25T17:14:48Z</time>
      </trkpt>
      <trkpt lat="45.07125" lon="6.04481">
        <ele>1056</ele>
        <time>2018-11-25T17:14:50Z</time>
      </trkpt>
      <trkpt lat="45.07128" lon="6.0449">
        <ele>1057</ele>
        <time>2018-11-25T17:14:52Z</time>
      </trkpt>
      <trkpt lat="45.0713" lon="6.04498">
        <ele>1057</ele>
        <time>2018-11-25T17:14:54Z</time>
      </trkpt>
      <trkpt lat="45.07132" lon="6.04506">
        <ele>1058</ele>
        <time>2018-11-25T17:14:56Z</time>
      </trkpt>
      <trkpt lat="45.07133" lon="6.04514">
        <ele>1058</ele>
        <time>2018-11-25T17:14:58Z</time>
      </trkpt>
      <trkpt lat="45.07135" lon="6.04523">
        <ele>1059</ele>
        <time>2018-11-25T17:15:00Z</time>
      </trkpt>
      <trkpt lat="45.07137" lon="6.04531">
        <ele>1059</ele>
        <time>2018-11-25T17:15:02Z</time>
      </trkpt>
      <trkpt lat="45.07138" lon="6.04539">
        <ele>1060</ele>
        <time>2018-11-25T17:15:04Z</time>
      </trkpt>
      <trkpt lat="45.0714" lon="6.04547">
        <ele>1061</ele>
        <time>2018-11-25T17:15:06Z</time>
      </trkpt>
      <trkpt lat="45.07141" lon="6.04555">
        <ele>1061</ele>
        <time>2018-11-25T17:15:08Z</time>
      </trkpt>
      <trkpt lat="45.07143" lon="6.04566">
        <ele>1062</ele>
        <time>2018-11-25T17:15:10Z</time>
      </trkpt>
      <trkpt lat="45.07144" lon="6.04574">
        <ele>1063</ele>
        <time>2018-11-25T17:15:12Z</time>
      </trkpt>
      <trkpt lat="45.07146" lon="6.04582">
        <ele>1063</ele>
        <time>2018-11-25T17:15:14Z</time>
      </trkpt>
      <trkpt lat="45.07147" lon="6.04589">
        <ele>1064</ele>
        <time>2018-11-25T17:15:16Z</time>
      </trkpt>
      <trkpt lat="45.07148" lon="6.04597">
        <ele>1065</ele>
        <time>2018-11-25T17:15:18Z</time>
      </trkpt>
      <trkpt lat="45.07149" lon="6.04604">
        <ele>1065</ele>
        <time>2018-11-25T17:15:20Z</time>
      </trkpt>
      <trkpt lat="45.07151" lon="6.04612">
        <ele>1066</ele>
        <time>2018-11-25T17:15:22Z</time>
      </trkpt>
      <trkpt lat="45.07153" lon="6.04619">
        <ele>1067</ele>
        <time>2018-11-25T17:15:24Z</time>
      </trkpt>
      <trkpt lat="45.07155" lon="6.04626">
        <ele>1067</ele>
        <time>2018-11-25T17:15:26Z</time>
      </trkpt>
      <trkpt lat="45.07158" lon="6.04633">
        <ele>1068</ele>
        <time>2018-11-25T17:15:28Z</time>
      </trkpt>
      <trkpt lat="45.07161" lon="6.0464">
        <ele>1069</ele>
        <time>2018-11-25T17:15:30Z</time>
      </trkpt>
      <trkpt lat="45.07164" lon="6.04646">
        <ele>1069</ele>
        <time>2018-11-25T17:15:32Z</time>
      </trkpt>
      <trkpt lat="45.07168" lon="6.04652">
        <ele>1070</ele>
        <time>2018-11-25T17:15:34Z</time>
      </trkpt>
      <trkpt lat="45.07171" lon="6.04658">
        <ele>1071</ele>
        <time>2018-11-25T17:15:36Z</time>
      </trkpt>
      <trkpt lat="45.07175" lon="6.04664">
        <ele>1071</ele>
        <time>2018-11-25T17:15:38Z</time>
      </trkpt>
      <trkpt lat="45.07179" lon="6.0467">
        <ele>1072</ele>
        <time>2018-11-25T17:15:40Z</time>
      </trkpt>
      <trkpt lat="45.07183" lon="6.04675">
        <ele>1072</ele>
        <time>2018-11-25T17:15:42Z</time>
      </trkpt>
      <trkpt lat="45.07187" lon="6.0468">
        <ele>1073</ele>
        <time>2018-11-25T17:15:44Z</time>
      </trkpt>
      <trkpt lat="45.07191" lon="6.04685">
        <ele>1074</ele>
        <time>2018-11-25T17:15:46Z</time>
      </trkpt>
      <trkpt lat="45.07196" lon="6.0469">
        <ele>1074</ele>
        <time>2018-11-25T17:15:48Z</time>
      </trkpt>
      <trkpt lat="45.072" lon="6.04695">
        <ele>1075</ele>
        <time>2018-11-25T17:15:50Z</time>
      </trkpt>
      <trkpt lat="45.07205" lon="6.04699">
        <ele>1075</ele>
        <time>2018-11-25T17:15:52Z</time>
      </trkpt>
      <trkpt lat="45.0721" lon="6.04704">
        <ele>1076</ele>
        <time>2018-11-25T17:15:54Z</time>
      </trkpt>
      <trkpt lat="45.07215" lon="6.04708">
        <ele>1077</ele>
        <time>2018-11-25T17:15:56Z</time>
      </trkpt>
      <trkpt lat="45.0722" lon="6.04712">
        <ele>1077</ele>
        <time>2018-11-25T17:15:58Z</time>
      </trkpt>
      <trkpt lat="45.07225" lon="6.04716">
        <ele>1078</ele>
        <time>2018-11-25T17:16:00Z</time>
      </trkpt>
      <trkpt lat="45.0723" lon="6.0472">
        <ele>1078</ele>
        <time>2018-11-25T17:16:02Z</time>
      </trkpt>
      <trkpt lat="45.07235" lon="6.04724">
        <ele>1079</ele>
        <time>2018-11-25T17:16:04Z</time>
      </trkpt>
      <trkpt lat="45.0724" lon="6.04728">
        <ele>1080</ele>
        <time>2018-11-25T17:16:06Z</time>
      </trkpt>
      <trkpt lat="45.07245" lon="6.04732">
        <ele>1080</ele>
        <time>2018-11-25T17:16:08Z</time>
      </trkpt>
      <trkpt lat="45.0725" lon="6.04736">
        <ele>1081</ele>
        <time>2018-11-25T17:16:10Z</time>
      </trkpt>
      <trkpt lat="45.07255" lon="6.04739">
        <ele>1081</ele>
        <time>2018-11-25T17:16:12Z</time>
      </trkpt>
      <trkpt lat="45.0726" lon="6.04743">
        <ele>1082</ele>
        <time>2018-11-25T17:16:14Z</time>
      </trkpt>
      <trkpt lat="45.07265" lon="6.04747">
        <ele>1082</ele>
        <time>2018-11-25T17:16:16Z</time>
      </trkpt>
      <trkpt lat="45.0727" lon="6.04751">
        <ele>1083</ele>
        <time>2018-11-25T17:16:18Z</time>
      </trkpt>
      <trkpt lat="45.07277" lon="6.04756">
        <ele>1084</ele>
        <time>2018-11-25T17:16:20Z</time>
      </trkpt>
      <trkpt lat="45.07282" lon="6.0476">
        <ele>1084</ele>
        <time>2018-11-25T17:16:22Z</time>
      </trkpt>
      <trkpt lat="45.07287" lon="6.04764">
        <ele>1085</ele>
        <time>2018-11-25T17:16:24Z</time>
      </trkpt>
      <trkpt lat="45.07292" lon="6.04767">
        <ele>1085</ele>
        <time>2018-11-25T17:16:26Z</time>
      </trkpt>
      <trkpt lat="45.07298" lon="6.04769">
        <ele>1086</ele>
        <time>2018-11-25T17:16:28Z</time>
      </trkpt>
      <trkpt lat="45.07303" lon="6.04771">
        <ele>1087</ele>
        <time>2018-11-25T17:16:30Z</time>
      </trkpt>
      <trkpt lat="45.07309" lon="6.04773">
        <ele>1087</ele>
        <time>2018-11-25T17:16:32Z</time>
      </trkpt>
      <trkpt lat="45.07314" lon="6.04773">
        <ele>1088</ele>
        <time>2018-11-25T17:16:34Z</time>
      </trkpt>
      <trkpt lat="45.0732" lon="6.04774">
        <ele>1088</ele>
        <time>2018-11-25T17:16:36Z</time>
      </trkpt>
      <trkpt lat="45.07328" lon="6.04774">
        <ele>1089</ele>
        <time>2018-11-25T17:16:38Z</time>
      </trkpt>
      <trkpt lat="45.07333" lon="6.04776">
        <ele>1089</ele>
        <time>2018-11-25T17:16:40Z</time>
      </trkpt>
      <trkpt lat="45.07339" lon="6.04778">
        <ele>1090</ele>
        <time>2018-11-25T17:16:42Z</time>
      </trkpt>
      <trkpt lat="45.07344" lon="6.04783">
        <ele>1090</ele>
        <time>2018-11-25T17:16:44Z</time>
      </trkpt>
      <trkpt lat="45.07349" lon="6.04789">
        <ele>1091</ele>
        <time>2018-11-25T17:16:46Z</time>
      </trkpt>
      <trkpt lat="45.07355" lon="6.04798">
        <ele>1091</ele>
        <time>2018-11-25T17:16:48Z</time>
      </trkpt>
      <trkpt lat="45.07358" lon="6.04806">
        <ele>1092</ele>
        <time>2018-11-25T17:16:50Z</time>
      </trkpt>
      <trkpt lat="45.07361" lon="6.04815">
        <ele>1092</ele>
        <time>2018-11-25T17:16:52Z</time>
      </trkpt>
      <trkpt lat="45.07363" lon="6.04826">
        <ele>1093</ele>
        <time>2018-11-25T17:16:54Z</time>
      </trkpt>
      <trkpt lat="45.07365" lon="6.04835">
        <ele>1093</ele>
        <time>2018-11-25T17:16:56Z</time>
      </trkpt>
      <trkpt lat="45.07367" lon="6.04844">
        <ele>1094</ele>
        <time>2018-11-25T17:16:58Z</time>
      </trkpt>
      <trkpt lat="45.07368" lon="6.04855">
        <ele>1094</ele>
        <time>2018-11-25T17:17:00Z</time>
      </trkpt>
      <trkpt lat="45.07368" lon="6.04864">
        <ele>1095</ele>
        <time>2018-11-25T17:17:02Z</time>
      </trkpt>
      <trkpt lat="45.07367" lon="6.04876">
        <ele>1096</ele>
        <time>2018-11-25T17:17:04Z</time>
      </trkpt>
      <trkpt lat="45.07364" lon="6.04884">
        <ele>1096</ele>
        <time>2018-11-25T17:17:06Z</time>
      </trkpt>
      <trkpt lat="45.0736" lon="6.04893">
        <ele>1097</ele>
        <time>2018-11-25T17:17:08Z</time>
      </trkpt>
      <trkpt lat="45.07355" lon="6.04899">
        <ele>1097</ele>
        <time>2018-11-25T17:17:10Z</time>
      </trkpt>
      <trkpt lat="45.0735" lon="6.04905">
        <ele>1098</ele>
        <time>2018-11-25T17:17:12Z</time>
      </trkpt>
      <trkpt lat="45.07345" lon="6.04913">
        <ele>1099</ele>
        <time>2018-11-25T17:17:14Z</time>
      </trkpt>
      <trkpt lat="45.07341" lon="6.0492">
        <ele>1099</ele>
        <time>2018-11-25T17:17:16Z</time>
      </trkpt>
      <trkpt lat="45.07338" lon="6.04927">
        <ele>1100</ele>
        <time>2018-11-25T17:17:18Z</time>
      </trkpt>
      <trkpt lat="45.07335" lon="6.04935">
        <ele>1100</ele>
        <time>2018-11-25T17:17:20Z</time>
      </trkpt>
      <trkpt lat="45.07333" lon="6.04942">
        <ele>1101</ele>
        <time>2018-11-25T17:17:22Z</time>
      </trkpt>
      <trkpt lat="45.0733" lon="6.04953">
        <ele>1102</ele>
        <time>2018-11-25T17:17:24Z</time>
      </trkpt>
      <trkpt lat="45.07328" lon="6.04961">
        <ele>1102</ele>
        <time>2018-11-25T17:17:26Z</time>
      </trkpt>
      <trkpt lat="45.07326" lon="6.04969">
        <ele>1103</ele>
        <time>2018-11-25T17:17:28Z</time>
      </trkpt>
      <trkpt lat="45.07323" lon="6.04977">
        <ele>1103</ele>
        <time>2018-11-25T17:17:30Z</time>
      </trkpt>
      <trkpt lat="45.0732" lon="6.04984">
        <ele>1104</ele>
        <time>2018-11-25T17:17:32Z</time>
      </trkpt>
      <trkpt lat="45.07315" lon="6.04993">
        <ele>1104</ele>
        <time>2018-11-25T17:17:34Z</time>
      </trkpt>
      <trkpt lat="45.07311" lon="6.05">
        <ele>1105</ele>
        <time>2018-11-25T17:17:36Z</time>
      </trkpt>
      <trkpt lat="45.07306" lon="6.05007">
        <ele>1105</ele>
        <time>2018-11-25T17:17:38Z</time>
      </trkpt>
      <trkpt lat="45.07301" lon="6.05016">
        <ele>1106</ele>
        <time>2018-11-25T17:17:40Z</time>
      </trkpt>
      <trkpt lat="45.07297" lon="6.05023">
        <ele>1107</ele>
        <time>2018-11-25T17:17:42Z</time>
      </trkpt>
      <trkpt lat="45.07293" lon="6.0503">
        <ele>1107</ele>
        <time>2018-11-25T17:17:44Z</time>
      </trkpt>
      <trkpt lat="45.07287" lon="6.05039">
        <ele>1108</ele>
        <time>2018-11-25T17:17:46Z</time>
      </trkpt>
      <trkpt lat="45.07283" lon="6.05046">
        <ele>1108</ele>
        <time>2018-11-25T17:17:48Z</time>
      </trkpt>
      <trkpt lat="45.07277" lon="6.05054">
        <ele>1109</ele>
        <time>2018-11-25T17:17:50Z</time>
      </trkpt>
      <trkpt lat="45.07273" lon="6.05061">
        <ele>1109</ele>
        <time>2018-11-25T17:17:52Z</time>
      </trkpt>
      <trkpt lat="45.07268" lon="6.05068">
        <ele>1110</ele>
        <time>2018-11-25T17:17:54Z</time>
      </trkpt>
      <trkpt lat="45.07263" lon="6.05076">
        <ele>1110</ele>
        <time>2018-11-25T17:17:56Z</time>
      </trkpt>
      <trkpt lat="45.07258" lon="6.05083">
        <ele>1111</ele>
        <time>2018-11-25T17:17:58Z</time>
      </trkpt>
      <trkpt lat="45.07252" lon="6.05091">
        <ele>1112</ele>
        <time>2018-11-25T17:18:00Z</time>
      </trkpt>
      <trkpt lat="45.07248" lon="6.05098">
        <ele>1112</ele>
        <time>2018-11-25T17:18:02Z</time>
      </trkpt>
      <trkpt lat="45.07244" lon="6.05106">
        <ele>1113</ele>
        <time>2018-11-25T17:18:04Z</time>
      </trkpt>
      <trkpt lat="45.07242" lon="6.05116">
        <ele>1113</ele>
        <time>2018-11-25T17:18:06Z</time>
      </trkpt>
      <trkpt lat="45.07244" lon="6.05125">
        <ele>1114</ele>
        <time>2018-11-25T17:18:08Z</time>
      </trkpt>
      <trkpt lat="45.0725" lon="6.05131">
        <ele>1114</ele>
        <time>2018-11-25T17:18:10Z</time>
      </trkpt>
      <trkpt lat="45.07256" lon="6.05129">
        <ele>1115</ele>
        <time>2018-11-25T17:18:12Z</time>
      </trkpt>
      <trkpt lat="45.07261" lon="6.05123">
        <ele>1115</ele>
        <time>2018-11-25T17:18:14Z</time>
      </trkpt>
      <trkpt lat="45.07266" lon="6.05113">
        <ele>1116</ele>
        <time>2018-11-25T17:18:16Z</time>
      </trkpt>
      <trkpt lat="45.07271" lon="6.05105">
        <ele>1117</ele>
        <time>2018-11-25T17:18:18Z</time>
      </trkpt>
      <trkpt lat="45.07275" lon="6.05098">
        <ele>1117</ele>
        <time>2018-11-25T17:18:20Z</time>
      </trkpt>
      <trkpt lat="45.0728" lon="6.05092">
        <ele>1118</ele>
        <time>2018-11-25T17:18:22Z</time>
      </trkpt>
      <trkpt lat="45.07286" lon="6.05084">
        <ele>1118</ele>
        <time>2018-11-25T17:18:24Z</time>
      </trkpt>
      <trkpt lat="45.07292" lon="6.05078">
        <ele>1119</ele>
        <time>2018-11-25T17:18:26Z</time>
      </trkpt>
      <trkpt lat="45.07298" lon="6.05073">
        <ele>1120</ele>
        <time>2018-11-25T17:18:28Z</time>
      </trkpt>
      <trkpt lat="45.07303" lon="6.05068">
        <ele>1120</ele>
        <time>2018-11-25T17:18:30Z</time>
      </trkpt>
      <trkpt lat="45.0731" lon="6.05063">
        <ele>1121</ele>
        <time>2018-11-25T17:18:32Z</time>
      </trkpt>
      <trkpt lat="45.07316" lon="6.05058">
        <ele>1121</ele>
        <time>2018-11-25T17:18:34Z</time>
      </trkpt>
      <trkpt lat="45.07323" lon="6.05052">
        <ele>1122</ele>
        <time>2018-11-25T17:18:36Z</time>
      </trkpt>
      <trkpt lat="45.07329" lon="6.05048">
        <ele>1123</ele>
        <time>2018-11-25T17:18:38Z</time>
      </trkpt>
      <trkpt lat="45.07334" lon="6.05044">
        <ele>1123</ele>
        <time>2018-11-25T17:18:40Z</time>
      </trkpt>
      <trkpt lat="45.07341" lon="6.05037">
        <ele>1124</ele>
        <time>2018-11-25T17:18:42Z</time>
      </trkpt>
      <trkpt lat="45.07347" lon="6.05032">
        <ele>1125</ele>
        <time>2018-11-25T17:18:44Z</time>
      </trkpt>
      <trkpt lat="45.07352" lon="6.05028">
        <ele>1125</ele>
        <time>2018-11-25T17:18:46Z</time>
      </trkpt>
      <trkpt lat="45.07359" lon="6.05021">
        <ele>1126</ele>
        <time>2018-11-25T17:18:48Z</time>
      </trkpt>
      <trkpt lat="45.07365" lon="6.05016">
        <ele>1126</ele>
        <time>2018-11-25T17:18:50Z</time>
      </trkpt>
      <trkpt lat="45.0737" lon="6.05011">
        <ele>1127</ele>
        <time>2018-11-25T17:18:52Z</time>
      </trkpt>
      <trkpt lat="45.07377" lon="6.05004">
        <ele>1128</ele>
        <time>2018-11-25T17:18:54Z</time>
      </trkpt>
      <trkpt lat="45.07382" lon="6.04998">
        <ele>1128</ele>
        <time>2018-11-25T17:18:56Z</time>
      </trkpt>
      <trkpt lat="45.07388" lon="6.04991">
        <ele>1129</ele>
        <time>2018-11-25T17:18:58Z</time>
      </trkpt>
      <trkpt lat="45.07393" lon="6.04984">
        <ele>1129</ele>
        <time>2018-11-25T17:19:00Z</time>
      </trkpt>
      <trkpt lat="45.07398" lon="6.04978">
        <ele>1130</ele>
        <time>2018-11-25T17:19:02Z</time>
      </trkpt>
      <trkpt lat="45.07405" lon="6.04973">
        <ele>1130</ele>
        <time>2018-11-25T17:19:04Z</time>
      </trkpt>
      <trkpt lat="45.07411" lon="6.0497">
        <ele>1131</ele>
        <time>2018-11-25T17:19:06Z</time>
      </trkpt>
      <trkpt lat="45.0742" lon="6.04968">
        <ele>1131</ele>
        <time>2018-11-25T17:19:08Z</time>
      </trkpt>
      <trkpt lat="45.07426" lon="6.04967">
        <ele>1132</ele>
        <time>2018-11-25T17:19:10Z</time>
      </trkpt>
      <trkpt lat="45.07432" lon="6.04967">
        <ele>1133</ele>
        <time>2018-11-25T17:19:12Z</time>
      </trkpt>
      <trkpt lat="45.07438" lon="6.04966">
        <ele>1133</ele>
        <time>2018-11-25T17:19:14Z</time>
      </trkpt>
      <trkpt lat="45.07444" lon="6.04965">
        <ele>1134</ele>
        <time>2018-11-25T17:19:16Z</time>
      </trkpt>
      <trkpt lat="45.07451" lon="6.04963">
        <ele>1134</ele>
        <time>2018-11-25T17:19:18Z</time>
      </trkpt>
      <trkpt lat="45.07457" lon="6.04961">
        <ele>1135</ele>
        <time>2018-11-25T17:19:20Z</time>
      </trkpt>
      <trkpt lat="45.07463" lon="6.04959">
        <ele>1136</ele>
        <time>2018-11-25T17:19:22Z</time>
      </trkpt>
      <trkpt lat="45.07468" lon="6.04955">
        <ele>1136</ele>
        <time>2018-11-25T17:19:24Z</time>
      </trkpt>
      <trkpt lat="45.07473" lon="6.04951">
        <ele>1137</ele>
        <time>2018-11-25T17:19:26Z</time>
      </trkpt>
      <trkpt lat="45.07477" lon="6.04947">
        <ele>1137</ele>
        <time>2018-11-25T17:19:28Z</time>
      </trkpt>
      <trkpt lat="45.07481" lon="6.04942">
        <ele>1138</ele>
        <time>2018-11-25T17:19:30Z</time>
      </trkpt>
      <trkpt lat="45.07484" lon="6.04936">
        <ele>1139</ele>
        <time>2018-11-25T17:19:32Z</time>
      </trkpt>
      <trkpt lat="45.07487" lon="6.0493">
        <ele>1139</ele>
        <time>2018-11-25T17:19:34Z</time>
      </trkpt>
      <trkpt lat="45.0749" lon="6.04923">
        <ele>1140</ele>
        <time>2018-11-25T17:19:36Z</time>
      </trkpt>
      <trkpt lat="45.07492" lon="6.04916">
        <ele>1140</ele>
        <time>2018-11-25T17:19:38Z</time>
      </trkpt>
      <trkpt lat="45.07495" lon="6.04909">
        <ele>1141</ele>
        <time>2018-11-25T17:19:40Z</time>
      </trkpt>
      <trkpt lat="45.07497" lon="6.04902">
        <ele>1142</ele>
        <time>2018-11-25T17:19:42Z</time>
      </trkpt>
      <trkpt lat="45.07499" lon="6.04896">
        <ele>1142</ele>
        <time>2018-11-25T17:19:44Z</time>
      </trkpt>
      <trkpt lat="45.07501" lon="6.0489">
        <ele>1143</ele>
        <time>2018-11-25T17:19:46Z</time>
      </trkpt>
      <trkpt lat="45.07502" lon="6.04883">
        <ele>1143</ele>
        <time>2018-11-25T17:19:48Z</time>
      </trkpt>
      <trkpt lat="45.07504" lon="6.04876">
        <ele>1144</ele>
        <time>2018-11-25T17:19:50Z</time>
      </trkpt>
      <trkpt lat="45.07505" lon="6.04869">
        <ele>1145</ele>
        <time>2018-11-25T17:19:52Z</time>
      </trkpt>
      <trkpt lat="45.07505" lon="6.04863">
        <ele>1145</ele>
        <time>2018-11-25T17:19:54Z</time>
      </trkpt>
      <trkpt lat="45.07505" lon="6.04859">
        <ele>1146</ele>
        <time>2018-11-25T17:19:56Z</time>
      </trkpt>
      <trkpt lat="45.07504" lon="6.04851">
        <ele>1147</ele>
        <time>2018-11-25T17:19:58Z</time>
      </trkpt>
      <trkpt lat="45.07503" lon="6.04844">
        <ele>1147</ele>
        <time>2018-11-25T17:20:00Z</time>
      </trkpt>
      <trkpt lat="45.07502" lon="6.04838">
        <ele>1148</ele>
        <time>2018-11-25T17:20:02Z</time>
      </trkpt>
      <trkpt lat="45.07501" lon="6.04831">
        <ele>1149</ele>
        <time>2018-11-25T17:20:04Z</time>
      </trkpt>
      <trkpt lat="45.07499" lon="6.04825">
        <ele>1149</ele>
        <time>2018-11-25T17:20:06Z</time>
      </trkpt>
      <trkpt lat="45.07497" lon="6.0482">
        <ele>1150</ele>
        <time>2018-11-25T17:20:08Z</time>
      </trkpt>
      <trkpt lat="45.07495" lon="6.04816">
        <ele>1150</ele>
        <time>2018-11-25T17:20:10Z</time>
      </trkpt>
      <trkpt lat="45.07493" lon="6.04811">
        <ele>1151</ele>
        <time>2018-11-25T17:20:12Z</time>
      </trkpt>
      <trkpt lat="45.0749" lon="6.04805">
        <ele>1152</ele>
        <time>2018-11-25T17:20:14Z</time>
      </trkpt>
      <trkpt lat="45.07488" lon="6.048">
        <ele>1152</ele>
        <time>2018-11-25T17:20:16Z</time>
      </trkpt>
      <trkpt lat="45.07486" lon="6.04796">
        <ele>1153</ele>
        <time>2018-11-25T17:20:18Z</time>
      </trkpt>
      <trkpt lat="45.07484" lon="6.04791">
        <ele>1153</ele>
        <time>2018-11-25T17:20:20Z</time>
      </trkpt>
      <trkpt lat="45.07482" lon="6.04785">
        <ele>1154</ele>
        <time>2018-11-25T17:20:22Z</time>
      </trkpt>
      <trkpt lat="45.0748" lon="6.04782">
        <ele>1154</ele>
        <time>2018-11-25T17:20:24Z</time>
      </trkpt>
      <trkpt lat="45.07479" lon="6.04776">
        <ele>1155</ele>
        <time>2018-11-25T17:20:26Z</time>
      </trkpt>
      <trkpt lat="45.07479" lon="6.0477">
        <ele>1155</ele>
        <time>2018-11-25T17:20:28Z</time>
      </trkpt>
      <trkpt lat="45.07481" lon="6.04765">
        <ele>1156</ele>
        <time>2018-11-25T17:20:30Z</time>
      </trkpt>
      <trkpt lat="45.07485" lon="6.04763">
        <ele>1157</ele>
        <time>2018-11-25T17:20:32Z</time>
      </trkpt>
      <trkpt lat="45.07488" lon="6.04765">
        <ele>1157</ele>
        <time>2018-11-25T17:20:34Z</time>
      </trkpt>
      <trkpt lat="45.0749" lon="6.0477">
        <ele>1158</ele>
        <time>2018-11-25T17:20:36Z</time>
      </trkpt>
      <trkpt lat="45.07492" lon="6.04776">
        <ele>1158</ele>
        <time>2018-11-25T17:20:38Z</time>
      </trkpt>
      <trkpt lat="45.07494" lon="6.04784">
        <ele>1159</ele>
        <time>2018-11-25T17:20:40Z</time>
      </trkpt>
      <trkpt lat="45.07495" lon="6.04792">
        <ele>1159</ele>
        <time>2018-11-25T17:20:42Z</time>
      </trkpt>
      <trkpt lat="45.07497" lon="6.048">
        <ele>1160</ele>
        <time>2018-11-25T17:20:44Z</time>
      </trkpt>
      <trkpt lat="45.07499" lon="6.04807">
        <ele>1160</ele>
        <time>2018-11-25T17:20:46Z</time>
      </trkpt>
      <trkpt lat="45.07501" lon="6.04814">
        <ele>1161</ele>
        <time>2018-11-25T17:20:48Z</time>
      </trkpt>
      <trkpt lat="45.07504" lon="6.04822">
        <ele>1162</ele>
        <time>2018-11-25T17:20:50Z</time>
      </trkpt>
      <trkpt lat="45.07507" lon="6.04829">
        <ele>1162</ele>
        <time>2018-11-25T17:20:52Z</time>
      </trkpt>
      <trkpt lat="45.07509" lon="6.04836">
        <ele>1163</ele>
        <time>2018-11-25T17:20:54Z</time>
      </trkpt>
      <trkpt lat="45.07512" lon="6.04843">
        <ele>1163</ele>
        <time>2018-11-25T17:20:56Z</time>
      </trkpt>
      <trkpt lat="45.07515" lon="6.0485">
        <ele>1164</ele>
        <time>2018-11-25T17:20:58Z</time>
      </trkpt>
      <trkpt lat="45.07517" lon="6.04858">
        <ele>1164</ele>
        <time>2018-11-25T17:21:00Z</time>
      </trkpt>
      <trkpt lat="45.07519" lon="6.04865">
        <ele>1165</ele>
        <time>2018-11-25T17:21:02Z</time>
      </trkpt>
      <trkpt lat="45.0752" lon="6.04873">
        <ele>1165</ele>
        <time>2018-11-25T17:21:04Z</time>
      </trkpt>
      <trkpt lat="45.07521" lon="6.0488">
        <ele>1166</ele>
        <time>2018-11-25T17:21:06Z</time>
      </trkpt>
      <trkpt lat="45.07522" lon="6.04888">
        <ele>1167</ele>
        <time>2018-11-25T17:21:08Z</time>
      </trkpt>
      <trkpt lat="45.07523" lon="6.04896">
        <ele>1167</ele>
        <time>2018-11-25T17:21:10Z</time>
      </trkpt>
      <trkpt lat="45.07523" lon="6.04904">
        <ele>1168</ele>
        <time>2018-11-25T17:21:12Z</time>
      </trkpt>
      <trkpt lat="45.07523" lon="6.04915">
        <ele>1168</ele>
        <time>2018-11-25T17:21:14Z</time>
      </trkpt>
      <trkpt lat="45.07523" lon="6.04923">
        <ele>1169</ele>
        <time>2018-11-25T17:21:16Z</time>
      </trkpt>
      <trkpt lat="45.07523" lon="6.04932">
        <ele>1169</ele>
        <time>2018-11-25T17:21:18Z</time>
      </trkpt>
      <trkpt lat="45.07522" lon="6.0494">
        <ele>1170</ele>
        <time>2018-11-25T17:21:20Z</time>
      </trkpt>
      <trkpt lat="45.07522" lon="6.04948">
        <ele>1171</ele>
        <time>2018-11-25T17:21:22Z</time>
      </trkpt>
      <trkpt lat="45.07521" lon="6.04956">
        <ele>1171</ele>
        <time>2018-11-25T17:21:24Z</time>
      </trkpt>
      <trkpt lat="45.0752" lon="6.04965">
        <ele>1172</ele>
        <time>2018-11-25T17:21:26Z</time>
      </trkpt>
      <trkpt lat="45.07519" lon="6.04972">
        <ele>1172</ele>
        <time>2018-11-25T17:21:28Z</time>
      </trkpt>
      <trkpt lat="45.07516" lon="6.04981">
        <ele>1173</ele>
        <time>2018-11-25T17:21:30Z</time>
      </trkpt>
      <trkpt lat="45.07512" lon="6.04988">
        <ele>1173</ele>
        <time>2018-11-25T17:21:32Z</time>
      </trkpt>
      <trkpt lat="45.07508" lon="6.04993">
        <ele>1174</ele>
        <time>2018-11-25T17:21:34Z</time>
      </trkpt>
      <trkpt lat="45.07504" lon="6.04999">
        <ele>1174</ele>
        <time>2018-11-25T17:21:36Z</time>
      </trkpt>
      <trkpt lat="45.07498" lon="6.05004">
        <ele>1175</ele>
        <time>2018-11-25T17:21:38Z</time>
      </trkpt>
      <trkpt lat="45.07491" lon="6.05008">
        <ele>1175</ele>
        <time>2018-11-25T17:21:40Z</time>
      </trkpt>
      <trkpt lat="45.07485" lon="6.05011">
        <ele>1176</ele>
        <time>2018-11-25T17:21:42Z</time>
      </trkpt>
      <trkpt lat="45.07478" lon="6.05013">
        <ele>1176</ele>
        <time>2018-11-25T17:21:44Z</time>
      </trkpt>
      <trkpt lat="45.0747" lon="6.05016">
        <ele>1177</ele>
        <time>2018-11-25T17:21:46Z</time>
      </trkpt>
      <trkpt lat="45.07464" lon="6.05019">
        <ele>1178</ele>
        <time>2018-11-25T17:21:48Z</time>
      </trkpt>
      <trkpt lat="45.07457" lon="6.05022">
        <ele>1178</ele>
        <time>2018-11-25T17:21:50Z</time>
      </trkpt>
      <trkpt lat="45.07449" lon="6.05027">
        <ele>1179</ele>
        <time>2018-11-25T17:21:52Z</time>
      </trkpt>
      <trkpt lat="45.07443" lon="6.05033">
        <ele>1179</ele>
        <time>2018-11-25T17:21:54Z</time>
      </trkpt>
      <trkpt lat="45.07439" lon="6.0504">
        <ele>1180</ele>
        <time>2018-11-25T17:21:56Z</time>
      </trkpt>
      <trkpt lat="45.07434" lon="6.0505">
        <ele>1180</ele>
        <time>2018-11-25T17:21:58Z</time>
      </trkpt>
      <trkpt lat="45.0743" lon="6.05058">
        <ele>1181</ele>
        <time>2018-11-25T17:22:00Z</time>
      </trkpt>
      <trkpt lat="45.07425" lon="6.05069">
        <ele>1181</ele>
        <time>2018-11-25T17:22:02Z</time>
      </trkpt>
      <trkpt lat="45.07421" lon="6.05077">
        <ele>1182</ele>
        <time>2018-11-25T17:22:04Z</time>
      </trkpt>
      <trkpt lat="45.07417" lon="6.05084">
        <ele>1182</ele>
        <time>2018-11-25T17:22:06Z</time>
      </trkpt>
      <trkpt lat="45.07412" lon="6.0509">
        <ele>1183</ele>
        <time>2018-11-25T17:22:08Z</time>
      </trkpt>
      <trkpt lat="45.07406" lon="6.05098">
        <ele>1184</ele>
        <time>2018-11-25T17:22:10Z</time>
      </trkpt>
      <trkpt lat="45.07402" lon="6.05104">
        <ele>1184</ele>
        <time>2018-11-25T17:22:12Z</time>
      </trkpt>
      <trkpt lat="45.07397" lon="6.0511">
        <ele>1185</ele>
        <time>2018-11-25T17:22:14Z</time>
      </trkpt>
      <trkpt lat="45.07392" lon="6.05117">
        <ele>1185</ele>
        <time>2018-11-25T17:22:16Z</time>
      </trkpt>
      <trkpt lat="45.07388" lon="6.05123">
        <ele>1186</ele>
        <time>2018-11-25T17:22:18Z</time>
      </trkpt>
      <trkpt lat="45.07382" lon="6.05131">
        <ele>1186</ele>
        <time>2018-11-25T17:22:20Z</time>
      </trkpt>
      <trkpt lat="45.07377" lon="6.05138">
        <ele>1187</ele>
        <time>2018-11-25T17:22:22Z</time>
      </trkpt>
      <trkpt lat="45.07373" lon="6.05144">
        <ele>1188</ele>
        <time>2018-11-25T17:22:24Z</time>
      </trkpt>
      <trkpt lat="45.07368" lon="6.0515">
        <ele>1188</ele>
        <time>2018-11-25T17:22:26Z</time>
      </trkpt>
      <trkpt lat="45.07363" lon="6.05156">
        <ele>1189</ele>
        <time>2018-11-25T17:22:28Z</time>
      </trkpt>
      <trkpt lat="45.07359" lon="6.05163">
        <ele>1189</ele>
        <time>2018-11-25T17:22:30Z</time>
      </trkpt>
      <trkpt lat="45.07353" lon="6.05171">
        <ele>1190</ele>
        <time>2018-11-25T17:22:32Z</time>
      </trkpt>
      <trkpt lat="45.07348" lon="6.05177">
        <ele>1190</ele>
        <time>2018-11-25T17:22:34Z</time>
      </trkpt>
      <trkpt lat="45.07343" lon="6.05182">
        <ele>1191</ele>
        <time>2018-11-25T17:22:36Z</time>
      </trkpt>
      <trkpt lat="45.07338" lon="6.05187">
        <ele>1191</ele>
        <time>2018-11-25T17:22:38Z</time>
      </trkpt>
      <trkpt lat="45.07332" lon="6.05191">
        <ele>1192</ele>
        <time>2018-11-25T17:22:40Z</time>
      </trkpt>
      <trkpt lat="45.07325" lon="6.05196">
        <ele>1193</ele>
        <time>2018-11-25T17:22:42Z</time>
      </trkpt>
      <trkpt lat="45.07321" lon="6.05202">
        <ele>1193</ele>
        <time>2018-11-25T17:22:44Z</time>
      </trkpt>
      <trkpt lat="45.07318" lon="6.0521">
        <ele>1194</ele>
        <time>2018-11-25T17:22:46Z</time>
      </trkpt>
      <trkpt lat="45.07319" lon="6.05221">
        <ele>1194</ele>
        <time>2018-11-25T17:22:48Z</time>
      </trkpt>
      <trkpt lat="45.07324" lon="6.05227">
        <ele>1195</ele>
        <time>2018-11-25T17:22:50Z</time>
      </trkpt>
      <trkpt lat="45.07333" lon="6.05225">
        <ele>1195</ele>
        <time>2018-11-25T17:22:52Z</time>
      </trkpt>
      <trkpt lat="45.0734" lon="6.05218">
        <ele>1196</ele>
        <time>2018-11-25T17:22:54Z</time>
      </trkpt>
      <trkpt lat="45.07347" lon="6.0521">
        <ele>1196</ele>
        <time>2018-11-25T17:22:56Z</time>
      </trkpt>
      <trkpt lat="45.07355" lon="6.05201">
        <ele>1197</ele>
        <time>2018-11-25T17:22:58Z</time>
      </trkpt>
      <trkpt lat="45.07362" lon="6.05194">
        <ele>1197</ele>
        <time>2018-11-25T17:23:00Z</time>
      </trkpt>
      <trkpt lat="45.07369" lon="6.05187">
        <ele>1198</ele>
        <time>2018-11-25T17:23:02Z</time>
      </trkpt>
      <trkpt lat="45.07374" lon="6.05181">
        <ele>1198</ele>
        <time>2018-11-25T17:23:04Z</time>
      </trkpt>
      <trkpt lat="45.07379" lon="6.05176">
        <ele>1199</ele>
        <time>2018-11-25T17:23:06Z</time>
      </trkpt>
      <trkpt lat="45.07385" lon="6.0517">
        <ele>1199</ele>
        <time>2018-11-25T17:23:08Z</time>
      </trkpt>
      <trkpt lat="45.0739" lon="6.05166">
        <ele>1200</ele>
        <time>2018-11-25T17:23:10Z</time>
      </trkpt>
      <trkpt lat="45.07396" lon="6.05161">
        <ele>1201</ele>
        <time>2018-11-25T17:23:12Z</time>
      </trkpt>
      <trkpt lat="45.07401" lon="6.05156">
        <ele>1201</ele>
        <time>2018-11-25T17:23:14Z</time>
      </trkpt>
      <trkpt lat="45.07406" lon="6.05151">
        <ele>1202</ele>
        <time>2018-11-25T17:23:16Z</time>
      </trkpt>
      <trkpt lat="45.07411" lon="6.05146">
        <ele>1202</ele>
        <time>2018-11-25T17:23:18Z</time>
      </trkpt>
      <trkpt lat="45.07416" lon="6.05141">
        <ele>1203</ele>
        <time>2018-11-25T17:23:20Z</time>
      </trkpt>
      <trkpt lat="45.07421" lon="6.05136">
        <ele>1203</ele>
        <time>2018-11-25T17:23:22Z</time>
      </trkpt>
      <trkpt lat="45.07427" lon="6.05131">
        <ele>1204</ele>
        <time>2018-11-25T17:23:24Z</time>
      </trkpt>
      <trkpt lat="45.07433" lon="6.05126">
        <ele>1204</ele>
        <time>2018-11-25T17:23:26Z</time>
      </trkpt>
      <trkpt lat="45.07439" lon="6.05122">
        <ele>1205</ele>
        <time>2018-11-25T17:23:28Z</time>
      </trkpt>
      <trkpt lat="45.07444" lon="6.05117">
        <ele>1205</ele>
        <time>2018-11-25T17:23:30Z</time>
      </trkpt>
      <trkpt lat="45.07449" lon="6.05113">
        <ele>1206</ele>
        <time>2018-11-25T17:23:32Z</time>
      </trkpt>
      <trkpt lat="45.07454" lon="6.05109">
        <ele>1206</ele>
        <time>2018-11-25T17:23:34Z</time>
      </trkpt>
      <trkpt lat="45.0746" lon="6.05106">
        <ele>1207</ele>
        <time>2018-11-25T17:23:36Z</time>
      </trkpt>
      <trkpt lat="45.07466" lon="6.05104">
        <ele>1208</ele>
        <time>2018-11-25T17:23:38Z</time>
      </trkpt>
      <trkpt lat="45.07473" lon="6.05101">
        <ele>1208</ele>
        <time>2018-11-25T17:23:40Z</time>
      </trkpt>
      <trkpt lat="45.07479" lon="6.05099">
        <ele>1209</ele>
        <time>2018-11-25T17:23:42Z</time>
      </trkpt>
      <trkpt lat="45.07485" lon="6.05097">
        <ele>1209</ele>
        <time>2018-11-25T17:23:44Z</time>
      </trkpt>
      <trkpt lat="45.07491" lon="6.05095">
        <ele>1210</ele>
        <time>2018-11-25T17:23:46Z</time>
      </trkpt>
      <trkpt lat="45.07497" lon="6.05093">
        <ele>1210</ele>
        <time>2018-11-25T17:23:48Z</time>
      </trkpt>
      <trkpt lat="45.07503" lon="6.05092">
        <ele>1211</ele>
        <time>2018-11-25T17:23:50Z</time>
      </trkpt>
      <trkpt lat="45.07509" lon="6.0509">
        <ele>1211</ele>
        <time>2018-11-25T17:23:52Z</time>
      </trkpt>
      <trkpt lat="45.07515" lon="6.05089">
        <ele>1212</ele>
        <time>2018-11-25T17:23:54Z</time>
      </trkpt>
      <trkpt lat="45.07523" lon="6.05087">
        <ele>1212</ele>
        <time>2018-11-25T17:23:56Z</time>
      </trkpt>
      <trkpt lat="45.0753" lon="6.05085">
        <ele>1213</ele>
        <time>2018-11-25T17:23:58Z</time>
      </trkpt>
      <trkpt lat="45.07536" lon="6.05082">
        <ele>1213</ele>
        <time>2018-11-25T17:24:00Z</time>
      </trkpt>
      <trkpt lat="45.07543" lon="6.05078">
        <ele>1214</ele>
        <time>2018-11-25T17:24:02Z</time>
      </trkpt>
      <trkpt lat="45.0755" lon="6.05074">
        <ele>1215</ele>
        <time>2018-11-25T17:24:04Z</time>
      </trkpt>
      <trkpt lat="45.07556" lon="6.05069">
        <ele>1215</ele>
        <time>2018-11-25T17:24:06Z</time>
      </trkpt>
      <trkpt lat="45.07562" lon="6.05066">
        <ele>1216</ele>
        <time>2018-11-25T17:24:08Z</time>
      </trkpt>
      <trkpt lat="45.07568" lon="6.05061">
        <ele>1216</ele>
        <time>2018-11-25T17:24:10Z</time>
      </trkpt>
      <trkpt lat="45.07576" lon="6.05056">
        <ele>1217</ele>
        <time>2018-11-25T17:24:12Z</time>
      </trkpt>
      <trkpt lat="45.07581" lon="6.05052">
        <ele>1217</ele>
        <time>2018-11-25T17:24:14Z</time>
      </trkpt>
      <trkpt lat="45.07587" lon="6.05047">
        <ele>1218</ele>
        <time>2018-11-25T17:24:16Z</time>
      </trkpt>
      <trkpt lat="45.07593" lon="6.05039">
        <ele>1218</ele>
        <time>2018-11-25T17:24:18Z</time>
      </trkpt>
      <trkpt lat="45.07593" lon="6.05032">
        <ele>1219</ele>
        <time>2018-11-25T17:24:20Z</time>
      </trkpt>
      <trkpt lat="45.07597" lon="6.05021">
        <ele>1219</ele>
        <time>2018-11-25T17:24:22Z</time>
      </trkpt>
      <trkpt lat="45.07601" lon="6.05013">
        <ele>1220</ele>
        <time>2018-11-25T17:24:24Z</time>
      </trkpt>
      <trkpt lat="45.07604" lon="6.05006">
        <ele>1220</ele>
        <time>2018-11-25T17:24:26Z</time>
      </trkpt>
      <trkpt lat="45.07606" lon="6.04998">
        <ele>1221</ele>
        <time>2018-11-25T17:24:28Z</time>
      </trkpt>
      <trkpt lat="45.07609" lon="6.04988">
        <ele>1222</ele>
        <time>2018-11-25T17:24:30Z</time>
      </trkpt>
      <trkpt lat="45.07611" lon="6.04979">
        <ele>1222</ele>
        <time>2018-11-25T17:24:32Z</time>
      </trkpt>
      <trkpt lat="45.07614" lon="6.04971">
        <ele>1223</ele>
        <time>2018-11-25T17:24:34Z</time>
      </trkpt>
      <trkpt lat="45.07616" lon="6.04963">
        <ele>1223</ele>
        <time>2018-11-25T17:24:36Z</time>
      </trkpt>
      <trkpt lat="45.07619" lon="6.04956">
        <ele>1224</ele>
        <time>2018-11-25T17:24:38Z</time>
      </trkpt>
      <trkpt lat="45.07622" lon="6.04949">
        <ele>1224</ele>
        <time>2018-11-25T17:24:40Z</time>
      </trkpt>
      <trkpt lat="45.07625" lon="6.04941">
        <ele>1225</ele>
        <time>2018-11-25T17:24:42Z</time>
      </trkpt>
      <trkpt lat="45.07628" lon="6.04934">
        <ele>1225</ele>
        <time>2018-11-25T17:24:44Z</time>
      </trkpt>
      <trkpt lat="45.07632" lon="6.04925">
        <ele>1226</ele>
        <time>2018-11-25T17:24:46Z</time>
      </trkpt>
      <trkpt lat="45.07635" lon="6.04917">
        <ele>1226</ele>
        <time>2018-11-25T17:24:48Z</time>
      </trkpt>
      <trkpt lat="45.07636" lon="6.04909">
        <ele>1227</ele>
        <time>2018-11-25T17:24:50Z</time>
      </trkpt>
      <trkpt lat="45.07638" lon="6.049">
        <ele>1227</ele>
        <time>2018-11-25T17:24:52Z</time>
      </trkpt>
      <trkpt lat="45.07638" lon="6.04891">
        <ele>1228</ele>
        <time>2018-11-25T17:24:54Z</time>
      </trkpt>
      <trkpt lat="45.07638" lon="6.04882">
        <ele>1229</ele>
        <time>2018-11-25T17:24:56Z</time>
      </trkpt>
      <trkpt lat="45.07637" lon="6.04873">
        <ele>1229</ele>
        <time>2018-11-25T17:24:58Z</time>
      </trkpt>
      <trkpt lat="45.07636" lon="6.04864">
        <ele>1230</ele>
        <time>2018-11-25T17:25:00Z</time>
      </trkpt>
      <trkpt lat="45.07635" lon="6.04854">
        <ele>1230</ele>
        <time>2018-11-25T17:25:02Z</time>
      </trkpt>
      <trkpt lat="45.07633" lon="6.04845">
        <ele>1231</ele>
        <time>2018-11-25T17:25:04Z</time>
      </trkpt>
      <trkpt lat="45.07632" lon="6.04837">
        <ele>1231</ele>
        <time>2018-11-25T17:25:06Z</time>
      </trkpt>
      <trkpt lat="45.0763" lon="6.04828">
        <ele>1232</ele>
        <time>2018-11-25T17:25:08Z</time>
      </trkpt>
      <trkpt lat="45.07629" lon="6.04818">
        <ele>1233</ele>
        <time>2018-11-25T17:25:10Z</time>
      </trkpt>
      <trkpt lat="45.07629" lon="6.0481">
        <ele>1233</ele>
        <time>2018-11-25T17:25:12Z</time>
      </trkpt>
      <trkpt lat="45.0763" lon="6.04802">
        <ele>1234</ele>
        <time>2018-11-25T17:25:14Z</time>
      </trkpt>
      <trkpt lat="45.07631" lon="6.04794">
        <ele>1234</ele>
        <time>2018-11-25T17:25:16Z</time>
      </trkpt>
      <trkpt lat="45.07633" lon="6.04786">
        <ele>1235</ele>
        <time>2018-11-25T17:25:18Z</time>
      </trkpt>
      <trkpt lat="45.07636" lon="6.04779">
        <ele>1235</ele>
        <time>2018-11-25T17:25:20Z</time>
      </trkpt>
      <trkpt lat="45.07639" lon="6.04771">
        <ele>1236</ele>
        <time>2018-11-25T17:25:22Z</time>
      </trkpt>
      <trkpt lat="45.07641" lon="6.04764">
        <ele>1236</ele>
        <time>2018-11-25T17:25:24Z</time>
      </trkpt>
      <trkpt lat="45.07644" lon="6.04756">
        <ele>1237</ele>
        <time>2018-11-25T17:25:26Z</time>
      </trkpt>
      <trkpt lat="45.07646" lon="6.04748">
        <ele>1237</ele>
        <time>2018-11-25T17:25:28Z</time>
      </trkpt>
      <trkpt lat="45.07649" lon="6.0474">
        <ele>1238</ele>
        <time>2018-11-25T17:25:30Z</time>
      </trkpt>
      <trkpt lat="45.07653" lon="6.04734">
        <ele>1238</ele>
        <time>2018-11-25T17:25:32Z</time>
      </trkpt>
      <trkpt lat="45.07659" lon="6.04732">
        <ele>1239</ele>
        <time>2018-11-25T17:25:34Z</time>
      </trkpt>
      <trkpt lat="45.07664" lon="6.04739">
        <ele>1240</ele>
        <time>2018-11-25T17:25:36Z</time>
      </trkpt>
      <trkpt lat="45.07665" lon="6.04747">
        <ele>1240</ele>
        <time>2018-11-25T17:25:38Z</time>
      </trkpt>
      <trkpt lat="45.07663" lon="6.04755">
        <ele>1241</ele>
        <time>2018-11-25T17:25:40Z</time>
      </trkpt>
      <trkpt lat="45.0766" lon="6.04762">
        <ele>1241</ele>
        <time>2018-11-25T17:25:42Z</time>
      </trkpt>
      <trkpt lat="45.07656" lon="6.04769">
        <ele>1242</ele>
        <time>2018-11-25T17:25:44Z</time>
      </trkpt>
      <trkpt lat="45.07653" lon="6.04777">
        <ele>1242</ele>
        <time>2018-11-25T17:25:46Z</time>
      </trkpt>
      <trkpt lat="45.0765" lon="6.04789">
        <ele>1243</ele>
        <time>2018-11-25T17:25:48Z</time>
      </trkpt>
      <trkpt lat="45.07649" lon="6.04798">
        <ele>1244</ele>
        <time>2018-11-25T17:25:50Z</time>
      </trkpt>
      <trkpt lat="45.0765" lon="6.04807">
        <ele>1244</ele>
        <time>2018-11-25T17:25:52Z</time>
      </trkpt>
      <trkpt lat="45.07652" lon="6.04816">
        <ele>1245</ele>
        <time>2018-11-25T17:25:54Z</time>
      </trkpt>
      <trkpt lat="45.07653" lon="6.04821">
        <ele>1245</ele>
        <time>2018-11-25T17:25:56Z</time>
      </trkpt>
      <trkpt lat="45.07655" lon="6.04829">
        <ele>1246</ele>
        <time>2018-11-25T17:25:58Z</time>
      </trkpt>
      <trkpt lat="45.07658" lon="6.04836">
        <ele>1246</ele>
        <time>2018-11-25T17:26:00Z</time>
      </trkpt>
      <trkpt lat="45.07661" lon="6.04843">
        <ele>1247</ele>
        <time>2018-11-25T17:26:02Z</time>
      </trkpt>
      <trkpt lat="45.07664" lon="6.0485">
        <ele>1248</ele>
        <time>2018-11-25T17:26:04Z</time>
      </trkpt>
      <trkpt lat="45.07667" lon="6.04857">
        <ele>1248</ele>
        <time>2018-11-25T17:26:06Z</time>
      </trkpt>
      <trkpt lat="45.07669" lon="6.04864">
        <ele>1249</ele>
        <time>2018-11-25T17:26:08Z</time>
      </trkpt>
      <trkpt lat="45.07669" lon="6.04869">
        <ele>1249</ele>
        <time>2018-11-25T17:26:10Z</time>
      </trkpt>
      <trkpt lat="45.0767" lon="6.04878">
        <ele>1250</ele>
        <time>2018-11-25T17:26:12Z</time>
      </trkpt>
      <trkpt lat="45.07671" lon="6.04885">
        <ele>1250</ele>
        <time>2018-11-25T17:26:14Z</time>
      </trkpt>
      <trkpt lat="45.07672" lon="6.04893">
        <ele>1251</ele>
        <time>2018-11-25T17:26:16Z</time>
      </trkpt>
      <trkpt lat="45.07673" lon="6.04899">
        <ele>1251</ele>
        <time>2018-11-25T17:26:18Z</time>
      </trkpt>
      <trkpt lat="45.07673" lon="6.04907">
        <ele>1252</ele>
        <time>2018-11-25T17:26:20Z</time>
      </trkpt>
      <trkpt lat="45.07673" lon="6.04915">
        <ele>1253</ele>
        <time>2018-11-25T17:26:22Z</time>
      </trkpt>
      <trkpt lat="45.07673" lon="6.04923">
        <ele>1253</ele>
        <time>2018-11-25T17:26:24Z</time>
      </trkpt>
      <trkpt lat="45.07672" lon="6.04932">
        <ele>1254</ele>
        <time>2018-11-25T17:26:26Z</time>
      </trkpt>
      <trkpt lat="45.07671" lon="6.04936">
        <ele>1254</ele>
        <time>2018-11-25T17:26:28Z</time>
      </trkpt>
      <trkpt lat="45.07671" lon="6.04944">
        <ele>1255</ele>
        <time>2018-11-25T17:26:30Z</time>
      </trkpt>
      <trkpt lat="45.0767" lon="6.04951">
        <ele>1255</ele>
        <time>2018-11-25T17:26:32Z</time>
      </trkpt>
      <trkpt lat="45.07669" lon="6.04955">
        <ele>1256</ele>
        <time>2018-11-25T17:26:34Z</time>
      </trkpt>
      <trkpt lat="45.07667" lon="6.04962">
        <ele>1257</ele>
        <time>2018-11-25T17:26:36Z</time>
      </trkpt>
      <trkpt lat="45.07665" lon="6.04968">
        <ele>1257</ele>
        <time>2018-11-25T17:26:38Z</time>
      </trkpt>
      <trkpt lat="45.07664" lon="6.04973">
        <ele>1258</ele>
        <time>2018-11-25T17:26:40Z</time>
      </trkpt>
      <trkpt lat="45.07662" lon="6.04979">
        <ele>1258</ele>
        <time>2018-11-25T17:26:42Z</time>
      </trkpt>
      <trkpt lat="45.07659" lon="6.04986">
        <ele>1259</ele>
        <time>2018-11-25T17:26:44Z</time>
      </trkpt>
      <trkpt lat="45.07658" lon="6.0499">
        <ele>1259</ele>
        <time>2018-11-25T17:26:46Z</time>
      </trkpt>
      <trkpt lat="45.07656" lon="6.04997">
        <ele>1260</ele>
        <time>2018-11-25T17:26:48Z</time>
      </trkpt>
      <trkpt lat="45.07655" lon="6.05004">
        <ele>1261</ele>
        <time>2018-11-25T17:26:50Z</time>
      </trkpt>
      <trkpt lat="45.07654" lon="6.05009">
        <ele>1261</ele>
        <time>2018-11-25T17:26:52Z</time>
      </trkpt>
      <trkpt lat="45.07653" lon="6.05016">
        <ele>1261</ele>
        <time>2018-11-25T17:26:54Z</time>
      </trkpt>
      <trkpt lat="45.07652" lon="6.05025">
        <ele>1262</ele>
        <time>2018-11-25T17:26:56Z</time>
      </trkpt>
      <trkpt lat="45.07652" lon="6.05034">
        <ele>1263</ele>
        <time>2018-11-25T17:26:58Z</time>
      </trkpt>
      <trkpt lat="45.07651" lon="6.05043">
        <ele>1263</ele>
        <time>2018-11-25T17:27:00Z</time>
      </trkpt>
      <trkpt lat="45.0765" lon="6.05051">
        <ele>1264</ele>
        <time>2018-11-25T17:27:02Z</time>
      </trkpt>
      <trkpt lat="45.0765" lon="6.05056">
        <ele>1264</ele>
        <time>2018-11-25T17:27:04Z</time>
      </trkpt>
      <trkpt lat="45.07648" lon="6.05064">
        <ele>1265</ele>
        <time>2018-11-25T17:27:06Z</time>
      </trkpt>
      <trkpt lat="45.07646" lon="6.05072">
        <ele>1266</ele>
        <time>2018-11-25T17:27:08Z</time>
      </trkpt>
      <trkpt lat="45.07644" lon="6.0508">
        <ele>1266</ele>
        <time>2018-11-25T17:27:10Z</time>
      </trkpt>
      <trkpt lat="45.07642" lon="6.05085">
        <ele>1267</ele>
        <time>2018-11-25T17:27:12Z</time>
      </trkpt>
      <trkpt lat="45.07639" lon="6.05092">
        <ele>1267</ele>
        <time>2018-11-25T17:27:14Z</time>
      </trkpt>
      <trkpt lat="45.07635" lon="6.05099">
        <ele>1268</ele>
        <time>2018-11-25T17:27:16Z</time>
      </trkpt>
      <trkpt lat="45.07631" lon="6.05106">
        <ele>1268</ele>
        <time>2018-11-25T17:27:18Z</time>
      </trkpt>
      <trkpt lat="45.07629" lon="6.0511">
        <ele>1269</ele>
        <time>2018-11-25T17:27:20Z</time>
      </trkpt>
      <trkpt lat="45.07626" lon="6.05116">
        <ele>1269</ele>
        <time>2018-11-25T17:27:22Z</time>
      </trkpt>
      <trkpt lat="45.07622" lon="6.05122">
        <ele>1270</ele>
        <time>2018-11-25T17:27:24Z</time>
      </trkpt>
      <trkpt lat="45.07619" lon="6.05128">
        <ele>1271</ele>
        <time>2018-11-25T17:27:26Z</time>
      </trkpt>
      <trkpt lat="45.07616" lon="6.05131">
        <ele>1271</ele>
        <time>2018-11-25T17:27:28Z</time>
      </trkpt>
      <trkpt lat="45.07613" lon="6.05135">
        <ele>1271</ele>
        <time>2018-11-25T17:27:30Z</time>
      </trkpt>
      <trkpt lat="45.07611" lon="6.05139">
        <ele>1272</ele>
        <time>2018-11-25T17:27:32Z</time>
      </trkpt>
      <trkpt lat="45.07607" lon="6.05144">
        <ele>1272</ele>
        <time>2018-11-25T17:27:34Z</time>
      </trkpt>
      <trkpt lat="45.07603" lon="6.0515">
        <ele>1273</ele>
        <time>2018-11-25T17:27:36Z</time>
      </trkpt>
      <trkpt lat="45.07598" lon="6.05155">
        <ele>1274</ele>
        <time>2018-11-25T17:27:38Z</time>
      </trkpt>
      <trkpt lat="45.07596" lon="6.05157">
        <ele>1274</ele>
        <time>2018-11-25T17:27:40Z</time>
      </trkpt>
      <trkpt lat="45.07591" lon="6.05162">
        <ele>1275</ele>
        <time>2018-11-25T17:27:42Z</time>
      </trkpt>
      <trkpt lat="45.07587" lon="6.05166">
        <ele>1275</ele>
        <time>2018-11-25T17:27:44Z</time>
      </trkpt>
      <trkpt lat="45.07582" lon="6.0517">
        <ele>1276</ele>
        <time>2018-11-25T17:27:46Z</time>
      </trkpt>
      <trkpt lat="45.07577" lon="6.05174">
        <ele>1277</ele>
        <time>2018-11-25T17:27:48Z</time>
      </trkpt>
      <trkpt lat="45.07574" lon="6.05176">
        <ele>1277</ele>
        <time>2018-11-25T17:27:50Z</time>
      </trkpt>
      <trkpt lat="45.07568" lon="6.0518">
        <ele>1278</ele>
        <time>2018-11-25T17:27:52Z</time>
      </trkpt>
      <trkpt lat="45.07563" lon="6.05183">
        <ele>1278</ele>
        <time>2018-11-25T17:27:54Z</time>
      </trkpt>
      <trkpt lat="45.07558" lon="6.05187">
        <ele>1279</ele>
        <time>2018-11-25T17:27:56Z</time>
      </trkpt>
      <trkpt lat="45.07553" lon="6.0519">
        <ele>1279</ele>
        <time>2018-11-25T17:27:58Z</time>
      </trkpt>
      <trkpt lat="45.07548" lon="6.05194">
        <ele>1280</ele>
        <time>2018-11-25T17:28:00Z</time>
      </trkpt>
      <trkpt lat="45.07545" lon="6.05196">
        <ele>1280</ele>
        <time>2018-11-25T17:28:02Z</time>
      </trkpt>
      <trkpt lat="45.0754" lon="6.05199">
        <ele>1281</ele>
        <time>2018-11-25T17:28:04Z</time>
      </trkpt>
      <trkpt lat="45.07535" lon="6.05202">
        <ele>1282</ele>
        <time>2018-11-25T17:28:06Z</time>
      </trkpt>
      <trkpt lat="45.0753" lon="6.05205">
        <ele>1282</ele>
        <time>2018-11-25T17:28:08Z</time>
      </trkpt>
      <trkpt lat="45.07526" lon="6.05207">
        <ele>1283</ele>
        <time>2018-11-25T17:28:10Z</time>
      </trkpt>
      <trkpt lat="45.07521" lon="6.0521">
        <ele>1283</ele>
        <time>2018-11-25T17:28:12Z</time>
      </trkpt>
      <trkpt lat="45.07516" lon="6.05213">
        <ele>1284</ele>
        <time>2018-11-25T17:28:14Z</time>
      </trkpt>
      <trkpt lat="45.07511" lon="6.05216">
        <ele>1285</ele>
        <time>2018-11-25T17:28:16Z</time>
      </trkpt>
      <trkpt lat="45.07506" lon="6.05218">
        <ele>1285</ele>
        <time>2018-11-25T17:28:18Z</time>
      </trkpt>
      <trkpt lat="45.07502" lon="6.05219">
        <ele>1286</ele>
        <time>2018-11-25T17:28:20Z</time>
      </trkpt>
      <trkpt lat="45.07497" lon="6.0522">
        <ele>1286</ele>
        <time>2018-11-25T17:28:22Z</time>
      </trkpt>
      <trkpt lat="45.07492" lon="6.05221">
        <ele>1287</ele>
        <time>2018-11-25T17:28:24Z</time>
      </trkpt>
      <trkpt lat="45.07487" lon="6.05223">
        <ele>1287</ele>
        <time>2018-11-25T17:28:26Z</time>
      </trkpt>
      <trkpt lat="45.07482" lon="6.05225">
        <ele>1288</ele>
        <time>2018-11-25T17:28:28Z</time>
      </trkpt>
      <trkpt lat="45.07478" lon="6.05229">
        <ele>1289</ele>
        <time>2018-11-25T17:28:30Z</time>
      </trkpt>
      <trkpt lat="45.07476" lon="6.05235">
        <ele>1289</ele>
        <time>2018-11-25T17:28:32Z</time>
      </trkpt>
      <trkpt lat="45.07475" lon="6.05242">
        <ele>1290</ele>
        <time>2018-11-25T17:28:34Z</time>
      </trkpt>
      <trkpt lat="45.07477" lon="6.05249">
        <ele>1290</ele>
        <time>2018-11-25T17:28:36Z</time>
      </trkpt>
      <trkpt lat="45.07481" lon="6.05253">
        <ele>1291</ele>
        <time>2018-11-25T17:28:38Z</time>
      </trkpt>
      <trkpt lat="45.07487" lon="6.05254">
        <ele>1291</ele>
        <time>2018-11-25T17:28:40Z</time>
      </trkpt>
      <trkpt lat="45.07493" lon="6.05251">
        <ele>1292</ele>
        <time>2018-11-25T17:28:42Z</time>
      </trkpt>
      <trkpt lat="45.07498" lon="6.05247">
        <ele>1293</ele>
        <time>2018-11-25T17:28:44Z</time>
      </trkpt>
      <trkpt lat="45.07503" lon="6.05242">
        <ele>1293</ele>
        <time>2018-11-25T17:28:46Z</time>
      </trkpt>
      <trkpt lat="45.07508" lon="6.05237">
        <ele>1294</ele>
        <time>2018-11-25T17:28:48Z</time>
      </trkpt>
      <trkpt lat="45.07513" lon="6.05233">
        <ele>1294</ele>
        <time>2018-11-25T17:28:50Z</time>
      </trkpt>
      <trkpt lat="45.07519" lon="6.0523">
        <ele>1295</ele>
        <time>2018-11-25T17:28:52Z</time>
      </trkpt>
      <trkpt lat="45.07525" lon="6.05228">
        <ele>1296</ele>
        <time>2018-11-25T17:28:54Z</time>
      </trkpt>
      <trkpt lat="45.07529" lon="6.05226">
        <ele>1296</ele>
        <time>2018-11-25T17:28:56Z</time>
      </trkpt>
      <trkpt lat="45.07535" lon="6.05224">
        <ele>1297</ele>
        <time>2018-11-25T17:28:58Z</time>
      </trkpt>
      <trkpt lat="45.0754" lon="6.05221">
        <ele>1297</ele>
        <time>2018-11-25T17:29:00Z</time>
      </trkpt>
      <trkpt lat="45.07546" lon="6.05219">
        <ele>1298</ele>
        <time>2018-11-25T17:29:02Z</time>
      </trkpt>
      <trkpt lat="45.07552" lon="6.05217">
        <ele>1298</ele>
        <time>2018-11-25T17:29:04Z</time>
      </trkpt>
      <trkpt lat="45.07557" lon="6.05214">
        <ele>1299</ele>
        <time>2018-11-25T17:29:06Z</time>
      </trkpt>
      <trkpt lat="45.07563" lon="6.05211">
        <ele>1299</ele>
        <time>2018-11-25T17:29:08Z</time>
      </trkpt>
      <trkpt lat="45.07569" lon="6.05209">
        <ele>1300</ele>
        <time>2018-11-25T17:29:10Z</time>
      </trkpt>
      <trkpt lat="45.07573" lon="6.05207">
        <ele>1300</ele>
        <time>2018-11-25T17:29:12Z</time>
      </trkpt>
      <trkpt lat="45.07578" lon="6.05205">
        <ele>1301</ele>
        <time>2018-11-25T17:29:14Z</time>
      </trkpt>
      <trkpt lat="45.07584" lon="6.05203">
        <ele>1302</ele>
        <time>2018-11-25T17:29:16Z</time>
      </trkpt>
      <trkpt lat="45.07589" lon="6.05202">
        <ele>1302</ele>
        <time>2018-11-25T17:29:18Z</time>
      </trkpt>
      <trkpt lat="45.07592" lon="6.05201">
        <ele>1303</ele>
        <time>2018-11-25T17:29:20Z</time>
      </trkpt>
      <trkpt lat="45.07598" lon="6.05199">
        <ele>1303</ele>
        <time>2018-11-25T17:29:22Z</time>
      </trkpt>
      <trkpt lat="45.07603" lon="6.05198">
        <ele>1304</ele>
        <time>2018-11-25T17:29:24Z</time>
      </trkpt>
      <trkpt lat="45.07606" lon="6.05198">
        <ele>1304</ele>
        <time>2018-11-25T17:29:26Z</time>
      </trkpt>
      <trkpt lat="45.07611" lon="6.05196">
        <ele>1305</ele>
        <time>2018-11-25T17:29:28Z</time>
      </trkpt>
      <trkpt lat="45.07617" lon="6.05195">
        <ele>1306</ele>
        <time>2018-11-25T17:29:30Z</time>
      </trkpt>
      <trkpt lat="45.0762" lon="6.05194">
        <ele>1306</ele>
        <time>2018-11-25T17:29:32Z</time>
      </trkpt>
      <trkpt lat="45.07625" lon="6.05193">
        <ele>1307</ele>
        <time>2018-11-25T17:29:34Z</time>
      </trkpt>
      <trkpt lat="45.07631" lon="6.05192">
        <ele>1308</ele>
        <time>2018-11-25T17:29:36Z</time>
      </trkpt>
      <trkpt lat="45.07634" lon="6.0519">
        <ele>1308</ele>
        <time>2018-11-25T17:29:38Z</time>
      </trkpt>
      <trkpt lat="45.07639" lon="6.05189">
        <ele>1309</ele>
        <time>2018-11-25T17:29:40Z</time>
      </trkpt>
      <trkpt lat="45.07644" lon="6.05187">
        <ele>1309</ele>
        <time>2018-11-25T17:29:42Z</time>
      </trkpt>
      <trkpt lat="45.07647" lon="6.05186">
        <ele>1310</ele>
        <time>2018-11-25T17:29:44Z</time>
      </trkpt>
      <trkpt lat="45.07652" lon="6.05183">
        <ele>1310</ele>
        <time>2018-11-25T17:29:46Z</time>
      </trkpt>
      <trkpt lat="45.07657" lon="6.05181">
        <ele>1311</ele>
        <time>2018-11-25T17:29:48Z</time>
      </trkpt>
      <trkpt lat="45.07663" lon="6.05179">
        <ele>1312</ele>
        <time>2018-11-25T17:29:50Z</time>
      </trkpt>
      <trkpt lat="45.07666" lon="6.05177">
        <ele>1312</ele>
        <time>2018-11-25T17:29:52Z</time>
      </trkpt>
      <trkpt lat="45.07671" lon="6.05175">
        <ele>1313</ele>
        <time>2018-11-25T17:29:54Z</time>
      </trkpt>
      <trkpt lat="45.07675" lon="6.05171">
        <ele>1313</ele>
        <time>2018-11-25T17:29:56Z</time>
      </trkpt>
      <trkpt lat="45.07678" lon="6.05169">
        <ele>1314</ele>
        <time>2018-11-25T17:29:58Z</time>
      </trkpt>
      <trkpt lat="45.07683" lon="6.05165">
        <ele>1315</ele>
        <time>2018-11-25T17:30:00Z</time>
      </trkpt>
      <trkpt lat="45.07687" lon="6.0516">
        <ele>1315</ele>
        <time>2018-11-25T17:30:02Z</time>
      </trkpt>
      <trkpt lat="45.07691" lon="6.05155">
        <ele>1316</ele>
        <time>2018-11-25T17:30:04Z</time>
      </trkpt>
      <trkpt lat="45.07693" lon="6.05152">
        <ele>1316</ele>
        <time>2018-11-25T17:30:06Z</time>
      </trkpt>
      <trkpt lat="45.07697" lon="6.05146">
        <ele>1317</ele>
        <time>2018-11-25T17:30:08Z</time>
      </trkpt>
      <trkpt lat="45.077" lon="6.05141">
        <ele>1317</ele>
        <time>2018-11-25T17:30:10Z</time>
      </trkpt>
      <trkpt lat="45.07702" lon="6.05137">
        <ele>1318</ele>
        <time>2018-11-25T17:30:12Z</time>
      </trkpt>
      <trkpt lat="45.07706" lon="6.05132">
        <ele>1319</ele>
        <time>2018-11-25T17:30:14Z</time>
      </trkpt>
      <trkpt lat="45.0771" lon="6.05126">
        <ele>1319</ele>
        <time>2018-11-25T17:30:16Z</time>
      </trkpt>
      <trkpt lat="45.07712" lon="6.05122">
        <ele>1320</ele>
        <time>2018-11-25T17:30:18Z</time>
      </trkpt>
      <trkpt lat="45.07715" lon="6.05116">
        <ele>1320</ele>
        <time>2018-11-25T17:30:20Z</time>
      </trkpt>
      <trkpt lat="45.07718" lon="6.0511">
        <ele>1321</ele>
        <time>2018-11-25T17:30:22Z</time>
      </trkpt>
      <trkpt lat="45.0772" lon="6.05106">
        <ele>1321</ele>
        <time>2018-11-25T17:30:24Z</time>
      </trkpt>
      <trkpt lat="45.07723" lon="6.051">
        <ele>1322</ele>
        <time>2018-11-25T17:30:26Z</time>
      </trkpt>
      <trkpt lat="45.07726" lon="6.05094">
        <ele>1323</ele>
        <time>2018-11-25T17:30:28Z</time>
      </trkpt>
      <trkpt lat="45.0773" lon="6.05088">
        <ele>1323</ele>
        <time>2018-11-25T17:30:30Z</time>
      </trkpt>
      <trkpt lat="45.07732" lon="6.05084">
        <ele>1324</ele>
        <time>2018-11-25T17:30:32Z</time>
      </trkpt>
      <trkpt lat="45.07735" lon="6.05078">
        <ele>1324</ele>
        <time>2018-11-25T17:30:34Z</time>
      </trkpt>
      <trkpt lat="45.07737" lon="6.05075">
        <ele>1325</ele>
        <time>2018-11-25T17:30:36Z</time>
      </trkpt>
      <trkpt lat="45.07741" lon="6.05069">
        <ele>1325</ele>
        <time>2018-11-25T17:30:38Z</time>
      </trkpt>
      <trkpt lat="45.07744" lon="6.05063">
        <ele>1326</ele>
        <time>2018-11-25T17:30:40Z</time>
      </trkpt>
      <trkpt lat="45.07748" lon="6.05057">
        <ele>1327</ele>
        <time>2018-11-25T17:30:42Z</time>
      </trkpt>
      <trkpt lat="45.0775" lon="6.05054">
        <ele>1327</ele>
        <time>2018-11-25T17:30:44Z</time>
      </trkpt>
      <trkpt lat="45.07754" lon="6.05048">
        <ele>1328</ele>
        <time>2018-11-25T17:30:46Z</time>
      </trkpt>
      <trkpt lat="45.07758" lon="6.05042">
        <ele>1328</ele>
        <time>2018-11-25T17:30:48Z</time>
      </trkpt>
      <trkpt lat="45.0776" lon="6.05039">
        <ele>1329</ele>
        <time>2018-11-25T17:30:50Z</time>
      </trkpt>
      <trkpt lat="45.07764" lon="6.05033">
        <ele>1329</ele>
        <time>2018-11-25T17:30:52Z</time>
      </trkpt>
      <trkpt lat="45.07767" lon="6.05027">
        <ele>1330</ele>
        <time>2018-11-25T17:30:54Z</time>
      </trkpt>
      <trkpt lat="45.07769" lon="6.05023">
        <ele>1330</ele>
        <time>2018-11-25T17:30:56Z</time>
      </trkpt>
      <trkpt lat="45.07773" lon="6.05017">
        <ele>1331</ele>
        <time>2018-11-25T17:30:58Z</time>
      </trkpt>
      <trkpt lat="45.07776" lon="6.05011">
        <ele>1332</ele>
        <time>2018-11-25T17:31:00Z</time>
      </trkpt>
      <trkpt lat="45.0778" lon="6.05005">
        <ele>1332</ele>
        <time>2018-11-25T17:31:02Z</time>
      </trkpt>
      <trkpt lat="45.07784" lon="6.05">
        <ele>1333</ele>
        <time>2018-11-25T17:31:04Z</time>
      </trkpt>
      <trkpt lat="45.07787" lon="6.04994">
        <ele>1334</ele>
        <time>2018-11-25T17:31:06Z</time>
      </trkpt>
      <trkpt lat="45.07791" lon="6.04988">
        <ele>1334</ele>
        <time>2018-11-25T17:31:08Z</time>
      </trkpt>
      <trkpt lat="45.07793" lon="6.04983">
        <ele>1335</ele>
        <time>2018-11-25T17:31:10Z</time>
      </trkpt>
      <trkpt lat="45.07797" lon="6.04977">
        <ele>1335</ele>
        <time>2018-11-25T17:31:12Z</time>
      </trkpt>
      <trkpt lat="45.07801" lon="6.04971">
        <ele>1336</ele>
        <time>2018-11-25T17:31:14Z</time>
      </trkpt>
      <trkpt lat="45.07804" lon="6.04964">
        <ele>1336</ele>
        <time>2018-11-25T17:31:16Z</time>
      </trkpt>
      <trkpt lat="45.07807" lon="6.04957">
        <ele>1337</ele>
        <time>2018-11-25T17:31:18Z</time>
      </trkpt>
      <trkpt lat="45.07808" lon="6.0495">
        <ele>1337</ele>
        <time>2018-11-25T17:31:20Z</time>
      </trkpt>
      <trkpt lat="45.07806" lon="6.04945">
        <ele>1338</ele>
        <time>2018-11-25T17:31:22Z</time>
      </trkpt>
      <trkpt lat="45.07803" lon="6.04937">
        <ele>1339</ele>
        <time>2018-11-25T17:31:24Z</time>
      </trkpt>
      <trkpt lat="45.07801" lon="6.04933">
        <ele>1339</ele>
        <time>2018-11-25T17:31:26Z</time>
      </trkpt>
      <trkpt lat="45.07797" lon="6.04923">
        <ele>1340</ele>
        <time>2018-11-25T17:31:28Z</time>
      </trkpt>
      <trkpt lat="45.07794" lon="6.04915">
        <ele>1340</ele>
        <time>2018-11-25T17:31:30Z</time>
      </trkpt>
      <trkpt lat="45.07793" lon="6.0491">
        <ele>1341</ele>
        <time>2018-11-25T17:31:32Z</time>
      </trkpt>
      <trkpt lat="45.07791" lon="6.04901">
        <ele>1341</ele>
        <time>2018-11-25T17:31:34Z</time>
      </trkpt>
      <trkpt lat="45.0779" lon="6.04893">
        <ele>1342</ele>
        <time>2018-11-25T17:31:36Z</time>
      </trkpt>
      <trkpt lat="45.07789" lon="6.04884">
        <ele>1343</ele>
        <time>2018-11-25T17:31:38Z</time>
      </trkpt>
      <trkpt lat="45.07789" lon="6.04878">
        <ele>1343</ele>
        <time>2018-11-25T17:31:40Z</time>
      </trkpt>
      <trkpt lat="45.0779" lon="6.0487">
        <ele>1344</ele>
        <time>2018-11-25T17:31:42Z</time>
      </trkpt>
      <trkpt lat="45.0779" lon="6.04862">
        <ele>1344</ele>
        <time>2018-11-25T17:31:44Z</time>
      </trkpt>
      <trkpt lat="45.07789" lon="6.04853">
        <ele>1345</ele>
        <time>2018-11-25T17:31:46Z</time>
      </trkpt>
      <trkpt lat="45.07789" lon="6.04845">
        <ele>1346</ele>
        <time>2018-11-25T17:31:48Z</time>
      </trkpt>
      <trkpt lat="45.07788" lon="6.04837">
        <ele>1346</ele>
        <time>2018-11-25T17:31:50Z</time>
      </trkpt>
      <trkpt lat="45.07787" lon="6.04831">
        <ele>1347</ele>
        <time>2018-11-25T17:31:52Z</time>
      </trkpt>
      <trkpt lat="45.07786" lon="6.04823">
        <ele>1347</ele>
        <time>2018-11-25T17:31:54Z</time>
      </trkpt>
      <trkpt lat="45.07784" lon="6.04815">
        <ele>1348</ele>
        <time>2018-11-25T17:31:56Z</time>
      </trkpt>
      <trkpt lat="45.07781" lon="6.04808">
        <ele>1348</ele>
        <time>2018-11-25T17:31:58Z</time>
      </trkpt>
      <trkpt lat="45.07779" lon="6.04803">
        <ele>1349</ele>
        <time>2018-11-25T17:32:00Z</time>
      </trkpt>
      <trkpt lat="45.07777" lon="6.04795">
        <ele>1349</ele>
        <time>2018-11-25T17:32:02Z</time>
      </trkpt>
      <trkpt lat="45.07778" lon="6.04785">
        <ele>1350</ele>
        <time>2018-11-25T17:32:04Z</time>
      </trkpt>
      <trkpt lat="45.07784" lon="6.04782">
        <ele>1351</ele>
        <time>2018-11-25T17:32:06Z</time>
      </trkpt>
      <trkpt lat="45.07789" lon="6.04784">
        <ele>1351</ele>
        <time>2018-11-25T17:32:08Z</time>
      </trkpt>
      <trkpt lat="45.07794" lon="6.04789">
        <ele>1352</ele>
        <time>2018-11-25T17:32:10Z</time>
      </trkpt>
      <trkpt lat="45.07798" lon="6.04796">
        <ele>1352</ele>
        <time>2018-11-25T17:32:12Z</time>
      </trkpt>
      <trkpt lat="45.078" lon="6.04805">
        <ele>1353</ele>
        <time>2018-11-25T17:32:14Z</time>
      </trkpt>
      <trkpt lat="45.07801" lon="6.04814">
        <ele>1353</ele>
        <time>2018-11-25T17:32:16Z</time>
      </trkpt>
      <trkpt lat="45.07803" lon="6.04823">
        <ele>1354</ele>
        <time>2018-11-25T17:32:18Z</time>
      </trkpt>
      <trkpt lat="45.07805" lon="6.04832">
        <ele>1354</ele>
        <time>2018-11-25T17:32:20Z</time>
      </trkpt>
      <trkpt lat="45.07807" lon="6.04841">
        <ele>1355</ele>
        <time>2018-11-25T17:32:22Z</time>
      </trkpt>
      <trkpt lat="45.0781" lon="6.0485">
        <ele>1356</ele>
        <time>2018-11-25T17:32:24Z</time>
      </trkpt>
      <trkpt lat="45.07813" lon="6.04859">
        <ele>1356</ele>
        <time>2018-11-25T17:32:26Z</time>
      </trkpt>
      <trkpt lat="45.07816" lon="6.04867">
        <ele>1357</ele>
        <time>2018-11-25T17:32:28Z</time>
      </trkpt>
      <trkpt lat="45.07819" lon="6.04874">
        <ele>1358</ele>
        <time>2018-11-25T17:32:30Z</time>
      </trkpt>
      <trkpt lat="45.07822" lon="6.04879">
        <ele>1358</ele>
        <time>2018-11-25T17:32:32Z</time>
      </trkpt>
      <trkpt lat="45.07823" lon="6.04883">
        <ele>1359</ele>
        <time>2018-11-25T17:32:34Z</time>
      </trkpt>
      <trkpt lat="45.07826" lon="6.04889">
        <ele>1359</ele>
        <time>2018-11-25T17:32:36Z</time>
      </trkpt>
      <trkpt lat="45.07829" lon="6.04895">
        <ele>1360</ele>
        <time>2018-11-25T17:32:38Z</time>
      </trkpt>
      <trkpt lat="45.07831" lon="6.04898">
        <ele>1360</ele>
        <time>2018-11-25T17:32:40Z</time>
      </trkpt>
      <trkpt lat="45.07834" lon="6.04904">
        <ele>1361</ele>
        <time>2018-11-25T17:32:42Z</time>
      </trkpt>
      <trkpt lat="45.07836" lon="6.0491">
        <ele>1362</ele>
        <time>2018-11-25T17:32:44Z</time>
      </trkpt>
      <trkpt lat="45.07839" lon="6.04917">
        <ele>1362</ele>
        <time>2018-11-25T17:32:46Z</time>
      </trkpt>
      <trkpt lat="45.07841" lon="6.04926">
        <ele>1363</ele>
        <time>2018-11-25T17:32:48Z</time>
      </trkpt>
      <trkpt lat="45.07841" lon="6.04935">
        <ele>1364</ele>
        <time>2018-11-25T17:32:50Z</time>
      </trkpt>
      <trkpt lat="45.07841" lon="6.04943">
        <ele>1365</ele>
        <time>2018-11-25T17:32:52Z</time>
      </trkpt>
      <trkpt lat="45.07841" lon="6.04951">
        <ele>1366</ele>
        <time>2018-11-25T17:32:54Z</time>
      </trkpt>
      <trkpt lat="45.07841" lon="6.04957">
        <ele>1366</ele>
        <time>2018-11-25T17:32:56Z</time>
      </trkpt>
      <trkpt lat="45.07841" lon="6.04965">
        <ele>1367</ele>
        <time>2018-11-25T17:32:58Z</time>
      </trkpt>
      <trkpt lat="45.07841" lon="6.04972">
        <ele>1368</ele>
        <time>2018-11-25T17:33:00Z</time>
      </trkpt>
      <trkpt lat="45.0784" lon="6.04977">
        <ele>1368</ele>
        <time>2018-11-25T17:33:02Z</time>
      </trkpt>
      <trkpt lat="45.0784" lon="6.04985">
        <ele>1369</ele>
        <time>2018-11-25T17:33:04Z</time>
      </trkpt>
      <trkpt lat="45.07839" lon="6.04993">
        <ele>1370</ele>
        <time>2018-11-25T17:33:06Z</time>
      </trkpt>
      <trkpt lat="45.07838" lon="6.05001">
        <ele>1371</ele>
        <time>2018-11-25T17:33:08Z</time>
      </trkpt>
      <trkpt lat="45.07837" lon="6.05009">
        <ele>1371</ele>
        <time>2018-11-25T17:33:10Z</time>
      </trkpt>
      <trkpt lat="45.07836" lon="6.05016">
        <ele>1372</ele>
        <time>2018-11-25T17:33:12Z</time>
      </trkpt>
      <trkpt lat="45.07834" lon="6.05024">
        <ele>1373</ele>
        <time>2018-11-25T17:33:14Z</time>
      </trkpt>
      <trkpt lat="45.07832" lon="6.05029">
        <ele>1373</ele>
        <time>2018-11-25T17:33:16Z</time>
      </trkpt>
      <trkpt lat="45.0783" lon="6.05036">
        <ele>1374</ele>
        <time>2018-11-25T17:33:18Z</time>
      </trkpt>
      <trkpt lat="45.07828" lon="6.05043">
        <ele>1375</ele>
        <time>2018-11-25T17:33:20Z</time>
      </trkpt>
      <trkpt lat="45.07826" lon="6.0505">
        <ele>1376</ele>
        <time>2018-11-25T17:33:22Z</time>
      </trkpt>
      <trkpt lat="45.07824" lon="6.05057">
        <ele>1376</ele>
        <time>2018-11-25T17:33:24Z</time>
      </trkpt>
      <trkpt lat="45.07821" lon="6.05064">
        <ele>1377</ele>
        <time>2018-11-25T17:33:26Z</time>
      </trkpt>
      <trkpt lat="45.07819" lon="6.05071">
        <ele>1378</ele>
        <time>2018-11-25T17:33:28Z</time>
      </trkpt>
      <trkpt lat="45.07816" lon="6.05077">
        <ele>1379</ele>
        <time>2018-11-25T17:33:30Z</time>
      </trkpt>
      <trkpt lat="45.07814" lon="6.05084">
        <ele>1379</ele>
        <time>2018-11-25T17:33:32Z</time>
      </trkpt>
      <trkpt lat="45.07812" lon="6.05088">
        <ele>1380</ele>
        <time>2018-11-25T17:33:34Z</time>
      </trkpt>
      <trkpt lat="45.0781" lon="6.05095">
        <ele>1380</ele>
        <time>2018-11-25T17:33:36Z</time>
      </trkpt>
      <trkpt lat="45.07808" lon="6.05102">
        <ele>1381</ele>
        <time>2018-11-25T17:33:38Z</time>
      </trkpt>
      <trkpt lat="45.07805" lon="6.05109">
        <ele>1382</ele>
        <time>2018-11-25T17:33:40Z</time>
      </trkpt>
      <trkpt lat="45.07803" lon="6.05115">
        <ele>1382</ele>
        <time>2018-11-25T17:33:42Z</time>
      </trkpt>
      <trkpt lat="45.07801" lon="6.05122">
        <ele>1383</ele>
        <time>2018-11-25T17:33:44Z</time>
      </trkpt>
      <trkpt lat="45.07799" lon="6.05129">
        <ele>1384</ele>
        <time>2018-11-25T17:33:46Z</time>
      </trkpt>
      <trkpt lat="45.07796" lon="6.05136">
        <ele>1384</ele>
        <time>2018-11-25T17:33:48Z</time>
      </trkpt>
      <trkpt lat="45.07794" lon="6.05143">
        <ele>1385</ele>
        <time>2018-11-25T17:33:50Z</time>
      </trkpt>
      <trkpt lat="45.07791" lon="6.05149">
        <ele>1385</ele>
        <time>2018-11-25T17:33:52Z</time>
      </trkpt>
      <trkpt lat="45.07789" lon="6.05156">
        <ele>1386</ele>
        <time>2018-11-25T17:33:54Z</time>
      </trkpt>
      <trkpt lat="45.07787" lon="6.05163">
        <ele>1387</ele>
        <time>2018-11-25T17:33:56Z</time>
      </trkpt>
      <trkpt lat="45.07784" lon="6.05169">
        <ele>1387</ele>
        <time>2018-11-25T17:33:58Z</time>
      </trkpt>
      <trkpt lat="45.07782" lon="6.05176">
        <ele>1388</ele>
        <time>2018-11-25T17:34:00Z</time>
      </trkpt>
      <trkpt lat="45.0778" lon="6.05182">
        <ele>1388</ele>
        <time>2018-11-25T17:34:02Z</time>
      </trkpt>
      <trkpt lat="45.07778" lon="6.05187">
        <ele>1389</ele>
        <time>2018-11-25T17:34:04Z</time>
      </trkpt>
      <trkpt lat="45.07777" lon="6.05194">
        <ele>1389</ele>
        <time>2018-11-25T17:34:06Z</time>
      </trkpt>
      <trkpt lat="45.07775" lon="6.05201">
        <ele>1390</ele>
        <time>2018-11-25T17:34:08Z</time>
      </trkpt>
      <trkpt lat="45.07774" lon="6.05208">
        <ele>1390</ele>
        <time>2018-11-25T17:34:10Z</time>
      </trkpt>
      <trkpt lat="45.07772" lon="6.05216">
        <ele>1391</ele>
        <time>2018-11-25T17:34:12Z</time>
      </trkpt>
      <trkpt lat="45.0777" lon="6.05223">
        <ele>1392</ele>
        <time>2018-11-25T17:34:14Z</time>
      </trkpt>
      <trkpt lat="45.07768" lon="6.05229">
        <ele>1392</ele>
        <time>2018-11-25T17:34:16Z</time>
      </trkpt>
      <trkpt lat="45.07765" lon="6.05236">
        <ele>1393</ele>
        <time>2018-11-25T17:34:18Z</time>
      </trkpt>
      <trkpt lat="45.07762" lon="6.05243">
        <ele>1393</ele>
        <time>2018-11-25T17:34:20Z</time>
      </trkpt>
      <trkpt lat="45.07759" lon="6.05249">
        <ele>1394</ele>
        <time>2018-11-25T17:34:22Z</time>
      </trkpt>
      <trkpt lat="45.07756" lon="6.05255">
        <ele>1395</ele>
        <time>2018-11-25T17:34:24Z</time>
      </trkpt>
      <trkpt lat="45.07753" lon="6.05261">
        <ele>1395</ele>
        <time>2018-11-25T17:34:26Z</time>
      </trkpt>
      <trkpt lat="45.07749" lon="6.05267">
        <ele>1396</ele>
        <time>2018-11-25T17:34:28Z</time>
      </trkpt>
      <trkpt lat="45.07746" lon="6.05271">
        <ele>1396</ele>
        <time>2018-11-25T17:34:30Z</time>
      </trkpt>
      <trkpt lat="45.07742" lon="6.05276">
        <ele>1397</ele>
        <time>2018-11-25T17:34:32Z</time>
      </trkpt>
      <trkpt lat="45.07738" lon="6.05282">
        <ele>1397</ele>
        <time>2018-11-25T17:34:34Z</time>
      </trkpt>
      <trkpt lat="45.07734" lon="6.05287">
        <ele>1398</ele>
        <time>2018-11-25T17:34:36Z</time>
      </trkpt>
      <trkpt lat="45.0773" lon="6.05292">
        <ele>1399</ele>
        <time>2018-11-25T17:34:38Z</time>
      </trkpt>
      <trkpt lat="45.07725" lon="6.05297">
        <ele>1399</ele>
        <time>2018-11-25T17:34:40Z</time>
      </trkpt>
      <trkpt lat="45.07721" lon="6.05302">
        <ele>1400</ele>
        <time>2018-11-25T17:34:42Z</time>
      </trkpt>
      <trkpt lat="45.07718" lon="6.05305">
        <ele>1400</ele>
        <time>2018-11-25T17:34:44Z</time>
      </trkpt>
      <trkpt lat="45.07713" lon="6.0531">
        <ele>1401</ele>
        <time>2018-11-25T17:34:46Z</time>
      </trkpt>
      <trkpt lat="45.07709" lon="6.05316">
        <ele>1402</ele>
        <time>2018-11-25T17:34:48Z</time>
      </trkpt>
      <trkpt lat="45.07706" lon="6.05322">
        <ele>1402</ele>
        <time>2018-11-25T17:34:50Z</time>
      </trkpt>
      <trkpt lat="45.07704" lon="6.0533">
        <ele>1403</ele>
        <time>2018-11-25T17:34:52Z</time>
      </trkpt>
      <trkpt lat="45.07705" lon="6.05338">
        <ele>1403</ele>
        <time>2018-11-25T17:34:54Z</time>
      </trkpt>
      <trkpt lat="45.07707" lon="6.05345">
        <ele>1404</ele>
        <time>2018-11-25T17:34:56Z</time>
      </trkpt>
      <trkpt lat="45.07711" lon="6.05351">
        <ele>1404</ele>
        <time>2018-11-25T17:34:58Z</time>
      </trkpt>
      <trkpt lat="45.07716" lon="6.05356">
        <ele>1405</ele>
        <time>2018-11-25T17:35:00Z</time>
      </trkpt>
      <trkpt lat="45.0772" lon="6.05358">
        <ele>1405</ele>
        <time>2018-11-25T17:35:02Z</time>
      </trkpt>
      <trkpt lat="45.07726" lon="6.0536">
        <ele>1406</ele>
        <time>2018-11-25T17:35:04Z</time>
      </trkpt>
      <trkpt lat="45.07732" lon="6.05362">
        <ele>1406</ele>
        <time>2018-11-25T17:35:06Z</time>
      </trkpt>
      <trkpt lat="45.07738" lon="6.05363">
        <ele>1407</ele>
        <time>2018-11-25T17:35:08Z</time>
      </trkpt>
      <trkpt lat="45.07745" lon="6.05364">
        <ele>1407</ele>
        <time>2018-11-25T17:35:10Z</time>
      </trkpt>
      <trkpt lat="45.07751" lon="6.05365">
        <ele>1408</ele>
        <time>2018-11-25T17:35:12Z</time>
      </trkpt>
      <trkpt lat="45.07759" lon="6.05368">
        <ele>1409</ele>
        <time>2018-11-25T17:35:14Z</time>
      </trkpt>
      <trkpt lat="45.07765" lon="6.05371">
        <ele>1409</ele>
        <time>2018-11-25T17:35:16Z</time>
      </trkpt>
      <trkpt lat="45.0777" lon="6.05374">
        <ele>1410</ele>
        <time>2018-11-25T17:35:18Z</time>
      </trkpt>
      <trkpt lat="45.07776" lon="6.05378">
        <ele>1410</ele>
        <time>2018-11-25T17:35:20Z</time>
      </trkpt>
      <trkpt lat="45.07781" lon="6.05383">
        <ele>1411</ele>
        <time>2018-11-25T17:35:22Z</time>
      </trkpt>
      <trkpt lat="45.07786" lon="6.05387">
        <ele>1411</ele>
        <time>2018-11-25T17:35:24Z</time>
      </trkpt>
      <trkpt lat="45.07792" lon="6.05391">
        <ele>1412</ele>
        <time>2018-11-25T17:35:26Z</time>
      </trkpt>
      <trkpt lat="45.07798" lon="6.05397">
        <ele>1413</ele>
        <time>2018-11-25T17:35:29Z</time>
      </trkpt>
      <trkpt lat="45.07802" lon="6.054">
        <ele>1413</ele>
        <time>2018-11-25T17:35:30Z</time>
      </trkpt>
      <trkpt lat="45.07807" lon="6.05405">
        <ele>1414</ele>
        <time>2018-11-25T17:35:32Z</time>
      </trkpt>
      <trkpt lat="45.07813" lon="6.05409">
        <ele>1414</ele>
        <time>2018-11-25T17:35:34Z</time>
      </trkpt>
      <trkpt lat="45.07819" lon="6.05413">
        <ele>1415</ele>
        <time>2018-11-25T17:35:36Z</time>
      </trkpt>
      <trkpt lat="45.07825" lon="6.05417">
        <ele>1415</ele>
        <time>2018-11-25T17:35:38Z</time>
      </trkpt>
      <trkpt lat="45.07831" lon="6.05421">
        <ele>1416</ele>
        <time>2018-11-25T17:35:40Z</time>
      </trkpt>
      <trkpt lat="45.07839" lon="6.05425">
        <ele>1417</ele>
        <time>2018-11-25T17:35:42Z</time>
      </trkpt>
      <trkpt lat="45.07845" lon="6.05429">
        <ele>1418</ele>
        <time>2018-11-25T17:35:44Z</time>
      </trkpt>
      <trkpt lat="45.07851" lon="6.05432">
        <ele>1418</ele>
        <time>2018-11-25T17:35:46Z</time>
      </trkpt>
      <trkpt lat="45.07857" lon="6.05436">
        <ele>1419</ele>
        <time>2018-11-25T17:35:48Z</time>
      </trkpt>
      <trkpt lat="45.07863" lon="6.05439">
        <ele>1419</ele>
        <time>2018-11-25T17:35:50Z</time>
      </trkpt>
      <trkpt lat="45.07869" lon="6.05442">
        <ele>1420</ele>
        <time>2018-11-25T17:35:52Z</time>
      </trkpt>
      <trkpt lat="45.07874" lon="6.05446">
        <ele>1421</ele>
        <time>2018-11-25T17:35:54Z</time>
      </trkpt>
      <trkpt lat="45.0788" lon="6.05449">
        <ele>1421</ele>
        <time>2018-11-25T17:35:56Z</time>
      </trkpt>
      <trkpt lat="45.07883" lon="6.0545">
        <ele>1422</ele>
        <time>2018-11-25T17:35:58Z</time>
      </trkpt>
      <trkpt lat="45.07887" lon="6.05452">
        <ele>1422</ele>
        <time>2018-11-25T17:36:00Z</time>
      </trkpt>
      <trkpt lat="45.07892" lon="6.05456">
        <ele>1423</ele>
        <time>2018-11-25T17:36:02Z</time>
      </trkpt>
      <trkpt lat="45.07898" lon="6.05459">
        <ele>1423</ele>
        <time>2018-11-25T17:36:04Z</time>
      </trkpt>
      <trkpt lat="45.07903" lon="6.05462">
        <ele>1424</ele>
        <time>2018-11-25T17:36:06Z</time>
      </trkpt>
      <trkpt lat="45.07909" lon="6.05465">
        <ele>1424</ele>
        <time>2018-11-25T17:36:08Z</time>
      </trkpt>
      <trkpt lat="45.07915" lon="6.05468">
        <ele>1425</ele>
        <time>2018-11-25T17:36:10Z</time>
      </trkpt>
      <trkpt lat="45.07921" lon="6.05471">
        <ele>1425</ele>
        <time>2018-11-25T17:36:12Z</time>
      </trkpt>
      <trkpt lat="45.07927" lon="6.05473">
        <ele>1426</ele>
        <time>2018-11-25T17:36:14Z</time>
      </trkpt>
      <trkpt lat="45.07934" lon="6.05474">
        <ele>1426</ele>
        <time>2018-11-25T17:36:16Z</time>
      </trkpt>
      <trkpt lat="45.07942" lon="6.05474">
        <ele>1427</ele>
        <time>2018-11-25T17:36:18Z</time>
      </trkpt>
      <trkpt lat="45.07948" lon="6.05473">
        <ele>1427</ele>
        <time>2018-11-25T17:36:20Z</time>
      </trkpt>
      <trkpt lat="45.07955" lon="6.05471">
        <ele>1428</ele>
        <time>2018-11-25T17:36:22Z</time>
      </trkpt>
      <trkpt lat="45.07961" lon="6.05469">
        <ele>1428</ele>
        <time>2018-11-25T17:36:24Z</time>
      </trkpt>
      <trkpt lat="45.07968" lon="6.05468">
        <ele>1429</ele>
        <time>2018-11-25T17:36:26Z</time>
      </trkpt>
      <trkpt lat="45.07974" lon="6.05468">
        <ele>1430</ele>
        <time>2018-11-25T17:36:28Z</time>
      </trkpt>
      <trkpt lat="45.07983" lon="6.05469">
        <ele>1430</ele>
        <time>2018-11-25T17:36:30Z</time>
      </trkpt>
      <trkpt lat="45.07989" lon="6.05471">
        <ele>1431</ele>
        <time>2018-11-25T17:36:32Z</time>
      </trkpt>
      <trkpt lat="45.07996" lon="6.05473">
        <ele>1431</ele>
        <time>2018-11-25T17:36:34Z</time>
      </trkpt>
      <trkpt lat="45.08003" lon="6.05474">
        <ele>1432</ele>
        <time>2018-11-25T17:36:36Z</time>
      </trkpt>
      <trkpt lat="45.0801" lon="6.05476">
        <ele>1432</ele>
        <time>2018-11-25T17:36:38Z</time>
      </trkpt>
      <trkpt lat="45.08016" lon="6.05478">
        <ele>1433</ele>
        <time>2018-11-25T17:36:40Z</time>
      </trkpt>
      <trkpt lat="45.08024" lon="6.0548">
        <ele>1433</ele>
        <time>2018-11-25T17:36:42Z</time>
      </trkpt>
      <trkpt lat="45.08031" lon="6.05482">
        <ele>1434</ele>
        <time>2018-11-25T17:36:44Z</time>
      </trkpt>
      <trkpt lat="45.08038" lon="6.05484">
        <ele>1434</ele>
        <time>2018-11-25T17:36:46Z</time>
      </trkpt>
      <trkpt lat="45.08044" lon="6.05486">
        <ele>1435</ele>
        <time>2018-11-25T17:36:48Z</time>
      </trkpt>
      <trkpt lat="45.08051" lon="6.05488">
        <ele>1436</ele>
        <time>2018-11-25T17:36:50Z</time>
      </trkpt>
      <trkpt lat="45.08057" lon="6.05491">
        <ele>1436</ele>
        <time>2018-11-25T17:36:52Z</time>
      </trkpt>
      <trkpt lat="45.08065" lon="6.05495">
        <ele>1437</ele>
        <time>2018-11-25T17:36:54Z</time>
      </trkpt>
      <trkpt lat="45.0807" lon="6.05501">
        <ele>1437</ele>
        <time>2018-11-25T17:36:56Z</time>
      </trkpt>
      <trkpt lat="45.08074" lon="6.05509">
        <ele>1438</ele>
        <time>2018-11-25T17:36:58Z</time>
      </trkpt>
      <trkpt lat="45.08077" lon="6.05517">
        <ele>1438</ele>
        <time>2018-11-25T17:37:00Z</time>
      </trkpt>
      <trkpt lat="45.08079" lon="6.05526">
        <ele>1439</ele>
        <time>2018-11-25T17:37:02Z</time>
      </trkpt>
      <trkpt lat="45.0808" lon="6.05536">
        <ele>1439</ele>
        <time>2018-11-25T17:37:04Z</time>
      </trkpt>
      <trkpt lat="45.08078" lon="6.05544">
        <ele>1440</ele>
        <time>2018-11-25T17:37:06Z</time>
      </trkpt>
      <trkpt lat="45.08073" lon="6.05553">
        <ele>1441</ele>
        <time>2018-11-25T17:37:08Z</time>
      </trkpt>
      <trkpt lat="45.08068" lon="6.05559">
        <ele>1441</ele>
        <time>2018-11-25T17:37:10Z</time>
      </trkpt>
      <trkpt lat="45.08061" lon="6.05562">
        <ele>1442</ele>
        <time>2018-11-25T17:37:12Z</time>
      </trkpt>
      <trkpt lat="45.08055" lon="6.05564">
        <ele>1442</ele>
        <time>2018-11-25T17:37:14Z</time>
      </trkpt>
      <trkpt lat="45.08049" lon="6.05567">
        <ele>1443</ele>
        <time>2018-11-25T17:37:16Z</time>
      </trkpt>
      <trkpt lat="45.08042" lon="6.0557">
        <ele>1444</ele>
        <time>2018-11-25T17:37:18Z</time>
      </trkpt>
      <trkpt lat="45.08035" lon="6.05574">
        <ele>1444</ele>
        <time>2018-11-25T17:37:20Z</time>
      </trkpt>
      <trkpt lat="45.08029" lon="6.05578">
        <ele>1445</ele>
        <time>2018-11-25T17:37:22Z</time>
      </trkpt>
      <trkpt lat="45.08024" lon="6.05583">
        <ele>1445</ele>
        <time>2018-11-25T17:37:24Z</time>
      </trkpt>
      <trkpt lat="45.08019" lon="6.0559">
        <ele>1446</ele>
        <time>2018-11-25T17:37:26Z</time>
      </trkpt>
      <trkpt lat="45.08015" lon="6.05597">
        <ele>1447</ele>
        <time>2018-11-25T17:37:28Z</time>
      </trkpt>
      <trkpt lat="45.08013" lon="6.05606">
        <ele>1447</ele>
        <time>2018-11-25T17:37:30Z</time>
      </trkpt>
      <trkpt lat="45.0801" lon="6.05617">
        <ele>1448</ele>
        <time>2018-11-25T17:37:32Z</time>
      </trkpt>
      <trkpt lat="45.08008" lon="6.05626">
        <ele>1449</ele>
        <time>2018-11-25T17:37:34Z</time>
      </trkpt>
      <trkpt lat="45.08007" lon="6.05636">
        <ele>1450</ele>
        <time>2018-11-25T17:37:36Z</time>
      </trkpt>
      <trkpt lat="45.08006" lon="6.05645">
        <ele>1451</ele>
        <time>2018-11-25T17:37:38Z</time>
      </trkpt>
      <trkpt lat="45.08004" lon="6.05654">
        <ele>1451</ele>
        <time>2018-11-25T17:37:40Z</time>
      </trkpt>
      <trkpt lat="45.08004" lon="6.05663">
        <ele>1452</ele>
        <time>2018-11-25T17:37:42Z</time>
      </trkpt>
      <trkpt lat="45.08004" lon="6.05672">
        <ele>1452</ele>
        <time>2018-11-25T17:37:44Z</time>
      </trkpt>
      <trkpt lat="45.08005" lon="6.05682">
        <ele>1453</ele>
        <time>2018-11-25T17:37:46Z</time>
      </trkpt>
      <trkpt lat="45.08007" lon="6.05691">
        <ele>1454</ele>
        <time>2018-11-25T17:37:48Z</time>
      </trkpt>
      <trkpt lat="45.08009" lon="6.057">
        <ele>1454</ele>
        <time>2018-11-25T17:37:50Z</time>
      </trkpt>
      <trkpt lat="45.08012" lon="6.05709">
        <ele>1455</ele>
        <time>2018-11-25T17:37:52Z</time>
      </trkpt>
      <trkpt lat="45.08016" lon="6.05717">
        <ele>1456</ele>
        <time>2018-11-25T17:37:54Z</time>
      </trkpt>
      <trkpt lat="45.08019" lon="6.05726">
        <ele>1456</ele>
        <time>2018-11-25T17:37:56Z</time>
      </trkpt>
      <trkpt lat="45.08023" lon="6.05734">
        <ele>1457</ele>
        <time>2018-11-25T17:37:58Z</time>
      </trkpt>
      <trkpt lat="45.08026" lon="6.05742">
        <ele>1457</ele>
        <time>2018-11-25T17:38:00Z</time>
      </trkpt>
      <trkpt lat="45.08029" lon="6.0575">
        <ele>1458</ele>
        <time>2018-11-25T17:38:02Z</time>
      </trkpt>
      <trkpt lat="45.08033" lon="6.05759">
        <ele>1459</ele>
        <time>2018-11-25T17:38:04Z</time>
      </trkpt>
      <trkpt lat="45.08036" lon="6.05768">
        <ele>1459</ele>
        <time>2018-11-25T17:38:06Z</time>
      </trkpt>
      <trkpt lat="45.08038" lon="6.05773">
        <ele>1459</ele>
        <time>2018-11-25T17:38:08Z</time>
      </trkpt>
      <trkpt lat="45.08042" lon="6.05781">
        <ele>1460</ele>
        <time>2018-11-25T17:38:10Z</time>
      </trkpt>
      <trkpt lat="45.08045" lon="6.0579">
        <ele>1461</ele>
        <time>2018-11-25T17:38:12Z</time>
      </trkpt>
      <trkpt lat="45.08049" lon="6.05799">
        <ele>1461</ele>
        <time>2018-11-25T17:38:14Z</time>
      </trkpt>
      <trkpt lat="45.08052" lon="6.05808">
        <ele>1462</ele>
        <time>2018-11-25T17:38:16Z</time>
      </trkpt>
      <trkpt lat="45.08056" lon="6.05818">
        <ele>1463</ele>
        <time>2018-11-25T17:38:18Z</time>
      </trkpt>
      <trkpt lat="45.0806" lon="6.05827">
        <ele>1463</ele>
        <time>2018-11-25T17:38:20Z</time>
      </trkpt>
      <trkpt lat="45.08064" lon="6.05837">
        <ele>1464</ele>
        <time>2018-11-25T17:38:22Z</time>
      </trkpt>
      <trkpt lat="45.08067" lon="6.05846">
        <ele>1465</ele>
        <time>2018-11-25T17:38:24Z</time>
      </trkpt>
      <trkpt lat="45.08071" lon="6.05855">
        <ele>1465</ele>
        <time>2018-11-25T17:38:26Z</time>
      </trkpt>
      <trkpt lat="45.08075" lon="6.05864">
        <ele>1466</ele>
        <time>2018-11-25T17:38:28Z</time>
      </trkpt>
      <trkpt lat="45.08079" lon="6.05871">
        <ele>1466</ele>
        <time>2018-11-25T17:38:30Z</time>
      </trkpt>
      <trkpt lat="45.08082" lon="6.05876">
        <ele>1467</ele>
        <time>2018-11-25T17:38:32Z</time>
      </trkpt>
      <trkpt lat="45.08087" lon="6.05883">
        <ele>1467</ele>
        <time>2018-11-25T17:38:34Z</time>
      </trkpt>
      <trkpt lat="45.0809" lon="6.05888">
        <ele>1468</ele>
        <time>2018-11-25T17:38:36Z</time>
      </trkpt>
      <trkpt lat="45.08095" lon="6.05895">
        <ele>1469</ele>
        <time>2018-11-25T17:38:38Z</time>
      </trkpt>
      <trkpt lat="45.081" lon="6.05902">
        <ele>1469</ele>
        <time>2018-11-25T17:38:40Z</time>
      </trkpt>
      <trkpt lat="45.08105" lon="6.05909">
        <ele>1470</ele>
        <time>2018-11-25T17:38:42Z</time>
      </trkpt>
      <trkpt lat="45.08108" lon="6.05917">
        <ele>1470</ele>
        <time>2018-11-25T17:38:44Z</time>
      </trkpt>
      <trkpt lat="45.08112" lon="6.05925">
        <ele>1471</ele>
        <time>2018-11-25T17:38:46Z</time>
      </trkpt>
      <trkpt lat="45.08115" lon="6.05933">
        <ele>1472</ele>
        <time>2018-11-25T17:38:48Z</time>
      </trkpt>
      <trkpt lat="45.08118" lon="6.05942">
        <ele>1472</ele>
        <time>2018-11-25T17:38:50Z</time>
      </trkpt>
      <trkpt lat="45.08121" lon="6.05951">
        <ele>1473</ele>
        <time>2018-11-25T17:38:52Z</time>
      </trkpt>
      <trkpt lat="45.08123" lon="6.05957">
        <ele>1473</ele>
        <time>2018-11-25T17:38:54Z</time>
      </trkpt>
      <trkpt lat="45.08126" lon="6.05965">
        <ele>1474</ele>
        <time>2018-11-25T17:38:56Z</time>
      </trkpt>
      <trkpt lat="45.0813" lon="6.05974">
        <ele>1474</ele>
        <time>2018-11-25T17:38:58Z</time>
      </trkpt>
      <trkpt lat="45.08134" lon="6.05981">
        <ele>1475</ele>
        <time>2018-11-25T17:39:00Z</time>
      </trkpt>
      <trkpt lat="45.08138" lon="6.05989">
        <ele>1476</ele>
        <time>2018-11-25T17:39:02Z</time>
      </trkpt>
      <trkpt lat="45.08143" lon="6.05996">
        <ele>1476</ele>
        <time>2018-11-25T17:39:04Z</time>
      </trkpt>
      <trkpt lat="45.08147" lon="6.06003">
        <ele>1477</ele>
        <time>2018-11-25T17:39:06Z</time>
      </trkpt>
      <trkpt lat="45.08151" lon="6.06011">
        <ele>1477</ele>
        <time>2018-11-25T17:39:08Z</time>
      </trkpt>
      <trkpt lat="45.08154" lon="6.0602">
        <ele>1478</ele>
        <time>2018-11-25T17:39:10Z</time>
      </trkpt>
      <trkpt lat="45.08157" lon="6.06028">
        <ele>1479</ele>
        <time>2018-11-25T17:39:12Z</time>
      </trkpt>
      <trkpt lat="45.08159" lon="6.06037">
        <ele>1479</ele>
        <time>2018-11-25T17:39:14Z</time>
      </trkpt>
      <trkpt lat="45.08162" lon="6.06046">
        <ele>1480</ele>
        <time>2018-11-25T17:39:16Z</time>
      </trkpt>
      <trkpt lat="45.08165" lon="6.06055">
        <ele>1480</ele>
        <time>2018-11-25T17:39:18Z</time>
      </trkpt>
      <trkpt lat="45.08167" lon="6.06064">
        <ele>1481</ele>
        <time>2018-11-25T17:39:20Z</time>
      </trkpt>
      <trkpt lat="45.0817" lon="6.06071">
        <ele>1482</ele>
        <time>2018-11-25T17:39:22Z</time>
      </trkpt>
      <trkpt lat="45.08172" lon="6.06079">
        <ele>1482</ele>
        <time>2018-11-25T17:39:24Z</time>
      </trkpt>
      <trkpt lat="45.08175" lon="6.06088">
        <ele>1483</ele>
        <time>2018-11-25T17:39:26Z</time>
      </trkpt>
      <trkpt lat="45.08178" lon="6.06097">
        <ele>1483</ele>
        <time>2018-11-25T17:39:28Z</time>
      </trkpt>
      <trkpt lat="45.0818" lon="6.06103">
        <ele>1484</ele>
        <time>2018-11-25T17:39:30Z</time>
      </trkpt>
      <trkpt lat="45.08182" lon="6.06112">
        <ele>1484</ele>
        <time>2018-11-25T17:39:32Z</time>
      </trkpt>
      <trkpt lat="45.08184" lon="6.06121">
        <ele>1485</ele>
        <time>2018-11-25T17:39:34Z</time>
      </trkpt>
      <trkpt lat="45.08187" lon="6.0613">
        <ele>1486</ele>
        <time>2018-11-25T17:39:36Z</time>
      </trkpt>
      <trkpt lat="45.08189" lon="6.0614">
        <ele>1486</ele>
        <time>2018-11-25T17:39:38Z</time>
      </trkpt>
      <trkpt lat="45.08191" lon="6.06149">
        <ele>1487</ele>
        <time>2018-11-25T17:39:40Z</time>
      </trkpt>
      <trkpt lat="45.08193" lon="6.06158">
        <ele>1488</ele>
        <time>2018-11-25T17:39:42Z</time>
      </trkpt>
      <trkpt lat="45.08196" lon="6.06167">
        <ele>1488</ele>
        <time>2018-11-25T17:39:44Z</time>
      </trkpt>
      <trkpt lat="45.08198" lon="6.06176">
        <ele>1489</ele>
        <time>2018-11-25T17:39:46Z</time>
      </trkpt>
      <trkpt lat="45.08201" lon="6.06185">
        <ele>1489</ele>
        <time>2018-11-25T17:39:48Z</time>
      </trkpt>
      <trkpt lat="45.08203" lon="6.06194">
        <ele>1490</ele>
        <time>2018-11-25T17:39:50Z</time>
      </trkpt>
      <trkpt lat="45.08206" lon="6.06203">
        <ele>1491</ele>
        <time>2018-11-25T17:39:52Z</time>
      </trkpt>
      <trkpt lat="45.08209" lon="6.06211">
        <ele>1491</ele>
        <time>2018-11-25T17:39:54Z</time>
      </trkpt>
      <trkpt lat="45.08211" lon="6.0622">
        <ele>1492</ele>
        <time>2018-11-25T17:39:56Z</time>
      </trkpt>
      <trkpt lat="45.08215" lon="6.06228">
        <ele>1493</ele>
        <time>2018-11-25T17:39:58Z</time>
      </trkpt>
      <trkpt lat="45.08219" lon="6.06234">
        <ele>1493</ele>
        <time>2018-11-25T17:40:00Z</time>
      </trkpt>
      <trkpt lat="45.08225" lon="6.06238">
        <ele>1494</ele>
        <time>2018-11-25T17:40:02Z</time>
      </trkpt>
      <trkpt lat="45.08231" lon="6.06236">
        <ele>1494</ele>
        <time>2018-11-25T17:40:04Z</time>
      </trkpt>
      <trkpt lat="45.08236" lon="6.0623">
        <ele>1495</ele>
        <time>2018-11-25T17:40:06Z</time>
      </trkpt>
      <trkpt lat="45.08237" lon="6.06222">
        <ele>1495</ele>
        <time>2018-11-25T17:40:08Z</time>
      </trkpt>
      <trkpt lat="45.08236" lon="6.06214">
        <ele>1496</ele>
        <time>2018-11-25T17:40:10Z</time>
      </trkpt>
      <trkpt lat="45.08232" lon="6.06206">
        <ele>1496</ele>
        <time>2018-11-25T17:40:12Z</time>
      </trkpt>
      <trkpt lat="45.08228" lon="6.06199">
        <ele>1497</ele>
        <time>2018-11-25T17:40:14Z</time>
      </trkpt>
      <trkpt lat="45.08224" lon="6.06191">
        <ele>1497</ele>
        <time>2018-11-25T17:40:16Z</time>
      </trkpt>
      <trkpt lat="45.0822" lon="6.06183">
        <ele>1498</ele>
        <time>2018-11-25T17:40:18Z</time>
      </trkpt>
      <trkpt lat="45.08217" lon="6.06174">
        <ele>1499</ele>
        <time>2018-11-25T17:40:20Z</time>
      </trkpt>
      <trkpt lat="45.08214" lon="6.06165">
        <ele>1499</ele>
        <time>2018-11-25T17:40:22Z</time>
      </trkpt>
      <trkpt lat="45.08213" lon="6.06156">
        <ele>1500</ele>
        <time>2018-11-25T17:40:24Z</time>
      </trkpt>
      <trkpt lat="45.08212" lon="6.06146">
        <ele>1500</ele>
        <time>2018-11-25T17:40:26Z</time>
      </trkpt>
      <trkpt lat="45.08212" lon="6.0614">
        <ele>1501</ele>
        <time>2018-11-25T17:40:28Z</time>
      </trkpt>
      <trkpt lat="45.08212" lon="6.0613">
        <ele>1501</ele>
        <time>2018-11-25T17:40:30Z</time>
      </trkpt>
      <trkpt lat="45.08212" lon="6.0612">
        <ele>1502</ele>
        <time>2018-11-25T17:40:32Z</time>
      </trkpt>
      <trkpt lat="45.08213" lon="6.0611">
        <ele>1503</ele>
        <time>2018-11-25T17:40:34Z</time>
      </trkpt>
      <trkpt lat="45.08214" lon="6.06101">
        <ele>1503</ele>
        <time>2018-11-25T17:40:36Z</time>
      </trkpt>
      <trkpt lat="45.08214" lon="6.06091">
        <ele>1504</ele>
        <time>2018-11-25T17:40:38Z</time>
      </trkpt>
      <trkpt lat="45.08214" lon="6.06081">
        <ele>1504</ele>
        <time>2018-11-25T17:40:40Z</time>
      </trkpt>
      <trkpt lat="45.08215" lon="6.06075">
        <ele>1505</ele>
        <time>2018-11-25T17:40:42Z</time>
      </trkpt>
      <trkpt lat="45.08215" lon="6.06065">
        <ele>1505</ele>
        <time>2018-11-25T17:40:44Z</time>
      </trkpt>
      <trkpt lat="45.08216" lon="6.06056">
        <ele>1506</ele>
        <time>2018-11-25T17:40:46Z</time>
      </trkpt>
      <trkpt lat="45.08217" lon="6.06046">
        <ele>1507</ele>
        <time>2018-11-25T17:40:48Z</time>
      </trkpt>
      <trkpt lat="45.08218" lon="6.06036">
        <ele>1507</ele>
        <time>2018-11-25T17:40:50Z</time>
      </trkpt>
      <trkpt lat="45.08218" lon="6.06027">
        <ele>1508</ele>
        <time>2018-11-25T17:40:52Z</time>
      </trkpt>
      <trkpt lat="45.08219" lon="6.06017">
        <ele>1508</ele>
        <time>2018-11-25T17:40:54Z</time>
      </trkpt>
      <trkpt lat="45.0822" lon="6.06007">
        <ele>1509</ele>
        <time>2018-11-25T17:40:56Z</time>
      </trkpt>
      <trkpt lat="45.0822" lon="6.05998">
        <ele>1510</ele>
        <time>2018-11-25T17:40:58Z</time>
      </trkpt>
      <trkpt lat="45.08221" lon="6.05988">
        <ele>1510</ele>
        <time>2018-11-25T17:41:00Z</time>
      </trkpt>
      <trkpt lat="45.08222" lon="6.05978">
        <ele>1511</ele>
        <time>2018-11-25T17:41:02Z</time>
      </trkpt>
      <trkpt lat="45.08222" lon="6.05971">
        <ele>1511</ele>
        <time>2018-11-25T17:41:04Z</time>
      </trkpt>
      <trkpt lat="45.08223" lon="6.05961">
        <ele>1512</ele>
        <time>2018-11-25T17:41:06Z</time>
      </trkpt>
      <trkpt lat="45.08223" lon="6.05951">
        <ele>1513</ele>
        <time>2018-11-25T17:41:08Z</time>
      </trkpt>
      <trkpt lat="45.08223" lon="6.05942">
        <ele>1513</ele>
        <time>2018-11-25T17:41:10Z</time>
      </trkpt>
      <trkpt lat="45.08222" lon="6.05932">
        <ele>1514</ele>
        <time>2018-11-25T17:41:12Z</time>
      </trkpt>
      <trkpt lat="45.08222" lon="6.05922">
        <ele>1514</ele>
        <time>2018-11-25T17:41:14Z</time>
      </trkpt>
      <trkpt lat="45.08222" lon="6.05915">
        <ele>1515</ele>
        <time>2018-11-25T17:41:16Z</time>
      </trkpt>
      <trkpt lat="45.08221" lon="6.05906">
        <ele>1515</ele>
        <time>2018-11-25T17:41:18Z</time>
      </trkpt>
      <trkpt lat="45.08222" lon="6.05896">
        <ele>1516</ele>
        <time>2018-11-25T17:41:20Z</time>
      </trkpt>
      <trkpt lat="45.08222" lon="6.05886">
        <ele>1517</ele>
        <time>2018-11-25T17:41:22Z</time>
      </trkpt>
      <trkpt lat="45.08223" lon="6.05877">
        <ele>1517</ele>
        <time>2018-11-25T17:41:24Z</time>
      </trkpt>
      <trkpt lat="45.08223" lon="6.05867">
        <ele>1518</ele>
        <time>2018-11-25T17:41:26Z</time>
      </trkpt>
      <trkpt lat="45.08224" lon="6.05857">
        <ele>1518</ele>
        <time>2018-11-25T17:41:28Z</time>
      </trkpt>
      <trkpt lat="45.08224" lon="6.05847">
        <ele>1519</ele>
        <time>2018-11-25T17:41:30Z</time>
      </trkpt>
      <trkpt lat="45.08225" lon="6.0584">
        <ele>1520</ele>
        <time>2018-11-25T17:41:32Z</time>
      </trkpt>
      <trkpt lat="45.08225" lon="6.0583">
        <ele>1520</ele>
        <time>2018-11-25T17:41:34Z</time>
      </trkpt>
      <trkpt lat="45.08226" lon="6.0582">
        <ele>1521</ele>
        <time>2018-11-25T17:41:36Z</time>
      </trkpt>
      <trkpt lat="45.08228" lon="6.0581">
        <ele>1521</ele>
        <time>2018-11-25T17:41:38Z</time>
      </trkpt>
      <trkpt lat="45.08229" lon="6.058">
        <ele>1522</ele>
        <time>2018-11-25T17:41:40Z</time>
      </trkpt>
      <trkpt lat="45.08232" lon="6.05791">
        <ele>1522</ele>
        <time>2018-11-25T17:41:42Z</time>
      </trkpt>
      <trkpt lat="45.08236" lon="6.05783">
        <ele>1523</ele>
        <time>2018-11-25T17:41:44Z</time>
      </trkpt>
      <trkpt lat="45.0824" lon="6.05775">
        <ele>1523</ele>
        <time>2018-11-25T17:41:46Z</time>
      </trkpt>
      <trkpt lat="45.08246" lon="6.05769">
        <ele>1524</ele>
        <time>2018-11-25T17:41:48Z</time>
      </trkpt>
      <trkpt lat="45.08252" lon="6.05765">
        <ele>1524</ele>
        <time>2018-11-25T17:41:50Z</time>
      </trkpt>
      <trkpt lat="45.08256" lon="6.05762">
        <ele>1525</ele>
        <time>2018-11-25T17:41:52Z</time>
      </trkpt>
      <trkpt lat="45.08263" lon="6.0576">
        <ele>1525</ele>
        <time>2018-11-25T17:41:54Z</time>
      </trkpt>
      <trkpt lat="45.0827" lon="6.05758">
        <ele>1526</ele>
        <time>2018-11-25T17:41:56Z</time>
      </trkpt>
      <trkpt lat="45.08277" lon="6.05758">
        <ele>1526</ele>
        <time>2018-11-25T17:41:58Z</time>
      </trkpt>
      <trkpt lat="45.08285" lon="6.05758">
        <ele>1527</ele>
        <time>2018-11-25T17:42:00Z</time>
      </trkpt>
      <trkpt lat="45.08294" lon="6.05758">
        <ele>1528</ele>
        <time>2018-11-25T17:42:02Z</time>
      </trkpt>
      <trkpt lat="45.08302" lon="6.05758">
        <ele>1528</ele>
        <time>2018-11-25T17:42:04Z</time>
      </trkpt>
      <trkpt lat="45.08309" lon="6.05757">
        <ele>1529</ele>
        <time>2018-11-25T17:42:06Z</time>
      </trkpt>
      <trkpt lat="45.08316" lon="6.05757">
        <ele>1529</ele>
        <time>2018-11-25T17:42:08Z</time>
      </trkpt>
      <trkpt lat="45.08324" lon="6.05756">
        <ele>1530</ele>
        <time>2018-11-25T17:42:10Z</time>
      </trkpt>
      <trkpt lat="45.08331" lon="6.05755">
        <ele>1530</ele>
        <time>2018-11-25T17:42:12Z</time>
      </trkpt>
      <trkpt lat="45.08338" lon="6.05753">
        <ele>1531</ele>
        <time>2018-11-25T17:42:14Z</time>
      </trkpt>
      <trkpt lat="45.08345" lon="6.05751">
        <ele>1531</ele>
        <time>2018-11-25T17:42:16Z</time>
      </trkpt>
      <trkpt lat="45.08353" lon="6.05749">
        <ele>1532</ele>
        <time>2018-11-25T17:42:18Z</time>
      </trkpt>
      <trkpt lat="45.08359" lon="6.05749">
        <ele>1532</ele>
        <time>2018-11-25T17:42:20Z</time>
      </trkpt>
      <trkpt lat="45.08365" lon="6.05753">
        <ele>1533</ele>
        <time>2018-11-25T17:42:22Z</time>
      </trkpt>
      <trkpt lat="45.08367" lon="6.05763">
        <ele>1534</ele>
        <time>2018-11-25T17:42:24Z</time>
      </trkpt>
      <trkpt lat="45.08363" lon="6.05771">
        <ele>1534</ele>
        <time>2018-11-25T17:42:26Z</time>
      </trkpt>
      <trkpt lat="45.08357" lon="6.05776">
        <ele>1535</ele>
        <time>2018-11-25T17:42:28Z</time>
      </trkpt>
      <trkpt lat="45.08351" lon="6.0578">
        <ele>1535</ele>
        <time>2018-11-25T17:42:30Z</time>
      </trkpt>
      <trkpt lat="45.08345" lon="6.05785">
        <ele>1536</ele>
        <time>2018-11-25T17:42:32Z</time>
      </trkpt>
      <trkpt lat="45.08339" lon="6.05791">
        <ele>1536</ele>
        <time>2018-11-25T17:42:34Z</time>
      </trkpt>
      <trkpt lat="45.08334" lon="6.05799">
        <ele>1537</ele>
        <time>2018-11-25T17:42:36Z</time>
      </trkpt>
      <trkpt lat="45.08328" lon="6.05807">
        <ele>1537</ele>
        <time>2018-11-25T17:42:38Z</time>
      </trkpt>
      <trkpt lat="45.08324" lon="6.05815">
        <ele>1538</ele>
        <time>2018-11-25T17:42:40Z</time>
      </trkpt>
      <trkpt lat="45.08319" lon="6.05824">
        <ele>1538</ele>
        <time>2018-11-25T17:42:42Z</time>
      </trkpt>
      <trkpt lat="45.08315" lon="6.05833">
        <ele>1539</ele>
        <time>2018-11-25T17:42:44Z</time>
      </trkpt>
      <trkpt lat="45.08312" lon="6.05842">
        <ele>1539</ele>
        <time>2018-11-25T17:42:46Z</time>
      </trkpt>
      <trkpt lat="45.08308" lon="6.05852">
        <ele>1540</ele>
        <time>2018-11-25T17:42:48Z</time>
      </trkpt>
      <trkpt lat="45.08306" lon="6.05861">
        <ele>1541</ele>
        <time>2018-11-25T17:42:50Z</time>
      </trkpt>
      <trkpt lat="45.08304" lon="6.05871">
        <ele>1541</ele>
        <time>2018-11-25T17:42:52Z</time>
      </trkpt>
      <trkpt lat="45.08302" lon="6.05881">
        <ele>1542</ele>
        <time>2018-11-25T17:42:54Z</time>
      </trkpt>
      <trkpt lat="45.08301" lon="6.05891">
        <ele>1543</ele>
        <time>2018-11-25T17:42:56Z</time>
      </trkpt>
      <trkpt lat="45.08301" lon="6.05902">
        <ele>1543</ele>
        <time>2018-11-25T17:42:58Z</time>
      </trkpt>
      <trkpt lat="45.083" lon="6.05913">
        <ele>1544</ele>
        <time>2018-11-25T17:43:00Z</time>
      </trkpt>
      <trkpt lat="45.083" lon="6.05926">
        <ele>1545</ele>
        <time>2018-11-25T17:43:02Z</time>
      </trkpt>
      <trkpt lat="45.08301" lon="6.05937">
        <ele>1546</ele>
        <time>2018-11-25T17:43:04Z</time>
      </trkpt>
      <trkpt lat="45.08301" lon="6.05947">
        <ele>1546</ele>
        <time>2018-11-25T17:43:06Z</time>
      </trkpt>
      <trkpt lat="45.08302" lon="6.05958">
        <ele>1547</ele>
        <time>2018-11-25T17:43:08Z</time>
      </trkpt>
      <trkpt lat="45.08303" lon="6.05968">
        <ele>1548</ele>
        <time>2018-11-25T17:43:10Z</time>
      </trkpt>
      <trkpt lat="45.08304" lon="6.05979">
        <ele>1549</ele>
        <time>2018-11-25T17:43:12Z</time>
      </trkpt>
      <trkpt lat="45.08305" lon="6.0599">
        <ele>1549</ele>
        <time>2018-11-25T17:43:14Z</time>
      </trkpt>
      <trkpt lat="45.08306" lon="6.06001">
        <ele>1550</ele>
        <time>2018-11-25T17:43:16Z</time>
      </trkpt>
      <trkpt lat="45.08307" lon="6.06012">
        <ele>1551</ele>
        <time>2018-11-25T17:43:18Z</time>
      </trkpt>
      <trkpt lat="45.08309" lon="6.06026">
        <ele>1552</ele>
        <time>2018-11-25T17:43:20Z</time>
      </trkpt>
      <trkpt lat="45.08311" lon="6.06038">
        <ele>1553</ele>
        <time>2018-11-25T17:43:22Z</time>
      </trkpt>
      <trkpt lat="45.08313" lon="6.06048">
        <ele>1554</ele>
        <time>2018-11-25T17:43:24Z</time>
      </trkpt>
      <trkpt lat="45.08315" lon="6.06057">
        <ele>1555</ele>
        <time>2018-11-25T17:43:26Z</time>
      </trkpt>
      <trkpt lat="45.08317" lon="6.06067">
        <ele>1555</ele>
        <time>2018-11-25T17:43:28Z</time>
      </trkpt>
      <trkpt lat="45.08319" lon="6.06074">
        <ele>1556</ele>
        <time>2018-11-25T17:43:30Z</time>
      </trkpt>
      <trkpt lat="45.08321" lon="6.06082">
        <ele>1557</ele>
        <time>2018-11-25T17:43:32Z</time>
      </trkpt>
      <trkpt lat="45.08322" lon="6.06088">
        <ele>1557</ele>
        <time>2018-11-25T17:43:34Z</time>
      </trkpt>
      <trkpt lat="45.08324" lon="6.06097">
        <ele>1558</ele>
        <time>2018-11-25T17:43:36Z</time>
      </trkpt>
      <trkpt lat="45.08326" lon="6.06106">
        <ele>1558</ele>
        <time>2018-11-25T17:43:38Z</time>
      </trkpt>
      <trkpt lat="45.08328" lon="6.06114">
        <ele>1559</ele>
        <time>2018-11-25T17:43:40Z</time>
      </trkpt>
      <trkpt lat="45.08329" lon="6.06123">
        <ele>1560</ele>
        <time>2018-11-25T17:43:42Z</time>
      </trkpt>
      <trkpt lat="45.08331" lon="6.06131">
        <ele>1560</ele>
        <time>2018-11-25T17:43:44Z</time>
      </trkpt>
      <trkpt lat="45.08333" lon="6.0614">
        <ele>1561</ele>
        <time>2018-11-25T17:43:46Z</time>
      </trkpt>
      <trkpt lat="45.08334" lon="6.06145">
        <ele>1562</ele>
        <time>2018-11-25T17:43:48Z</time>
      </trkpt>
      <trkpt lat="45.08336" lon="6.06154">
        <ele>1562</ele>
        <time>2018-11-25T17:43:50Z</time>
      </trkpt>
      <trkpt lat="45.08338" lon="6.06163">
        <ele>1563</ele>
        <time>2018-11-25T17:43:52Z</time>
      </trkpt>
      <trkpt lat="45.0834" lon="6.0617">
        <ele>1564</ele>
        <time>2018-11-25T17:43:54Z</time>
      </trkpt>
      <trkpt lat="45.08341" lon="6.06178">
        <ele>1564</ele>
        <time>2018-11-25T17:43:56Z</time>
      </trkpt>
      <trkpt lat="45.08343" lon="6.06186">
        <ele>1565</ele>
        <time>2018-11-25T17:43:58Z</time>
      </trkpt>
      <trkpt lat="45.08345" lon="6.06194">
        <ele>1566</ele>
        <time>2018-11-25T17:44:00Z</time>
      </trkpt>
      <trkpt lat="45.08346" lon="6.06199">
        <ele>1566</ele>
        <time>2018-11-25T17:44:02Z</time>
      </trkpt>
      <trkpt lat="45.08347" lon="6.06207">
        <ele>1567</ele>
        <time>2018-11-25T17:44:04Z</time>
      </trkpt>
      <trkpt lat="45.08348" lon="6.06215">
        <ele>1567</ele>
        <time>2018-11-25T17:44:06Z</time>
      </trkpt>
      <trkpt lat="45.08348" lon="6.06223">
        <ele>1568</ele>
        <time>2018-11-25T17:44:08Z</time>
      </trkpt>
      <trkpt lat="45.08348" lon="6.06229">
        <ele>1568</ele>
        <time>2018-11-25T17:44:10Z</time>
      </trkpt>
      <trkpt lat="45.08348" lon="6.06236">
        <ele>1569</ele>
        <time>2018-11-25T17:44:12Z</time>
      </trkpt>
      <trkpt lat="45.08348" lon="6.06244">
        <ele>1570</ele>
        <time>2018-11-25T17:44:14Z</time>
      </trkpt>
      <trkpt lat="45.08348" lon="6.06252">
        <ele>1570</ele>
        <time>2018-11-25T17:44:16Z</time>
      </trkpt>
      <trkpt lat="45.0835" lon="6.06259">
        <ele>1571</ele>
        <time>2018-11-25T17:44:18Z</time>
      </trkpt>
      <trkpt lat="45.08353" lon="6.06265">
        <ele>1571</ele>
        <time>2018-11-25T17:44:20Z</time>
      </trkpt>
      <trkpt lat="45.08359" lon="6.06268">
        <ele>1572</ele>
        <time>2018-11-25T17:44:22Z</time>
      </trkpt>
      <trkpt lat="45.08364" lon="6.06266">
        <ele>1572</ele>
        <time>2018-11-25T17:44:24Z</time>
      </trkpt>
      <trkpt lat="45.08368" lon="6.06261">
        <ele>1573</ele>
        <time>2018-11-25T17:44:26Z</time>
      </trkpt>
      <trkpt lat="45.0837" lon="6.06253">
        <ele>1573</ele>
        <time>2018-11-25T17:44:28Z</time>
      </trkpt>
      <trkpt lat="45.0837" lon="6.06244">
        <ele>1574</ele>
        <time>2018-11-25T17:44:30Z</time>
      </trkpt>
      <trkpt lat="45.08369" lon="6.06238">
        <ele>1574</ele>
        <time>2018-11-25T17:44:32Z</time>
      </trkpt>
      <trkpt lat="45.08368" lon="6.06229">
        <ele>1575</ele>
        <time>2018-11-25T17:44:34Z</time>
      </trkpt>
      <trkpt lat="45.08366" lon="6.0622">
        <ele>1575</ele>
        <time>2018-11-25T17:44:36Z</time>
      </trkpt>
      <trkpt lat="45.08365" lon="6.0621">
        <ele>1576</ele>
        <time>2018-11-25T17:44:38Z</time>
      </trkpt>
      <trkpt lat="45.08364" lon="6.06201">
        <ele>1576</ele>
        <time>2018-11-25T17:44:40Z</time>
      </trkpt>
      <trkpt lat="45.08363" lon="6.06191">
        <ele>1577</ele>
        <time>2018-11-25T17:44:42Z</time>
      </trkpt>
      <trkpt lat="45.08363" lon="6.06182">
        <ele>1577</ele>
        <time>2018-11-25T17:44:44Z</time>
      </trkpt>
      <trkpt lat="45.08363" lon="6.06172">
        <ele>1578</ele>
        <time>2018-11-25T17:44:46Z</time>
      </trkpt>
      <trkpt lat="45.08364" lon="6.06162">
        <ele>1578</ele>
        <time>2018-11-25T17:44:48Z</time>
      </trkpt>
      <trkpt lat="45.08365" lon="6.06153">
        <ele>1579</ele>
        <time>2018-11-25T17:44:50Z</time>
      </trkpt>
      <trkpt lat="45.08366" lon="6.06144">
        <ele>1579</ele>
        <time>2018-11-25T17:44:52Z</time>
      </trkpt>
      <trkpt lat="45.08369" lon="6.06135">
        <ele>1580</ele>
        <time>2018-11-25T17:44:54Z</time>
      </trkpt>
      <trkpt lat="45.08372" lon="6.06126">
        <ele>1580</ele>
        <time>2018-11-25T17:44:56Z</time>
      </trkpt>
      <trkpt lat="45.08375" lon="6.06118">
        <ele>1581</ele>
        <time>2018-11-25T17:44:58Z</time>
      </trkpt>
      <trkpt lat="45.08378" lon="6.06109">
        <ele>1581</ele>
        <time>2018-11-25T17:45:00Z</time>
      </trkpt>
      <trkpt lat="45.08382" lon="6.06101">
        <ele>1582</ele>
        <time>2018-11-25T17:45:02Z</time>
      </trkpt>
      <trkpt lat="45.08385" lon="6.06093">
        <ele>1582</ele>
        <time>2018-11-25T17:45:04Z</time>
      </trkpt>
      <trkpt lat="45.08388" lon="6.06085">
        <ele>1583</ele>
        <time>2018-11-25T17:45:06Z</time>
      </trkpt>
      <trkpt lat="45.08391" lon="6.06076">
        <ele>1584</ele>
        <time>2018-11-25T17:45:08Z</time>
      </trkpt>
      <trkpt lat="45.08395" lon="6.06068">
        <ele>1584</ele>
        <time>2018-11-25T17:45:10Z</time>
      </trkpt>
      <trkpt lat="45.08399" lon="6.0606">
        <ele>1585</ele>
        <time>2018-11-25T17:45:12Z</time>
      </trkpt>
      <trkpt lat="45.08402" lon="6.06053">
        <ele>1586</ele>
        <time>2018-11-25T17:45:14Z</time>
      </trkpt>
      <trkpt lat="45.08407" lon="6.06046">
        <ele>1586</ele>
        <time>2018-11-25T17:45:16Z</time>
      </trkpt>
      <trkpt lat="45.08412" lon="6.06041">
        <ele>1587</ele>
        <time>2018-11-25T17:45:18Z</time>
      </trkpt>
      <trkpt lat="45.08418" lon="6.06036">
        <ele>1588</ele>
        <time>2018-11-25T17:45:20Z</time>
      </trkpt>
      <trkpt lat="45.08423" lon="6.06032">
        <ele>1588</ele>
        <time>2018-11-25T17:45:22Z</time>
      </trkpt>
      <trkpt lat="45.08429" lon="6.06028">
        <ele>1589</ele>
        <time>2018-11-25T17:45:24Z</time>
      </trkpt>
      <trkpt lat="45.08436" lon="6.06025">
        <ele>1589</ele>
        <time>2018-11-25T17:45:26Z</time>
      </trkpt>
      <trkpt lat="45.08442" lon="6.06022">
        <ele>1590</ele>
        <time>2018-11-25T17:45:28Z</time>
      </trkpt>
      <trkpt lat="45.08448" lon="6.06021">
        <ele>1591</ele>
        <time>2018-11-25T17:45:30Z</time>
      </trkpt>
      <trkpt lat="45.08454" lon="6.06019">
        <ele>1591</ele>
        <time>2018-11-25T17:45:32Z</time>
      </trkpt>
      <trkpt lat="45.0846" lon="6.06017">
        <ele>1592</ele>
        <time>2018-11-25T17:45:34Z</time>
      </trkpt>
      <trkpt lat="45.08467" lon="6.06016">
        <ele>1593</ele>
        <time>2018-11-25T17:45:36Z</time>
      </trkpt>
      <trkpt lat="45.08473" lon="6.06014">
        <ele>1593</ele>
        <time>2018-11-25T17:45:38Z</time>
      </trkpt>
      <trkpt lat="45.0848" lon="6.06012">
        <ele>1594</ele>
        <time>2018-11-25T17:45:40Z</time>
      </trkpt>
      <trkpt lat="45.08487" lon="6.06011">
        <ele>1595</ele>
        <time>2018-11-25T17:45:42Z</time>
      </trkpt>
      <trkpt lat="45.08493" lon="6.06009">
        <ele>1595</ele>
        <time>2018-11-25T17:45:44Z</time>
      </trkpt>
      <trkpt lat="45.085" lon="6.06007">
        <ele>1596</ele>
        <time>2018-11-25T17:45:46Z</time>
      </trkpt>
      <trkpt lat="45.08506" lon="6.06005">
        <ele>1596</ele>
        <time>2018-11-25T17:45:48Z</time>
      </trkpt>
      <trkpt lat="45.08513" lon="6.06003">
        <ele>1597</ele>
        <time>2018-11-25T17:45:50Z</time>
      </trkpt>
      <trkpt lat="45.08519" lon="6.06001">
        <ele>1598</ele>
        <time>2018-11-25T17:45:52Z</time>
      </trkpt>
      <trkpt lat="45.08524" lon="6.05999">
        <ele>1598</ele>
        <time>2018-11-25T17:45:54Z</time>
      </trkpt>
      <trkpt lat="45.0853" lon="6.05996">
        <ele>1599</ele>
        <time>2018-11-25T17:45:56Z</time>
      </trkpt>
      <trkpt lat="45.08536" lon="6.05993">
        <ele>1599</ele>
        <time>2018-11-25T17:45:58Z</time>
      </trkpt>
      <trkpt lat="45.08542" lon="6.0599">
        <ele>1600</ele>
        <time>2018-11-25T17:46:00Z</time>
      </trkpt>
      <trkpt lat="45.08548" lon="6.05986">
        <ele>1601</ele>
        <time>2018-11-25T17:46:02Z</time>
      </trkpt>
      <trkpt lat="45.08555" lon="6.05982">
        <ele>1601</ele>
        <time>2018-11-25T17:46:04Z</time>
      </trkpt>
      <trkpt lat="45.0856" lon="6.05979">
        <ele>1602</ele>
        <time>2018-11-25T17:46:06Z</time>
      </trkpt>
      <trkpt lat="45.08566" lon="6.05975">
        <ele>1602</ele>
        <time>2018-11-25T17:46:08Z</time>
      </trkpt>
      <trkpt lat="45.08572" lon="6.0597">
        <ele>1603</ele>
        <time>2018-11-25T17:46:10Z</time>
      </trkpt>
      <trkpt lat="45.08578" lon="6.05966">
        <ele>1604</ele>
        <time>2018-11-25T17:46:12Z</time>
      </trkpt>
      <trkpt lat="45.08584" lon="6.05961">
        <ele>1604</ele>
        <time>2018-11-25T17:46:14Z</time>
      </trkpt>
      <trkpt lat="45.08587" lon="6.05957">
        <ele>1605</ele>
        <time>2018-11-25T17:46:16Z</time>
      </trkpt>
      <trkpt lat="45.08593" lon="6.05951">
        <ele>1606</ele>
        <time>2018-11-25T17:46:18Z</time>
      </trkpt>
      <trkpt lat="45.08598" lon="6.05946">
        <ele>1606</ele>
        <time>2018-11-25T17:46:20Z</time>
      </trkpt>
      <trkpt lat="45.08603" lon="6.0594">
        <ele>1607</ele>
        <time>2018-11-25T17:46:22Z</time>
      </trkpt>
      <trkpt lat="45.08608" lon="6.05935">
        <ele>1608</ele>
        <time>2018-11-25T17:46:24Z</time>
      </trkpt>
      <trkpt lat="45.08612" lon="6.0593">
        <ele>1608</ele>
        <time>2018-11-25T17:46:26Z</time>
      </trkpt>
      <trkpt lat="45.08615" lon="6.05926">
        <ele>1609</ele>
        <time>2018-11-25T17:46:28Z</time>
      </trkpt>
      <trkpt lat="45.0862" lon="6.0592">
        <ele>1609</ele>
        <time>2018-11-25T17:46:30Z</time>
      </trkpt>
      <trkpt lat="45.08624" lon="6.05915">
        <ele>1610</ele>
        <time>2018-11-25T17:46:32Z</time>
      </trkpt>
      <trkpt lat="45.08629" lon="6.05909">
        <ele>1611</ele>
        <time>2018-11-25T17:46:34Z</time>
      </trkpt>
      <trkpt lat="45.08634" lon="6.05904">
        <ele>1611</ele>
        <time>2018-11-25T17:46:36Z</time>
      </trkpt>
      <trkpt lat="45.08637" lon="6.05901">
        <ele>1612</ele>
        <time>2018-11-25T17:46:38Z</time>
      </trkpt>
      <trkpt lat="45.08641" lon="6.05896">
        <ele>1613</ele>
        <time>2018-11-25T17:46:40Z</time>
      </trkpt>
      <trkpt lat="45.08646" lon="6.05892">
        <ele>1613</ele>
        <time>2018-11-25T17:46:42Z</time>
      </trkpt>
      <trkpt lat="45.08651" lon="6.05887">
        <ele>1614</ele>
        <time>2018-11-25T17:46:44Z</time>
      </trkpt>
      <trkpt lat="45.08654" lon="6.05884">
        <ele>1614</ele>
        <time>2018-11-25T17:46:46Z</time>
      </trkpt>
      <trkpt lat="45.08659" lon="6.0588">
        <ele>1615</ele>
        <time>2018-11-25T17:46:48Z</time>
      </trkpt>
      <trkpt lat="45.08664" lon="6.05875">
        <ele>1616</ele>
        <time>2018-11-25T17:46:50Z</time>
      </trkpt>
      <trkpt lat="45.08669" lon="6.05871">
        <ele>1616</ele>
        <time>2018-11-25T17:46:52Z</time>
      </trkpt>
      <trkpt lat="45.08674" lon="6.05867">
        <ele>1617</ele>
        <time>2018-11-25T17:46:54Z</time>
      </trkpt>
      <trkpt lat="45.08679" lon="6.05862">
        <ele>1617</ele>
        <time>2018-11-25T17:46:56Z</time>
      </trkpt>
      <trkpt lat="45.08682" lon="6.0586">
        <ele>1618</ele>
        <time>2018-11-25T17:46:58Z</time>
      </trkpt>
      <trkpt lat="45.08687" lon="6.05856">
        <ele>1619</ele>
        <time>2018-11-25T17:47:00Z</time>
      </trkpt>
      <trkpt lat="45.08692" lon="6.05852">
        <ele>1619</ele>
        <time>2018-11-25T17:47:02Z</time>
      </trkpt>
      <trkpt lat="45.08697" lon="6.05848">
        <ele>1620</ele>
        <time>2018-11-25T17:47:04Z</time>
      </trkpt>
      <trkpt lat="45.08701" lon="6.05845">
        <ele>1620</ele>
        <time>2018-11-25T17:47:06Z</time>
      </trkpt>
      <trkpt lat="45.08706" lon="6.05841">
        <ele>1621</ele>
        <time>2018-11-25T17:47:08Z</time>
      </trkpt>
      <trkpt lat="45.08711" lon="6.05838">
        <ele>1622</ele>
        <time>2018-11-25T17:47:10Z</time>
      </trkpt>
      <trkpt lat="45.08716" lon="6.05834">
        <ele>1622</ele>
        <time>2018-11-25T17:47:12Z</time>
      </trkpt>
      <trkpt lat="45.08721" lon="6.05831">
        <ele>1623</ele>
        <time>2018-11-25T17:47:14Z</time>
      </trkpt>
      <trkpt lat="45.08725" lon="6.05828">
        <ele>1623</ele>
        <time>2018-11-25T17:47:16Z</time>
      </trkpt>
      <trkpt lat="45.0873" lon="6.05825">
        <ele>1624</ele>
        <time>2018-11-25T17:47:18Z</time>
      </trkpt>
      <trkpt lat="45.08735" lon="6.05821">
        <ele>1625</ele>
        <time>2018-11-25T17:47:20Z</time>
      </trkpt>
      <trkpt lat="45.0874" lon="6.05817">
        <ele>1625</ele>
        <time>2018-11-25T17:47:22Z</time>
      </trkpt>
      <trkpt lat="45.08746" lon="6.05814">
        <ele>1626</ele>
        <time>2018-11-25T17:47:24Z</time>
      </trkpt>
      <trkpt lat="45.08749" lon="6.05811">
        <ele>1626</ele>
        <time>2018-11-25T17:47:26Z</time>
      </trkpt>
      <trkpt lat="45.08754" lon="6.05806">
        <ele>1627</ele>
        <time>2018-11-25T17:47:28Z</time>
      </trkpt>
      <trkpt lat="45.08759" lon="6.05802">
        <ele>1628</ele>
        <time>2018-11-25T17:47:30Z</time>
      </trkpt>
      <trkpt lat="45.08764" lon="6.05797">
        <ele>1628</ele>
        <time>2018-11-25T17:47:32Z</time>
      </trkpt>
      <trkpt lat="45.08767" lon="6.05793">
        <ele>1629</ele>
        <time>2018-11-25T17:47:34Z</time>
      </trkpt>
      <trkpt lat="45.08771" lon="6.05787">
        <ele>1629</ele>
        <time>2018-11-25T17:47:36Z</time>
      </trkpt>
      <trkpt lat="45.08775" lon="6.05781">
        <ele>1630</ele>
        <time>2018-11-25T17:47:38Z</time>
      </trkpt>
      <trkpt lat="45.08779" lon="6.05775">
        <ele>1631</ele>
        <time>2018-11-25T17:47:40Z</time>
      </trkpt>
      <trkpt lat="45.08783" lon="6.05769">
        <ele>1631</ele>
        <time>2018-11-25T17:47:42Z</time>
      </trkpt>
      <trkpt lat="45.08786" lon="6.05765">
        <ele>1632</ele>
        <time>2018-11-25T17:47:44Z</time>
      </trkpt>
      <trkpt lat="45.0879" lon="6.05759">
        <ele>1632</ele>
        <time>2018-11-25T17:47:46Z</time>
      </trkpt>
      <trkpt lat="45.08794" lon="6.05752">
        <ele>1633</ele>
        <time>2018-11-25T17:47:48Z</time>
      </trkpt>
      <trkpt lat="45.08798" lon="6.05746">
        <ele>1634</ele>
        <time>2018-11-25T17:47:50Z</time>
      </trkpt>
      <trkpt lat="45.08802" lon="6.05739">
        <ele>1634</ele>
        <time>2018-11-25T17:47:52Z</time>
      </trkpt>
      <trkpt lat="45.08805" lon="6.05732">
        <ele>1635</ele>
        <time>2018-11-25T17:47:54Z</time>
      </trkpt>
      <trkpt lat="45.08809" lon="6.05725">
        <ele>1636</ele>
        <time>2018-11-25T17:47:56Z</time>
      </trkpt>
      <trkpt lat="45.08812" lon="6.0572">
        <ele>1636</ele>
        <time>2018-11-25T17:47:58Z</time>
      </trkpt>
      <trkpt lat="45.08816" lon="6.05713">
        <ele>1637</ele>
        <time>2018-11-25T17:48:00Z</time>
      </trkpt>
      <trkpt lat="45.0882" lon="6.05706">
        <ele>1637</ele>
        <time>2018-11-25T17:48:02Z</time>
      </trkpt>
      <trkpt lat="45.08823" lon="6.05699">
        <ele>1638</ele>
        <time>2018-11-25T17:48:04Z</time>
      </trkpt>
      <trkpt lat="45.08827" lon="6.05693">
        <ele>1638</ele>
        <time>2018-11-25T17:48:06Z</time>
      </trkpt>
      <trkpt lat="45.08831" lon="6.05685">
        <ele>1639</ele>
        <time>2018-11-25T17:48:08Z</time>
      </trkpt>
      <trkpt lat="45.08834" lon="6.05677">
        <ele>1640</ele>
        <time>2018-11-25T17:48:10Z</time>
      </trkpt>
      <trkpt lat="45.08837" lon="6.05669">
        <ele>1640</ele>
        <time>2018-11-25T17:48:12Z</time>
      </trkpt>
      <trkpt lat="45.08839" lon="6.0566">
        <ele>1641</ele>
        <time>2018-11-25T17:48:14Z</time>
      </trkpt>
      <trkpt lat="45.08839" lon="6.05653">
        <ele>1641</ele>
        <time>2018-11-25T17:48:16Z</time>
      </trkpt>
      <trkpt lat="45.08839" lon="6.05644">
        <ele>1642</ele>
        <time>2018-11-25T17:48:18Z</time>
      </trkpt>
      <trkpt lat="45.08838" lon="6.05634">
        <ele>1642</ele>
        <time>2018-11-25T17:48:20Z</time>
      </trkpt>
      <trkpt lat="45.08835" lon="6.05626">
        <ele>1643</ele>
        <time>2018-11-25T17:48:22Z</time>
      </trkpt>
      <trkpt lat="45.08832" lon="6.05618">
        <ele>1643</ele>
        <time>2018-11-25T17:48:24Z</time>
      </trkpt>
      <trkpt lat="45.08828" lon="6.0561">
        <ele>1644</ele>
        <time>2018-11-25T17:48:26Z</time>
      </trkpt>
      <trkpt lat="45.08823" lon="6.05603">
        <ele>1645</ele>
        <time>2018-11-25T17:48:28Z</time>
      </trkpt>
      <trkpt lat="45.08819" lon="6.05596">
        <ele>1645</ele>
        <time>2018-11-25T17:48:30Z</time>
      </trkpt>
      <trkpt lat="45.08817" lon="6.05588">
        <ele>1646</ele>
        <time>2018-11-25T17:48:32Z</time>
      </trkpt>
      <trkpt lat="45.0882" lon="6.05581">
        <ele>1646</ele>
        <time>2018-11-25T17:48:34Z</time>
      </trkpt>
      <trkpt lat="45.08826" lon="6.05582">
        <ele>1647</ele>
        <time>2018-11-25T17:48:36Z</time>
      </trkpt>
      <trkpt lat="45.0883" lon="6.05587">
        <ele>1647</ele>
        <time>2018-11-25T17:48:38Z</time>
      </trkpt>
      <trkpt lat="45.08835" lon="6.05593">
        <ele>1648</ele>
        <time>2018-11-25T17:48:40Z</time>
      </trkpt>
      <trkpt lat="45.08842" lon="6.05599">
        <ele>1649</ele>
        <time>2018-11-25T17:48:42Z</time>
      </trkpt>
      <trkpt lat="45.08847" lon="6.05604">
        <ele>1649</ele>
        <time>2018-11-25T17:48:44Z</time>
      </trkpt>
      <trkpt lat="45.08853" lon="6.05608">
        <ele>1650</ele>
        <time>2018-11-25T17:48:46Z</time>
      </trkpt>
      <trkpt lat="45.08857" lon="6.05611">
        <ele>1650</ele>
        <time>2018-11-25T17:48:48Z</time>
      </trkpt>
      <trkpt lat="45.08863" lon="6.05615">
        <ele>1651</ele>
        <time>2018-11-25T17:48:50Z</time>
      </trkpt>
      <trkpt lat="45.08869" lon="6.05619">
        <ele>1651</ele>
        <time>2018-11-25T17:48:52Z</time>
      </trkpt>
      <trkpt lat="45.08875" lon="6.05623">
        <ele>1652</ele>
        <time>2018-11-25T17:48:54Z</time>
      </trkpt>
      <trkpt lat="45.08881" lon="6.05627">
        <ele>1653</ele>
        <time>2018-11-25T17:48:56Z</time>
      </trkpt>
      <trkpt lat="45.08886" lon="6.05631">
        <ele>1653</ele>
        <time>2018-11-25T17:48:58Z</time>
      </trkpt>
      <trkpt lat="45.08892" lon="6.05637">
        <ele>1654</ele>
        <time>2018-11-25T17:49:00Z</time>
      </trkpt>
      <trkpt lat="45.08897" lon="6.05643">
        <ele>1654</ele>
        <time>2018-11-25T17:49:02Z</time>
      </trkpt>
      <trkpt lat="45.08901" lon="6.05651">
        <ele>1655</ele>
        <time>2018-11-25T17:49:04Z</time>
      </trkpt>
      <trkpt lat="45.08904" lon="6.05659">
        <ele>1655</ele>
        <time>2018-11-25T17:49:06Z</time>
      </trkpt>
      <trkpt lat="45.08906" lon="6.05668">
        <ele>1656</ele>
        <time>2018-11-25T17:49:08Z</time>
      </trkpt>
      <trkpt lat="45.08907" lon="6.05678">
        <ele>1657</ele>
        <time>2018-11-25T17:49:10Z</time>
      </trkpt>
      <trkpt lat="45.08909" lon="6.05687">
        <ele>1657</ele>
        <time>2018-11-25T17:49:12Z</time>
      </trkpt>
      <trkpt lat="45.0891" lon="6.05693">
        <ele>1658</ele>
        <time>2018-11-25T17:49:14Z</time>
      </trkpt>
      <trkpt lat="45.08911" lon="6.05702">
        <ele>1658</ele>
        <time>2018-11-25T17:49:16Z</time>
      </trkpt>
      <trkpt lat="45.08912" lon="6.05712">
        <ele>1659</ele>
        <time>2018-11-25T17:49:18Z</time>
      </trkpt>
      <trkpt lat="45.08913" lon="6.05721">
        <ele>1660</ele>
        <time>2018-11-25T17:49:20Z</time>
      </trkpt>
      <trkpt lat="45.08914" lon="6.0573">
        <ele>1660</ele>
        <time>2018-11-25T17:49:22Z</time>
      </trkpt>
      <trkpt lat="45.08915" lon="6.0574">
        <ele>1661</ele>
        <time>2018-11-25T17:49:24Z</time>
      </trkpt>
      <trkpt lat="45.08915" lon="6.05749">
        <ele>1662</ele>
        <time>2018-11-25T17:49:26Z</time>
      </trkpt>
      <trkpt lat="45.08915" lon="6.05758">
        <ele>1662</ele>
        <time>2018-11-25T17:49:28Z</time>
      </trkpt>
      <trkpt lat="45.08916" lon="6.05766">
        <ele>1663</ele>
        <time>2018-11-25T17:49:30Z</time>
      </trkpt>
      <trkpt lat="45.08916" lon="6.05775">
        <ele>1664</ele>
        <time>2018-11-25T17:49:32Z</time>
      </trkpt>
      <trkpt lat="45.08916" lon="6.0578">
        <ele>1664</ele>
        <time>2018-11-25T17:49:34Z</time>
      </trkpt>
      <trkpt lat="45.08917" lon="6.05789">
        <ele>1665</ele>
        <time>2018-11-25T17:49:36Z</time>
      </trkpt>
      <trkpt lat="45.08917" lon="6.05797">
        <ele>1666</ele>
        <time>2018-11-25T17:49:38Z</time>
      </trkpt>
      <trkpt lat="45.08916" lon="6.05805">
        <ele>1666</ele>
        <time>2018-11-25T17:49:40Z</time>
      </trkpt>
      <trkpt lat="45.08916" lon="6.05814">
        <ele>1667</ele>
        <time>2018-11-25T17:49:42Z</time>
      </trkpt>
      <trkpt lat="45.08915" lon="6.05822">
        <ele>1668</ele>
        <time>2018-11-25T17:49:44Z</time>
      </trkpt>
      <trkpt lat="45.08914" lon="6.05828">
        <ele>1668</ele>
        <time>2018-11-25T17:49:46Z</time>
      </trkpt>
      <trkpt lat="45.08913" lon="6.05836">
        <ele>1669</ele>
        <time>2018-11-25T17:49:48Z</time>
      </trkpt>
      <trkpt lat="45.08912" lon="6.05844">
        <ele>1670</ele>
        <time>2018-11-25T17:49:50Z</time>
      </trkpt>
      <trkpt lat="45.0891" lon="6.05853">
        <ele>1670</ele>
        <time>2018-11-25T17:49:52Z</time>
      </trkpt>
      <trkpt lat="45.08909" lon="6.05861">
        <ele>1671</ele>
        <time>2018-11-25T17:49:54Z</time>
      </trkpt>
      <trkpt lat="45.08907" lon="6.0587">
        <ele>1672</ele>
        <time>2018-11-25T17:49:56Z</time>
      </trkpt>
      <trkpt lat="45.08906" lon="6.05875">
        <ele>1672</ele>
        <time>2018-11-25T17:49:58Z</time>
      </trkpt>
      <trkpt lat="45.08905" lon="6.05884">
        <ele>1673</ele>
        <time>2018-11-25T17:50:00Z</time>
      </trkpt>
      <trkpt lat="45.08903" lon="6.05892">
        <ele>1673</ele>
        <time>2018-11-25T17:50:02Z</time>
      </trkpt>
      <trkpt lat="45.08902" lon="6.05901">
        <ele>1674</ele>
        <time>2018-11-25T17:50:04Z</time>
      </trkpt>
      <trkpt lat="45.089" lon="6.0591">
        <ele>1675</ele>
        <time>2018-11-25T17:50:06Z</time>
      </trkpt>
      <trkpt lat="45.08899" lon="6.05915">
        <ele>1675</ele>
        <time>2018-11-25T17:50:08Z</time>
      </trkpt>
      <trkpt lat="45.08898" lon="6.05924">
        <ele>1676</ele>
        <time>2018-11-25T17:50:10Z</time>
      </trkpt>
      <trkpt lat="45.08896" lon="6.05933">
        <ele>1677</ele>
        <time>2018-11-25T17:50:12Z</time>
      </trkpt>
      <trkpt lat="45.08895" lon="6.05941">
        <ele>1677</ele>
        <time>2018-11-25T17:50:14Z</time>
      </trkpt>
      <trkpt lat="45.08894" lon="6.05946">
        <ele>1678</ele>
        <time>2018-11-25T17:50:16Z</time>
      </trkpt>
      <trkpt lat="45.08892" lon="6.05955">
        <ele>1678</ele>
        <time>2018-11-25T17:50:18Z</time>
      </trkpt>
      <trkpt lat="45.08891" lon="6.05963">
        <ele>1679</ele>
        <time>2018-11-25T17:50:20Z</time>
      </trkpt>
      <trkpt lat="45.08889" lon="6.05972">
        <ele>1680</ele>
        <time>2018-11-25T17:50:22Z</time>
      </trkpt>
      <trkpt lat="45.08887" lon="6.0598">
        <ele>1680</ele>
        <time>2018-11-25T17:50:24Z</time>
      </trkpt>
      <trkpt lat="45.08885" lon="6.05988">
        <ele>1681</ele>
        <time>2018-11-25T17:50:26Z</time>
      </trkpt>
      <trkpt lat="45.08884" lon="6.05994">
        <ele>1681</ele>
        <time>2018-11-25T17:50:28Z</time>
      </trkpt>
      <trkpt lat="45.08882" lon="6.06002">
        <ele>1682</ele>
        <time>2018-11-25T17:50:30Z</time>
      </trkpt>
      <trkpt lat="45.08879" lon="6.0601">
        <ele>1682</ele>
        <time>2018-11-25T17:50:32Z</time>
      </trkpt>
      <trkpt lat="45.08876" lon="6.06017">
        <ele>1683</ele>
        <time>2018-11-25T17:50:34Z</time>
      </trkpt>
      <trkpt lat="45.08873" lon="6.06025">
        <ele>1684</ele>
        <time>2018-11-25T17:50:36Z</time>
      </trkpt>
      <trkpt lat="45.0887" lon="6.06032">
        <ele>1684</ele>
        <time>2018-11-25T17:50:38Z</time>
      </trkpt>
      <trkpt lat="45.08868" lon="6.0604">
        <ele>1685</ele>
        <time>2018-11-25T17:50:40Z</time>
      </trkpt>
      <trkpt lat="45.08869" lon="6.06047">
        <ele>1685</ele>
        <time>2018-11-25T17:50:42Z</time>
      </trkpt>
      <trkpt lat="45.08874" lon="6.06051">
        <ele>1686</ele>
        <time>2018-11-25T17:50:44Z</time>
      </trkpt>
      <trkpt lat="45.0888" lon="6.06049">
        <ele>1687</ele>
        <time>2018-11-25T17:50:46Z</time>
      </trkpt>
      <trkpt lat="45.08884" lon="6.06043">
        <ele>1687</ele>
        <time>2018-11-25T17:50:48Z</time>
      </trkpt>
      <trkpt lat="45.08889" lon="6.06038">
        <ele>1688</ele>
        <time>2018-11-25T17:50:50Z</time>
      </trkpt>
      <trkpt lat="45.08893" lon="6.06032">
        <ele>1688</ele>
        <time>2018-11-25T17:50:52Z</time>
      </trkpt>
      <trkpt lat="45.08896" lon="6.06028">
        <ele>1689</ele>
        <time>2018-11-25T17:50:54Z</time>
      </trkpt>
      <trkpt lat="45.08901" lon="6.06023">
        <ele>1689</ele>
        <time>2018-11-25T17:50:56Z</time>
      </trkpt>
      <trkpt lat="45.08906" lon="6.06018">
        <ele>1690</ele>
        <time>2018-11-25T17:50:58Z</time>
      </trkpt>
      <trkpt lat="45.08912" lon="6.06013">
        <ele>1690</ele>
        <time>2018-11-25T17:51:00Z</time>
      </trkpt>
      <trkpt lat="45.08918" lon="6.06008">
        <ele>1691</ele>
        <time>2018-11-25T17:51:02Z</time>
      </trkpt>
      <trkpt lat="45.08924" lon="6.06003">
        <ele>1692</ele>
        <time>2018-11-25T17:51:04Z</time>
      </trkpt>
      <trkpt lat="45.08928" lon="6.05999">
        <ele>1692</ele>
        <time>2018-11-25T17:51:06Z</time>
      </trkpt>
      <trkpt lat="45.08933" lon="6.05994">
        <ele>1693</ele>
        <time>2018-11-25T17:51:08Z</time>
      </trkpt>
      <trkpt lat="45.08939" lon="6.05988">
        <ele>1693</ele>
        <time>2018-11-25T17:51:10Z</time>
      </trkpt>
      <trkpt lat="45.08945" lon="6.05982">
        <ele>1694</ele>
        <time>2018-11-25T17:51:12Z</time>
      </trkpt>
      <trkpt lat="45.08951" lon="6.05977">
        <ele>1694</ele>
        <time>2018-11-25T17:51:14Z</time>
      </trkpt>
      <trkpt lat="45.08956" lon="6.05971">
        <ele>1695</ele>
        <time>2018-11-25T17:51:16Z</time>
      </trkpt>
      <trkpt lat="45.08962" lon="6.05965">
        <ele>1695</ele>
        <time>2018-11-25T17:51:18Z</time>
      </trkpt>
      <trkpt lat="45.08967" lon="6.05959">
        <ele>1696</ele>
        <time>2018-11-25T17:51:20Z</time>
      </trkpt>
      <trkpt lat="45.08971" lon="6.05955">
        <ele>1696</ele>
        <time>2018-11-25T17:51:22Z</time>
      </trkpt>
      <trkpt lat="45.08976" lon="6.05949">
        <ele>1697</ele>
        <time>2018-11-25T17:51:24Z</time>
      </trkpt>
      <trkpt lat="45.08981" lon="6.05942">
        <ele>1698</ele>
        <time>2018-11-25T17:51:26Z</time>
      </trkpt>
      <trkpt lat="45.08986" lon="6.05936">
        <ele>1698</ele>
        <time>2018-11-25T17:51:28Z</time>
      </trkpt>
      <trkpt lat="45.08991" lon="6.05929">
        <ele>1699</ele>
        <time>2018-11-25T17:51:30Z</time>
      </trkpt>
      <trkpt lat="45.08996" lon="6.05922">
        <ele>1700</ele>
        <time>2018-11-25T17:51:32Z</time>
      </trkpt>
      <trkpt lat="45.09001" lon="6.05915">
        <ele>1700</ele>
        <time>2018-11-25T17:51:34Z</time>
      </trkpt>
      <trkpt lat="45.09005" lon="6.05908">
        <ele>1701</ele>
        <time>2018-11-25T17:51:36Z</time>
      </trkpt>
      <trkpt lat="45.09009" lon="6.05903">
        <ele>1702</ele>
        <time>2018-11-25T17:51:38Z</time>
      </trkpt>
      <trkpt lat="45.09014" lon="6.05896">
        <ele>1702</ele>
        <time>2018-11-25T17:51:40Z</time>
      </trkpt>
      <trkpt lat="45.09018" lon="6.05889">
        <ele>1703</ele>
        <time>2018-11-25T17:51:42Z</time>
      </trkpt>
      <trkpt lat="45.09023" lon="6.05882">
        <ele>1704</ele>
        <time>2018-11-25T17:51:44Z</time>
      </trkpt>
      <trkpt lat="45.09028" lon="6.05875">
        <ele>1705</ele>
        <time>2018-11-25T17:51:46Z</time>
      </trkpt>
      <trkpt lat="45.09033" lon="6.05868">
        <ele>1705</ele>
        <time>2018-11-25T17:51:48Z</time>
      </trkpt>
      <trkpt lat="45.09037" lon="6.05861">
        <ele>1706</ele>
        <time>2018-11-25T17:51:50Z</time>
      </trkpt>
      <trkpt lat="45.09042" lon="6.05854">
        <ele>1707</ele>
        <time>2018-11-25T17:51:52Z</time>
      </trkpt>
      <trkpt lat="45.09046" lon="6.05847">
        <ele>1707</ele>
        <time>2018-11-25T17:51:54Z</time>
      </trkpt>
      <trkpt lat="45.09051" lon="6.05839">
        <ele>1708</ele>
        <time>2018-11-25T17:51:56Z</time>
      </trkpt>
      <trkpt lat="45.09056" lon="6.05831">
        <ele>1708</ele>
        <time>2018-11-25T17:51:58Z</time>
      </trkpt>
      <trkpt lat="45.09061" lon="6.05824">
        <ele>1709</ele>
        <time>2018-11-25T17:52:00Z</time>
      </trkpt>
      <trkpt lat="45.09066" lon="6.05815">
        <ele>1710</ele>
        <time>2018-11-25T17:52:02Z</time>
      </trkpt>
      <trkpt lat="45.09071" lon="6.05807">
        <ele>1710</ele>
        <time>2018-11-25T17:52:04Z</time>
      </trkpt>
      <trkpt lat="45.09076" lon="6.05797">
        <ele>1711</ele>
        <time>2018-11-25T17:52:06Z</time>
      </trkpt>
      <trkpt lat="45.09081" lon="6.05788">
        <ele>1711</ele>
        <time>2018-11-25T17:52:08Z</time>
      </trkpt>
      <trkpt lat="45.09085" lon="6.05779">
        <ele>1712</ele>
        <time>2018-11-25T17:52:10Z</time>
      </trkpt>
      <trkpt lat="45.0909" lon="6.05771">
        <ele>1713</ele>
        <time>2018-11-25T17:52:12Z</time>
      </trkpt>
      <trkpt lat="45.09094" lon="6.05762">
        <ele>1713</ele>
        <time>2018-11-25T17:52:14Z</time>
      </trkpt>
      <trkpt lat="45.09099" lon="6.05754">
        <ele>1714</ele>
        <time>2018-11-25T17:52:16Z</time>
      </trkpt>
      <trkpt lat="45.09103" lon="6.05746">
        <ele>1715</ele>
        <time>2018-11-25T17:52:18Z</time>
      </trkpt>
      <trkpt lat="45.09107" lon="6.05738">
        <ele>1715</ele>
        <time>2018-11-25T17:52:20Z</time>
      </trkpt>
      <trkpt lat="45.09111" lon="6.0573">
        <ele>1716</ele>
        <time>2018-11-25T17:52:22Z</time>
      </trkpt>
      <trkpt lat="45.09115" lon="6.05723">
        <ele>1716</ele>
        <time>2018-11-25T17:52:24Z</time>
      </trkpt>
      <trkpt lat="45.09119" lon="6.05715">
        <ele>1717</ele>
        <time>2018-11-25T17:52:26Z</time>
      </trkpt>
      <trkpt lat="45.09123" lon="6.05706">
        <ele>1718</ele>
        <time>2018-11-25T17:52:28Z</time>
      </trkpt>
      <trkpt lat="45.09127" lon="6.05698">
        <ele>1719</ele>
        <time>2018-11-25T17:52:30Z</time>
      </trkpt>
      <trkpt lat="45.0913" lon="6.05689">
        <ele>1719</ele>
        <time>2018-11-25T17:52:32Z</time>
      </trkpt>
      <trkpt lat="45.09132" lon="6.05681">
        <ele>1720</ele>
        <time>2018-11-25T17:52:34Z</time>
      </trkpt>
      <trkpt lat="45.09135" lon="6.05672">
        <ele>1721</ele>
        <time>2018-11-25T17:52:36Z</time>
      </trkpt>
      <trkpt lat="45.09137" lon="6.05664">
        <ele>1722</ele>
        <time>2018-11-25T17:52:38Z</time>
      </trkpt>
      <trkpt lat="45.09139" lon="6.05655">
        <ele>1722</ele>
        <time>2018-11-25T17:52:40Z</time>
      </trkpt>
      <trkpt lat="45.09141" lon="6.05646">
        <ele>1723</ele>
        <time>2018-11-25T17:52:42Z</time>
      </trkpt>
      <trkpt lat="45.09143" lon="6.05637">
        <ele>1724</ele>
        <time>2018-11-25T17:52:44Z</time>
      </trkpt>
      <trkpt lat="45.09144" lon="6.05628">
        <ele>1724</ele>
        <time>2018-11-25T17:52:46Z</time>
      </trkpt>
      <trkpt lat="45.09145" lon="6.05619">
        <ele>1725</ele>
        <time>2018-11-25T17:52:48Z</time>
      </trkpt>
      <trkpt lat="45.09145" lon="6.05613">
        <ele>1726</ele>
        <time>2018-11-25T17:52:50Z</time>
      </trkpt>
      <trkpt lat="45.09145" lon="6.05604">
        <ele>1726</ele>
        <time>2018-11-25T17:52:52Z</time>
      </trkpt>
      <trkpt lat="45.09144" lon="6.05595">
        <ele>1727</ele>
        <time>2018-11-25T17:52:54Z</time>
      </trkpt>
      <trkpt lat="45.09143" lon="6.05586">
        <ele>1728</ele>
        <time>2018-11-25T17:52:56Z</time>
      </trkpt>
      <trkpt lat="45.09142" lon="6.05577">
        <ele>1729</ele>
        <time>2018-11-25T17:52:58Z</time>
      </trkpt>
      <trkpt lat="45.09141" lon="6.05568">
        <ele>1729</ele>
        <time>2018-11-25T17:53:00Z</time>
      </trkpt>
      <trkpt lat="45.0914" lon="6.05561">
        <ele>1730</ele>
        <time>2018-11-25T17:53:02Z</time>
      </trkpt>
      <trkpt lat="45.09139" lon="6.05552">
        <ele>1731</ele>
        <time>2018-11-25T17:53:04Z</time>
      </trkpt>
      <trkpt lat="45.09139" lon="6.05543">
        <ele>1731</ele>
        <time>2018-11-25T17:53:06Z</time>
      </trkpt>
      <trkpt lat="45.09143" lon="6.05535">
        <ele>1732</ele>
        <time>2018-11-25T17:53:08Z</time>
      </trkpt>
      <trkpt lat="45.09148" lon="6.05534">
        <ele>1733</ele>
        <time>2018-11-25T17:53:10Z</time>
      </trkpt>
      <trkpt lat="45.09153" lon="6.0554">
        <ele>1733</ele>
        <time>2018-11-25T17:53:12Z</time>
      </trkpt>
      <trkpt lat="45.09156" lon="6.0555">
        <ele>1734</ele>
        <time>2018-11-25T17:53:14Z</time>
      </trkpt>
      <trkpt lat="45.09157" lon="6.05559">
        <ele>1734</ele>
        <time>2018-11-25T17:53:16Z</time>
      </trkpt>
      <trkpt lat="45.09158" lon="6.05568">
        <ele>1735</ele>
        <time>2018-11-25T17:53:18Z</time>
      </trkpt>
      <trkpt lat="45.09158" lon="6.05577">
        <ele>1735</ele>
        <time>2018-11-25T17:53:20Z</time>
      </trkpt>
      <trkpt lat="45.09159" lon="6.05587">
        <ele>1736</ele>
        <time>2018-11-25T17:53:22Z</time>
      </trkpt>
      <trkpt lat="45.0916" lon="6.05597">
        <ele>1736</ele>
        <time>2018-11-25T17:53:24Z</time>
      </trkpt>
      <trkpt lat="45.09161" lon="6.05606">
        <ele>1737</ele>
        <time>2018-11-25T17:53:26Z</time>
      </trkpt>
      <trkpt lat="45.09163" lon="6.05616">
        <ele>1737</ele>
        <time>2018-11-25T17:53:28Z</time>
      </trkpt>
      <trkpt lat="45.09165" lon="6.05625">
        <ele>1738</ele>
        <time>2018-11-25T17:53:30Z</time>
      </trkpt>
      <trkpt lat="45.09167" lon="6.05634">
        <ele>1738</ele>
        <time>2018-11-25T17:53:32Z</time>
      </trkpt>
      <trkpt lat="45.09169" lon="6.05643">
        <ele>1739</ele>
        <time>2018-11-25T17:53:34Z</time>
      </trkpt>
      <trkpt lat="45.09172" lon="6.05652">
        <ele>1739</ele>
        <time>2018-11-25T17:53:36Z</time>
      </trkpt>
      <trkpt lat="45.09174" lon="6.05661">
        <ele>1740</ele>
        <time>2018-11-25T17:53:38Z</time>
      </trkpt>
      <trkpt lat="45.09176" lon="6.05669">
        <ele>1741</ele>
        <time>2018-11-25T17:53:40Z</time>
      </trkpt>
      <trkpt lat="45.09178" lon="6.05678">
        <ele>1741</ele>
        <time>2018-11-25T17:53:42Z</time>
      </trkpt>
      <trkpt lat="45.0918" lon="6.05687">
        <ele>1742</ele>
        <time>2018-11-25T17:53:44Z</time>
      </trkpt>
      <trkpt lat="45.09181" lon="6.05696">
        <ele>1742</ele>
        <time>2018-11-25T17:53:46Z</time>
      </trkpt>
      <trkpt lat="45.09183" lon="6.05706">
        <ele>1743</ele>
        <time>2018-11-25T17:53:48Z</time>
      </trkpt>
      <trkpt lat="45.09184" lon="6.05712">
        <ele>1743</ele>
        <time>2018-11-25T17:53:50Z</time>
      </trkpt>
      <trkpt lat="45.09184" lon="6.05721">
        <ele>1744</ele>
        <time>2018-11-25T17:53:52Z</time>
      </trkpt>
      <trkpt lat="45.09185" lon="6.0573">
        <ele>1745</ele>
        <time>2018-11-25T17:53:54Z</time>
      </trkpt>
      <trkpt lat="45.09185" lon="6.05739">
        <ele>1745</ele>
        <time>2018-11-25T17:53:56Z</time>
      </trkpt>
      <trkpt lat="45.09185" lon="6.05744">
        <ele>1746</ele>
        <time>2018-11-25T17:53:58Z</time>
      </trkpt>
      <trkpt lat="45.09184" lon="6.05753">
        <ele>1747</ele>
        <time>2018-11-25T17:54:00Z</time>
      </trkpt>
      <trkpt lat="45.09183" lon="6.05762">
        <ele>1747</ele>
        <time>2018-11-25T17:54:02Z</time>
      </trkpt>
      <trkpt lat="45.09182" lon="6.05771">
        <ele>1748</ele>
        <time>2018-11-25T17:54:04Z</time>
      </trkpt>
      <trkpt lat="45.09181" lon="6.05782">
        <ele>1749</ele>
        <time>2018-11-25T17:54:07Z</time>
      </trkpt>
      <trkpt lat="45.09181" lon="6.05786">
        <ele>1749</ele>
        <time>2018-11-25T17:54:08Z</time>
      </trkpt>
      <trkpt lat="45.0918" lon="6.05795">
        <ele>1750</ele>
        <time>2018-11-25T17:54:10Z</time>
      </trkpt>
      <trkpt lat="45.0918" lon="6.05804">
        <ele>1751</ele>
        <time>2018-11-25T17:54:12Z</time>
      </trkpt>
      <trkpt lat="45.09179" lon="6.05813">
        <ele>1751</ele>
        <time>2018-11-25T17:54:14Z</time>
      </trkpt>
      <trkpt lat="45.09178" lon="6.05821">
        <ele>1752</ele>
        <time>2018-11-25T17:54:16Z</time>
      </trkpt>
      <trkpt lat="45.09178" lon="6.0583">
        <ele>1752</ele>
        <time>2018-11-25T17:54:18Z</time>
      </trkpt>
      <trkpt lat="45.09178" lon="6.0584">
        <ele>1753</ele>
        <time>2018-11-25T17:54:20Z</time>
      </trkpt>
      <trkpt lat="45.09178" lon="6.0585">
        <ele>1753</ele>
        <time>2018-11-25T17:54:22Z</time>
      </trkpt>
      <trkpt lat="45.09177" lon="6.05859">
        <ele>1754</ele>
        <time>2018-11-25T17:54:24Z</time>
      </trkpt>
      <trkpt lat="45.09177" lon="6.05869">
        <ele>1754</ele>
        <time>2018-11-25T17:54:26Z</time>
      </trkpt>
      <trkpt lat="45.09177" lon="6.05878">
        <ele>1755</ele>
        <time>2018-11-25T17:54:28Z</time>
      </trkpt>
      <trkpt lat="45.09176" lon="6.05888">
        <ele>1756</ele>
        <time>2018-11-25T17:54:30Z</time>
      </trkpt>
      <trkpt lat="45.09176" lon="6.05897">
        <ele>1756</ele>
        <time>2018-11-25T17:54:32Z</time>
      </trkpt>
      <trkpt lat="45.09173" lon="6.05915">
        <ele>1757</ele>
        <time>2018-11-25T17:54:36Z</time>
      </trkpt>
      <trkpt lat="45.09171" lon="6.05924">
        <ele>1758</ele>
        <time>2018-11-25T17:54:38Z</time>
      </trkpt>
      <trkpt lat="45.09169" lon="6.05934">
        <ele>1759</ele>
        <time>2018-11-25T17:54:40Z</time>
      </trkpt>
      <trkpt lat="45.09167" lon="6.05943">
        <ele>1759</ele>
        <time>2018-11-25T17:54:42Z</time>
      </trkpt>
      <trkpt lat="45.09165" lon="6.05952">
        <ele>1760</ele>
        <time>2018-11-25T17:54:44Z</time>
      </trkpt>
      <trkpt lat="45.09163" lon="6.05958">
        <ele>1760</ele>
        <time>2018-11-25T17:54:46Z</time>
      </trkpt>
      <trkpt lat="45.09162" lon="6.05967">
        <ele>1761</ele>
        <time>2018-11-25T17:54:48Z</time>
      </trkpt>
      <trkpt lat="45.0916" lon="6.05977">
        <ele>1761</ele>
        <time>2018-11-25T17:54:50Z</time>
      </trkpt>
      <trkpt lat="45.09158" lon="6.05986">
        <ele>1762</ele>
        <time>2018-11-25T17:54:52Z</time>
      </trkpt>
      <trkpt lat="45.09156" lon="6.05995">
        <ele>1763</ele>
        <time>2018-11-25T17:54:54Z</time>
      </trkpt>
      <trkpt lat="45.09154" lon="6.06004">
        <ele>1763</ele>
        <time>2018-11-25T17:54:56Z</time>
      </trkpt>
      <trkpt lat="45.09152" lon="6.06013">
        <ele>1764</ele>
        <time>2018-11-25T17:54:58Z</time>
      </trkpt>
      <trkpt lat="45.0915" lon="6.06022">
        <ele>1765</ele>
        <time>2018-11-25T17:55:00Z</time>
      </trkpt>
      <trkpt lat="45.09149" lon="6.06032">
        <ele>1765</ele>
        <time>2018-11-25T17:55:02Z</time>
      </trkpt>
      <trkpt lat="45.09147" lon="6.06041">
        <ele>1766</ele>
        <time>2018-11-25T17:55:04Z</time>
      </trkpt>
      <trkpt lat="45.09145" lon="6.0605">
        <ele>1767</ele>
        <time>2018-11-25T17:55:06Z</time>
      </trkpt>
      <trkpt lat="45.09144" lon="6.06056">
        <ele>1767</ele>
        <time>2018-11-25T17:55:08Z</time>
      </trkpt>
      <trkpt lat="45.09142" lon="6.06065">
        <ele>1768</ele>
        <time>2018-11-25T17:55:10Z</time>
      </trkpt>
      <trkpt lat="45.0914" lon="6.06074">
        <ele>1769</ele>
        <time>2018-11-25T17:55:12Z</time>
      </trkpt>
      <trkpt lat="45.09138" lon="6.06084">
        <ele>1769</ele>
        <time>2018-11-25T17:55:14Z</time>
      </trkpt>
      <trkpt lat="45.09136" lon="6.06093">
        <ele>1770</ele>
        <time>2018-11-25T17:55:16Z</time>
      </trkpt>
      <trkpt lat="45.09134" lon="6.06102">
        <ele>1771</ele>
        <time>2018-11-25T17:55:18Z</time>
      </trkpt>
      <trkpt lat="45.09132" lon="6.06111">
        <ele>1772</ele>
        <time>2018-11-25T17:55:20Z</time>
      </trkpt>
      <trkpt lat="45.0913" lon="6.0612">
        <ele>1772</ele>
        <time>2018-11-25T17:55:22Z</time>
      </trkpt>
      <trkpt lat="45.09129" lon="6.06129">
        <ele>1773</ele>
        <time>2018-11-25T17:55:24Z</time>
      </trkpt>
      <trkpt lat="45.09127" lon="6.06138">
        <ele>1774</ele>
        <time>2018-11-25T17:55:26Z</time>
      </trkpt>
      <trkpt lat="45.09124" lon="6.06148">
        <ele>1775</ele>
        <time>2018-11-25T17:55:28Z</time>
      </trkpt>
      <trkpt lat="45.09121" lon="6.06157">
        <ele>1775</ele>
        <time>2018-11-25T17:55:30Z</time>
      </trkpt>
      <trkpt lat="45.09119" lon="6.06166">
        <ele>1776</ele>
        <time>2018-11-25T17:55:32Z</time>
      </trkpt>
      <trkpt lat="45.09115" lon="6.06174">
        <ele>1777</ele>
        <time>2018-11-25T17:55:34Z</time>
      </trkpt>
      <trkpt lat="45.09112" lon="6.06183">
        <ele>1778</ele>
        <time>2018-11-25T17:55:36Z</time>
      </trkpt>
      <trkpt lat="45.09109" lon="6.06192">
        <ele>1778</ele>
        <time>2018-11-25T17:55:38Z</time>
      </trkpt>
      <trkpt lat="45.09106" lon="6.06201">
        <ele>1779</ele>
        <time>2018-11-25T17:55:40Z</time>
      </trkpt>
      <trkpt lat="45.09103" lon="6.0621">
        <ele>1780</ele>
        <time>2018-11-25T17:55:42Z</time>
      </trkpt>
      <trkpt lat="45.091" lon="6.06219">
        <ele>1780</ele>
        <time>2018-11-25T17:55:44Z</time>
      </trkpt>
      <trkpt lat="45.09099" lon="6.06225">
        <ele>1781</ele>
        <time>2018-11-25T17:55:46Z</time>
      </trkpt>
      <trkpt lat="45.09095" lon="6.06239">
        <ele>1782</ele>
        <time>2018-11-25T17:55:48Z</time>
      </trkpt>
      <trkpt lat="45.09092" lon="6.0625">
        <ele>1783</ele>
        <time>2018-11-25T17:55:50Z</time>
      </trkpt>
      <trkpt lat="45.0909" lon="6.06261">
        <ele>1784</ele>
        <time>2018-11-25T17:55:52Z</time>
      </trkpt>
      <trkpt lat="45.09087" lon="6.06271">
        <ele>1784</ele>
        <time>2018-11-25T17:55:54Z</time>
      </trkpt>
      <trkpt lat="45.09084" lon="6.06282">
        <ele>1785</ele>
        <time>2018-11-25T17:55:56Z</time>
      </trkpt>
      <trkpt lat="45.09081" lon="6.06295">
        <ele>1786</ele>
        <time>2018-11-25T17:55:58Z</time>
      </trkpt>
      <trkpt lat="45.09079" lon="6.06306">
        <ele>1787</ele>
        <time>2018-11-25T17:56:00Z</time>
      </trkpt>
      <trkpt lat="45.09076" lon="6.06317">
        <ele>1788</ele>
        <time>2018-11-25T17:56:02Z</time>
      </trkpt>
      <trkpt lat="45.09075" lon="6.06328">
        <ele>1788</ele>
        <time>2018-11-25T17:56:04Z</time>
      </trkpt>
      <trkpt lat="45.09073" lon="6.06339">
        <ele>1789</ele>
        <time>2018-11-25T17:56:06Z</time>
      </trkpt>
      <trkpt lat="45.09072" lon="6.06353">
        <ele>1790</ele>
        <time>2018-11-25T17:56:08Z</time>
      </trkpt>
      <trkpt lat="45.09071" lon="6.06364">
        <ele>1791</ele>
        <time>2018-11-25T17:56:10Z</time>
      </trkpt>
      <trkpt lat="45.0907" lon="6.06375">
        <ele>1792</ele>
        <time>2018-11-25T17:56:12Z</time>
      </trkpt>
      <trkpt lat="45.09067" lon="6.06385">
        <ele>1793</ele>
        <time>2018-11-25T17:56:14Z</time>
      </trkpt>
      <trkpt lat="45.09064" lon="6.06394">
        <ele>1788</ele>
        <time>2018-11-25T17:56:16Z</time>
      </trkpt>
      <trkpt lat="45.09064" lon="6.06394">
        <ele>1788</ele>
        <time>2018-11-25T17:56:18Z</time>
      </trkpt>
      <trkpt lat="45.09064" lon="6.06394">
        <ele>1788</ele>
        <time>2018-11-25T17:56:20Z</time>
      </trkpt>
      <trkpt lat="45.09064" lon="6.06394">
        <ele>1788</ele>
        <time>2018-11-25T17:56:22Z</time>
      </trkpt>
      <trkpt lat="45.09064" lon="6.06394">
        <ele>1788</ele>
        <time>2018-11-25T17:56:24Z</time>
      </trkpt>
      <trkpt lat="45.09064" lon="6.06394">
        <ele>1788</ele>
        <time>2018-11-25T17:56:26Z</time>
      </trkpt>
      <trkpt lat="45.09064" lon="6.06394">
        <ele>1788</ele>
        <time>2018-11-25T17:56:28Z</time>
      </trkpt>
      <trkpt lat="45.09064" lon="6.06394">
        <ele>1788</ele>
        <time>2018-11-25T17:56:30Z</time>
      </trkpt>
      <trkpt lat="45.09064" lon="6.06394">
        <ele>1788</ele>
        <time>2018-11-25T17:56:32Z</time>
      </trkpt>
      <trkpt lat="45.09064" lon="6.06394">
        <ele>1788</ele>
        <time>2018-11-25T17:56:34Z</time>
      </trkpt>
      <trkpt lat="45.09064" lon="6.06394">
        <ele>1788</ele>
        <time>2018-11-25T17:56:36Z</time>
      </trkpt>
      <trkpt lat="45.09064" lon="6.06394">
        <ele>1788</ele>
        <time>2018-11-25T17:56:38Z</time>
      </trkpt>
      <trkpt lat="45.09064" lon="6.06394">
        <ele>1788</ele>
        <time>2018-11-25T17:56:40Z</time>
      </trkpt>
      <trkpt lat="45.09064" lon="6.06394">
        <ele>1788</ele>
        <time>2018-11-25T17:56:42Z</time>
      </trkpt>
      <trkpt lat="45.09064" lon="6.06394">
        <ele>1788</ele>
        <time>2018-11-25T17:56:44Z</time>
      </trkpt>
      <trkpt lat="45.09064" lon="6.06394">
        <ele>1788</ele>
        <time>2018-11-25T17:56:46Z</time>
      </trkpt>
      <trkpt lat="45.09064" lon="6.06394">
        <ele>1788</ele>
        <time>2018-11-25T17:56:48Z</time>
      </trkpt>
      <trkpt lat="45.09064" lon="6.06394">
        <ele>1788</ele>
        <time>2018-11-25T17:56:50Z</time>
      </trkpt>
      <trkpt lat="45.09064" lon="6.06394">
        <ele>1788</ele>
        <time>2018-11-25T17:56:52Z</time>
      </trkpt>
      <trkpt lat="45.09064" lon="6.06394">
        <ele>1788</ele>
        <time>2018-11-25T17:56:54Z</time>
      </trkpt>
      <trkpt lat="45.09064" lon="6.06394">
        <ele>1788</ele>
        <time>2018-11-25T17:56:56Z</time>
      </trkpt>
      <trkpt lat="45.09064" lon="6.06394">
        <ele>1788</ele>
        <time>2018-11-25T17:56:58Z</time>
      </trkpt>
      <trkpt lat="45.09064" lon="6.06394">
        <ele>1788</ele>
        <time>2018-11-25T17:57:00Z</time>
      </trkpt>
      <trkpt lat="45.09064" lon="6.06394">
        <ele>1788</ele>
        <time>2018-11-25T17:57:02Z</time>
      </trkpt>
      <trkpt lat="45.09064" lon="6.06394">
        <ele>1788</ele>
        <time>2018-11-25T17:57:04Z</time>
      </trkpt>
      <trkpt lat="45.09064" lon="6.06394">
        <ele>1788</ele>
        <time>2018-11-25T17:57:06Z</time>
      </trkpt>
      <trkpt lat="45.09064" lon="6.06394">
        <ele>1788</ele>
        <time>2018-11-25T17:57:08Z</time>
      </trkpt>
      <trkpt lat="45.09064" lon="6.06394">
        <ele>1788</ele>
        <time>2018-11-25T17:57:10Z</time>
      </trkpt>
      <trkpt lat="45.09064" lon="6.06394">
        <ele>1788</ele>
        <time>2018-11-25T17:57:12Z</time>
      </trkpt>
      <trkpt lat="45.09064" lon="6.06394">
        <ele>1788</ele>
        <time>2018-11-25T17:57:14Z</time>
      </trkpt>
      <trkpt lat="45.09064" lon="6.06394">
        <ele>1788</ele>
        <time>2018-11-25T17:57:16Z</time>
      </trkpt>
      <trkpt lat="45.09064" lon="6.06394">
        <ele>1788</ele>
        <time>2018-11-25T17:57:18Z</time>
      </trkpt>
      <trkpt lat="45.09064" lon="6.06394">
        <ele>1788</ele>
        <time>2018-11-25T17:57:20Z</time>
      </trkpt>
      <trkpt lat="45.09064" lon="6.06394">
        <ele>1788</ele>
        <time>2018-11-25T17:57:22Z</time>
      </trkpt>
      <trkpt lat="45.09064" lon="6.06394">
        <ele>1788</ele>
        <time>2018-11-25T17:57:24Z</time>
      </trkpt>
      <trkpt lat="45.09064" lon="6.06394">
        <ele>1788</ele>
        <time>2018-11-25T17:57:26Z</time>
      </trkpt>
      <trkpt lat="45.09064" lon="6.06394">
        <ele>1788</ele>
        <time>2018-11-25T17:57:28Z</time>
      </trkpt>
      <trkpt lat="45.09064" lon="6.06394">
        <ele>1788</ele>
        <time>2018-11-25T17:57:30Z</time>
      </trkpt>
      <trkpt lat="45.09064" lon="6.06394">
        <ele>1788</ele>
        <time>2018-11-25T17:57:32Z</time>
      </trkpt>
      <trkpt lat="45.09064" lon="6.06394">
        <ele>1788</ele>
        <time>2018-11-25T17:57:34Z</time>
      </trkpt>
      <trkpt lat="45.09064" lon="6.06394">
        <ele>1788</ele>
        <time>2018-11-25T17:57:36Z</time>
      </trkpt>
      <trkpt lat="45.09064" lon="6.06394">
        <ele>1788</ele>
        <time>2018-11-25T17:57:38Z</time>
      </trkpt>
      <trkpt lat="45.09064" lon="6.06394">
        <ele>1788</ele>
        <time>2018-11-25T17:57:40Z</time>
      </trkpt>
      <trkpt lat="45.09064" lon="6.06394">
        <ele>1788</ele>
        <time>2018-11-25T17:57:42Z</time>
      </trkpt>
      <trkpt lat="45.09064" lon="6.06394">
        <ele>1788</ele>
        <time>2018-11-25T17:57:44Z</time>
      </trkpt>
      <trkpt lat="45.09064" lon="6.06394">
        <ele>1788</ele>
        <time>2018-11-25T17:57:46Z</time>
      </trkpt>
      <trkpt lat="45.09064" lon="6.06394">
        <ele>1788</ele>
        <time>2018-11-25T17:57:48Z</time>
      </trkpt>
      <trkpt lat="45.09064" lon="6.06394">
        <ele>1788</ele>
        <time>2018-11-25T17:57:50Z</time>
      </trkpt>
      <trkpt lat="45.09064" lon="6.06394">
        <ele>1788</ele>
        <time>2018-11-25T17:57:52Z</time>
      </trkpt>
      <trkpt lat="45.09064" lon="6.06394">
        <ele>1788</ele>
        <time>2018-11-25T17:57:54Z</time>
      </trkpt>
      <trkpt lat="45.09064" lon="6.06394">
        <ele>1788</ele>
        <time>2018-11-25T17:57:56Z</time>
      </trkpt>
      <trkpt lat="45.09064" lon="6.06394">
        <ele>1788</ele>
        <time>2018-11-25T17:57:58Z</time>
      </trkpt>
      <trkpt lat="45.09064" lon="6.06394">
        <ele>1788</ele>
        <time>2018-11-25T17:58:00Z</time>
      </trkpt>
      <trkpt lat="45.09064" lon="6.06394">
        <ele>1788</ele>
        <time>2018-11-25T17:58:02Z</time>
      </trkpt>
      <trkpt lat="45.09064" lon="6.06394">
        <ele>1788</ele>
        <time>2018-11-25T17:58:04Z</time>
      </trkpt>
      <trkpt lat="45.09064" lon="6.06394">
        <ele>1788</ele>
        <time>2018-11-25T17:58:06Z</time>
      </trkpt>
      <trkpt lat="45.09064" lon="6.06394">
        <ele>1788</ele>
        <time>2018-11-25T17:58:08Z</time>
      </trkpt>
      <trkpt lat="45.09064" lon="6.06394">
        <ele>1788</ele>
        <time>2018-11-25T17:58:10Z</time>
      </trkpt>
      <trkpt lat="45.09064" lon="6.06394">
        <ele>1788</ele>
        <time>2018-11-25T17:58:12Z</time>
      </trkpt>
      <trkpt lat="45.09064" lon="6.06394">
        <ele>1788</ele>
        <time>2018-11-25T17:58:14Z</time>
      </trkpt>
      <trkpt lat="45.09064" lon="6.06394">
        <ele>1788</ele>
        <time>2018-11-25T17:58:16Z</time>
      </trkpt>
      <trkpt lat="45.09064" lon="6.06394">
        <ele>1788</ele>
        <time>2018-11-25T17:58:18Z</time>
      </trkpt>
      <trkpt lat="45.09064" lon="6.06394">
        <ele>1788</ele>
        <time>2018-11-25T17:58:20Z</time>
      </trkpt>
      <trkpt lat="45.09064" lon="6.06394">
        <ele>1788</ele>
        <time>2018-11-25T17:58:22Z</time>
      </trkpt>
      <trkpt lat="45.09064" lon="6.06394">
        <ele>1788</ele>
        <time>2018-11-25T17:58:24Z</time>
      </trkpt>
      <trkpt lat="45.09064" lon="6.06394">
        <ele>1788</ele>
        <time>2018-11-25T17:58:26Z</time>
      </trkpt>
      <trkpt lat="45.09064" lon="6.06394">
        <ele>1788</ele>
        <time>2018-11-25T17:58:28Z</time>
      </trkpt>
      <trkpt lat="45.09064" lon="6.06394">
        <ele>1788</ele>
        <time>2018-11-25T17:58:30Z</time>
      </trkpt>
      <trkpt lat="45.09064" lon="6.06394">
        <ele>1788</ele>
        <time>2018-11-25T17:58:32Z</time>
      </trkpt>
      <trkpt lat="45.09064" lon="6.06394">
        <ele>1788</ele>
        <time>2018-11-25T17:58:34Z</time>
      </trkpt>
      <trkpt lat="45.09064" lon="6.06394">
        <ele>1788</ele>
        <time>2018-11-25T17:58:36Z</time>
      </trkpt>
      <trkpt lat="45.09064" lon="6.06394">
        <ele>1788</ele>
        <time>2018-11-25T17:58:38Z</time>
      </trkpt>
      <trkpt lat="45.09064" lon="6.06394">
        <ele>1788</ele>
        <time>2018-11-25T17:58:40Z</time>
      </trkpt>
      <trkpt lat="45.09064" lon="6.06394">
        <ele>1788</ele>
        <time>2018-11-25T17:58:42Z</time>
      </trkpt>
      <trkpt lat="45.09064" lon="6.06394">
        <ele>1788</ele>
        <time>2018-11-25T17:58:44Z</time>
      </trkpt>
      <trkpt lat="45.09064" lon="6.06394">
        <ele>1788</ele>
        <time>2018-11-25T17:58:46Z</time>
      </trkpt>
      <trkpt lat="45.09064" lon="6.06394">
        <ele>1788</ele>
        <time>2018-11-25T17:58:48Z</time>
      </trkpt>
      <trkpt lat="45.09064" lon="6.06394">
        <ele>1788</ele>
        <time>2018-11-25T17:58:50Z</time>
      </trkpt>
      <trkpt lat="45.09064" lon="6.06394">
        <ele>1788</ele>
        <time>2018-11-25T17:58:52Z</time>
      </trkpt>
      <trkpt lat="45.09064" lon="6.06394">
        <ele>1788</ele>
        <time>2018-11-25T17:58:54Z</time>
      </trkpt>
      <trkpt lat="45.09064" lon="6.06394">
        <ele>1788</ele>
        <time>2018-11-25T17:58:56Z</time>
      </trkpt>
      <trkpt lat="45.09064" lon="6.06394">
        <ele>1788</ele>
        <time>2018-11-25T17:58:58Z</time>
      </trkpt>
      <trkpt lat="45.09064" lon="6.06394">
        <ele>1788</ele>
        <time>2018-11-25T17:59:00Z</time>
      </trkpt>
      <trkpt lat="45.09064" lon="6.06394">
        <ele>1788</ele>
        <time>2018-11-25T17:59:02Z</time>
      </trkpt>
      <trkpt lat="45.09064" lon="6.06394">
        <ele>1788</ele>
        <time>2018-11-25T17:59:04Z</time>
      </trkpt>
      <trkpt lat="45.09064" lon="6.06394">
        <ele>1788</ele>
        <time>2018-11-25T17:59:06Z</time>
      </trkpt>
      <trkpt lat="45.09064" lon="6.06394">
        <ele>1788</ele>
        <time>2018-11-25T17:59:08Z</time>
      </trkpt>
      <trkpt lat="45.09064" lon="6.06394">
        <ele>1788</ele>
        <time>2018-11-25T17:59:10Z</time>
      </trkpt>
      <trkpt lat="45.09064" lon="6.06394">
        <ele>1788</ele>
        <time>2018-11-25T17:59:12Z</time>
      </trkpt>
      <trkpt lat="45.09064" lon="6.06394">
        <ele>1788</ele>
        <time>2018-11-25T17:59:14Z</time>
      </trkpt>
      <trkpt lat="45.09064" lon="6.06394">
        <ele>1788</ele>
        <time>2018-11-25T17:59:16Z</time>
      </trkpt>
      <trkpt lat="45.09064" lon="6.06394">
        <ele>1788</ele>
        <time>2018-11-25T17:59:18Z</time>
      </trkpt>
      <trkpt lat="45.09064" lon="6.06394">
        <ele>1788</ele>
        <time>2018-11-25T17:59:20Z</time>
      </trkpt>
      <trkpt lat="45.09064" lon="6.06394">
        <ele>1788</ele>
        <time>2018-11-25T17:59:22Z</time>
      </trkpt>
      <trkpt lat="45.09064" lon="6.06394">
        <ele>1788</ele>
        <time>2018-11-25T17:59:24Z</time>
      </trkpt>
      <trkpt lat="45.09064" lon="6.06394">
        <ele>1788</ele>
        <time>2018-11-25T17:59:26Z</time>
      </trkpt>
      <trkpt lat="45.09064" lon="6.06394">
        <ele>1788</ele>
        <time>2018-11-25T17:59:28Z</time>
      </trkpt>
      <trkpt lat="45.09064" lon="6.06394">
        <ele>1788</ele>
        <time>2018-11-25T17:59:30Z</time>
      </trkpt>
      <trkpt lat="45.09064" lon="6.06394">
        <ele>1788</ele>
        <time>2018-11-25T17:59:32Z</time>
      </trkpt>
      <trkpt lat="45.09064" lon="6.06394">
        <ele>1788</ele>
        <time>2018-11-25T17:59:34Z</time>
      </trkpt>
      <trkpt lat="45.09064" lon="6.06394">
        <ele>1788</ele>
        <time>2018-11-25T17:59:36Z</time>
      </trkpt>
      <trkpt lat="45.09064" lon="6.06394">
        <ele>1788</ele>
        <time>2018-11-25T17:59:38Z</time>
      </trkpt>
      <trkpt lat="45.09064" lon="6.06394">
        <ele>1788</ele>
        <time>2018-11-25T17:59:40Z</time>
      </trkpt>
      <trkpt lat="45.09064" lon="6.06394">
        <ele>1788</ele>
        <time>2018-11-25T17:59:42Z</time>
      </trkpt>
      <trkpt lat="45.09064" lon="6.06394">
        <ele>1788</ele>
        <time>2018-11-25T17:59:44Z</time>
      </trkpt>
      <trkpt lat="45.09064" lon="6.06394">
        <ele>1788</ele>
        <time>2018-11-25T17:59:46Z</time>
      </trkpt>
      <trkpt lat="45.09064" lon="6.06394">
        <ele>1788</ele>
        <time>2018-11-25T17:59:48Z</time>
      </trkpt>
      <trkpt lat="45.09064" lon="6.06394">
        <ele>1788</ele>
        <time>2018-11-25T17:59:50Z</time>
      </trkpt>
      <trkpt lat="45.09064" lon="6.06394">
        <ele>1788</ele>
        <time>2018-11-25T17:59:52Z</time>
      </trkpt>
      <trkpt lat="45.09064" lon="6.06394">
        <ele>1788</ele>
        <time>2018-11-25T17:59:54Z</time>
      </trkpt>
      <trkpt lat="45.09064" lon="6.06394">
        <ele>1788</ele>
        <time>2018-11-25T17:59:56Z</time>
      </trkpt>
      <trkpt lat="45.09064" lon="6.06394">
        <ele>1788</ele>
        <time>2018-11-25T17:59:58Z</time>
      </trkpt>
      <trkpt lat="45.09064" lon="6.06394">
        <ele>1788</ele>
        <time>2018-11-25T18:00:00Z</time>
      </trkpt>
      <trkpt lat="45.09064" lon="6.06394">
        <ele>1788</ele>
        <time>2018-11-25T18:00:02Z</time>
      </trkpt>
      <trkpt lat="45.09064" lon="6.06394">
        <ele>1788</ele>
        <time>2018-11-25T18:00:04Z</time>
      </trkpt>
      <trkpt lat="45.09064" lon="6.06394">
        <ele>1788</ele>
        <time>2018-11-25T18:00:06Z</time>
      </trkpt>
      <trkpt lat="45.09064" lon="6.06394">
        <ele>1788</ele>
        <time>2018-11-25T18:00:08Z</time>
      </trkpt>
      <trkpt lat="45.09064" lon="6.06394">
        <ele>1788</ele>
        <time>2018-11-25T18:00:10Z</time>
      </trkpt>
      <trkpt lat="45.09064" lon="6.06394">
        <ele>1788</ele>
        <time>2018-11-25T18:00:12Z</time>
      </trkpt>
      <trkpt lat="45.09064" lon="6.06394">
        <ele>1788</ele>
        <time>2018-11-25T18:00:14Z</time>
      </trkpt>
      <trkpt lat="45.09064" lon="6.06394">
        <ele>1788</ele>
        <time>2018-11-25T18:00:16Z</time>
      </trkpt>
      <trkpt lat="45.09064" lon="6.06394">
        <ele>1788</ele>
        <time>2018-11-25T18:00:18Z</time>
      </trkpt>
      <trkpt lat="45.09064" lon="6.06394">
        <ele>1788</ele>
        <time>2018-11-25T18:00:20Z</time>
      </trkpt>
      <trkpt lat="45.09064" lon="6.06394">
        <ele>1788</ele>
        <time>2018-11-25T18:00:22Z</time>
      </trkpt>
      <trkpt lat="45.09064" lon="6.06394">
        <ele>1788</ele>
        <time>2018-11-25T18:00:24Z</time>
      </trkpt>
      <trkpt lat="45.09064" lon="6.06394">
        <ele>1788</ele>
        <time>2018-11-25T18:00:26Z</time>
      </trkpt>
      <trkpt lat="45.09064" lon="6.06394">
        <ele>1788</ele>
        <time>2018-11-25T18:00:28Z</time>
      </trkpt>
      <trkpt lat="45.09064" lon="6.06394">
        <ele>1788</ele>
        <time>2018-11-25T18:00:30Z</time>
      </trkpt>
      <trkpt lat="45.09064" lon="6.06394">
        <ele>1788</ele>
        <time>2018-11-25T18:00:32Z</time>
      </trkpt>
      <trkpt lat="45.09064" lon="6.06394">
        <ele>1788</ele>
        <time>2018-11-25T18:00:34Z</time>
      </trkpt>
      <trkpt lat="45.09064" lon="6.06394">
        <ele>1788</ele>
        <time>2018-11-25T18:00:36Z</time>
      </trkpt>
      <trkpt lat="45.09064" lon="6.06394">
        <ele>1788</ele>
        <time>2018-11-25T18:00:38Z</time>
      </trkpt>
      <trkpt lat="45.09064" lon="6.06394">
        <ele>1788</ele>
        <time>2018-11-25T18:00:40Z</time>
      </trkpt>
      <trkpt lat="45.09064" lon="6.06394">
        <ele>1788</ele>
        <time>2018-11-25T18:00:42Z</time>
      </trkpt>
      <trkpt lat="45.09064" lon="6.06394">
        <ele>1788</ele>
        <time>2018-11-25T18:00:44Z</time>
      </trkpt>
      <trkpt lat="45.09064" lon="6.06394">
        <ele>1788</ele>
        <time>2018-11-25T18:00:46Z</time>
      </trkpt>
      <trkpt lat="45.09064" lon="6.06394">
        <ele>1788</ele>
        <time>2018-11-25T18:00:48Z</time>
      </trkpt>
      <trkpt lat="45.09064" lon="6.06394">
        <ele>1788</ele>
        <time>2018-11-25T18:00:50Z</time>
      </trkpt>
      <trkpt lat="45.09064" lon="6.06394">
        <ele>1788</ele>
        <time>2018-11-25T18:00:52Z</time>
      </trkpt>
      <trkpt lat="45.09064" lon="6.06394">
        <ele>1788</ele>
        <time>2018-11-25T18:00:54Z</time>
      </trkpt>
      <trkpt lat="45.09064" lon="6.06394">
        <ele>1788</ele>
        <time>2018-11-25T18:00:56Z</time>
      </trkpt>
      <trkpt lat="45.09064" lon="6.06394">
        <ele>1788</ele>
        <time>2018-11-25T18:00:58Z</time>
      </trkpt>
      <trkpt lat="45.09064" lon="6.06394">
        <ele>1788</ele>
        <time>2018-11-25T18:01:00Z</time>
      </trkpt>
      <trkpt lat="45.09064" lon="6.06394">
        <ele>1788</ele>
        <time>2018-11-25T18:01:02Z</time>
      </trkpt>
      <trkpt lat="45.09064" lon="6.06394">
        <ele>1788</ele>
        <time>2018-11-25T18:01:04Z</time>
      </trkpt>
      <trkpt lat="45.09064" lon="6.06394">
        <ele>1788</ele>
        <time>2018-11-25T18:01:06Z</time>
      </trkpt>
      <trkpt lat="45.09064" lon="6.06394">
        <ele>1788</ele>
        <time>2018-11-25T18:01:08Z</time>
      </trkpt>
      <trkpt lat="45.09064" lon="6.06394">
        <ele>1788</ele>
        <time>2018-11-25T18:01:10Z</time>
      </trkpt>
      <trkpt lat="45.09064" lon="6.06394">
        <ele>1788</ele>
        <time>2018-11-25T18:01:12Z</time>
      </trkpt>
    </trkseg>
  </trk>
</gpx>